Date StartTime U_cm/s V_cm/s W_cm/s Ustd_cm/s Vstd_cm/s Wstd_cm/s Uvar_(cm/s)^2 Vvar_(cm/s)^2 Wvar_(cm/s)^2 KE_(m/s)^2 TurbulentKE_(m/s)^2 HorizWindSpeed_cm/s FrictionSpeec_cm/s DragCoef SpeedOfSound_m/s SonicTemperature_C Pressure_mb 
05/08/2013  00:00:00     -251.171      -80.429       -5.554       88.870       75.473       41.068     7897.806     5696.163     1686.584        4.243        0.764      263.734       41.002        0.024      337.666        9.791      860.227
05/08/2013  00:01:00     -231.099      -34.113       -8.610      131.514      103.501       52.205    17295.970    10712.412     2725.371        4.268        1.537      233.603       60.394        0.067      337.711        9.868      860.208
05/08/2013  00:02:00     -232.916      -34.406       -9.299      167.899       89.211       48.979    28190.193     7958.658     2398.986        4.703        1.927      235.443       49.310        0.044      337.730        9.899      860.200
05/08/2013  00:03:00     -331.185      -78.024      -19.259      129.645       96.177       55.372    16807.762     9250.101     3066.068        7.263        1.456      340.252       56.775        0.028      337.734        9.905      860.208
05/08/2013  00:04:00     -245.788      -83.305       -4.479      130.315       70.141       45.415    16982.098     4919.708     2062.507        4.566        1.198      259.521       57.818        0.050      337.699        9.846      860.226
05/08/2013  00:05:00     -232.847     -131.807       -5.867      136.558      110.327       69.058    18648.211    12172.012     4769.023        5.360        1.779      267.564       71.686        0.072      337.693        9.837      860.247
05/08/2013  00:06:00     -156.422      -66.809       -0.387       80.769       85.798       40.659     6523.703     7361.233     1653.175        2.223        0.777      170.092       43.011        0.064      337.691        9.834      860.258
05/08/2013  00:07:00     -225.445     -106.043       -8.214       69.410       72.578       42.653     4817.686     5267.554     1819.285        3.702        0.595      249.140       37.981        0.023      337.688        9.827      860.253
05/08/2013  00:08:00     -236.851      -39.088        5.998      148.899       69.180       53.313    22171.055     4785.911     2842.272        4.373        1.490      240.054       69.518        0.084      337.674        9.806      860.251
05/08/2013  00:09:00     -291.770      -70.342       -1.757      101.572      108.166       52.794    10316.924    11699.863     2787.193        5.744        1.240      300.130       51.722        0.030      337.672        9.801      860.253
05/08/2013  00:10:00     -248.050      -70.047        1.169      106.953       98.688       50.211    11439.004     9739.296     2521.126        4.506        1.185      257.751       50.698        0.039      337.685        9.825      860.260
05/08/2013  00:11:00     -272.612      -37.436      -18.089      102.757       72.348       46.012    10559.026     5234.177     2117.067        4.698        0.896      275.170       54.792        0.040      337.687        9.826      860.268
05/08/2013  00:12:00     -221.494      -57.226      -14.967      108.490       99.690       47.103    11769.996     9938.054     2218.689        3.824        1.196      228.767       52.769        0.053      337.670        9.798      860.270
05/08/2013  00:13:00     -182.249      -35.762       -1.278      124.322      102.877       52.271    15455.954    10583.766     2732.225        3.163        1.439      185.724       54.354        0.086      337.674        9.807      860.276
05/08/2013  00:14:00     -219.513      -75.779        0.156       88.991       85.795       55.681     7919.335     7360.840     3100.410        3.615        0.919      232.225       48.548        0.044      337.659        9.781      860.281
05/08/2013  00:15:00     -281.314      -67.913      -11.644      133.926       99.012       59.769    17936.148     9803.467     3572.317        5.759        1.566      289.395       60.448        0.044      337.690        9.831      860.288
05/08/2013  00:16:00     -198.650      -30.102        0.028      100.711       87.321       46.743    10142.755     7624.881     2184.868        3.016        0.998      200.918       51.405        0.065      337.679        9.814      860.301
05/08/2013  00:17:00     -100.873      -46.272       24.162      130.325       88.241       58.770    16984.707     7786.532     3453.904        2.056        1.411      110.979       71.039        0.410      337.697        9.846      860.288
05/08/2013  00:18:00     -252.035      -55.429       -4.887      118.153       70.208       47.936    13960.022     4929.165     2297.822        4.390        1.059      258.058       53.198        0.042      337.638        9.746      860.303
05/08/2013  00:19:00     -257.085      -48.603      -16.143      110.067       64.171       47.828    12114.831     4117.908     2287.476        4.361        0.926      261.639       47.417        0.033      337.665        9.791      860.302
05/08/2013  00:20:00     -238.959      -61.032       -9.399      106.224       75.412       47.525    11283.434     5687.012     2258.598        4.007        0.961      246.630       50.062        0.041      337.665        9.790      860.298
05/08/2013  00:21:00     -289.181      -39.119       -6.486      134.195      101.273       69.260    18008.205    10256.196     4796.895        5.912        1.653      291.815       71.702        0.060      337.699        9.846      860.299
05/08/2013  00:22:00     -205.540      -53.970       -4.996      121.835       77.103       45.790    14843.875     5944.819     2096.691        3.403        1.144      212.507       49.019        0.053      337.682        9.819      860.282
05/08/2013  00:23:00     -210.370     -103.107       -3.638      107.014       79.356       51.755    11451.935     6297.404     2678.542        3.766        1.021      234.279       64.079        0.075      337.718        9.877      860.281
05/08/2013  00:24:00     -212.369      -32.903       -6.897       85.493       90.994       51.132     7308.988     8279.869     2614.432        3.221        0.910      214.903       49.966        0.054      337.709        9.862      860.275
05/08/2013  00:25:00     -235.464     -107.988      -18.906       99.718       73.454       47.039     9943.632     5395.544     2212.664        4.250        0.878      259.046       32.901        0.016      337.726        9.892      860.269
05/08/2013  00:26:00     -207.348      -45.681        3.282      102.813       75.692       49.326    10570.475     5729.224     2433.040        3.191        0.937      212.320       49.864        0.055      337.713        9.870      860.281
05/08/2013  00:27:00     -169.389      -61.326       -4.167       73.974       81.218       32.511     5472.088     6596.437     1056.960        2.280        0.656      180.149       32.781        0.033      337.746        9.926      860.291
05/08/2013  00:28:00     -162.489      -52.430        8.676      111.816       70.185       45.716    12502.907     4925.918     2089.992        2.437        0.976      170.738       53.561        0.098      337.737        9.911      860.307
05/08/2013  00:29:00     -115.890      -83.982        5.972       80.060       79.436       54.712     6409.560     6310.090     2993.391        1.811        0.786      143.120       51.525        0.130      337.773        9.972      860.311
05/08/2013  00:30:00     -181.465      -23.207      -10.840       59.663       49.005       33.867     3559.644     2401.520     1146.953        2.035        0.355      182.943       32.064        0.031      337.744        9.923      860.300
05/08/2013  00:31:00     -118.151      -71.586        3.708      102.395       64.038       49.957    10484.758     4100.913     2495.711        1.809        0.854      138.145       45.305        0.108      337.756        9.945      860.284
05/08/2013  00:32:00     -226.472     -113.888        1.019       94.276       66.020       45.559     8887.987     4358.620     2075.583        3.979        0.766      253.496       41.774        0.027      337.772        9.970      860.275
05/08/2013  00:33:00     -149.191      -43.600        8.373      133.413       58.515       37.588    17798.930     3423.954     1412.889        2.343        1.132      155.432       54.368        0.122      337.796       10.010      860.275
05/08/2013  00:34:00      -93.620      -83.770        7.902       56.561       74.520       38.283     3199.128     5553.234     1465.582        1.303        0.511      125.627       31.983        0.065      337.860       10.118      860.284
05/08/2013  00:35:00     -126.678      -64.281        0.016       77.312       71.136       37.019     5977.181     5060.265     1370.426        1.629        0.620      142.054       38.439        0.073      337.838       10.080      860.295
05/08/2013  00:36:00     -193.319     -139.764       -4.578       91.940       72.251       44.081     8453.018     5220.260     1943.129        3.627        0.781      238.550       43.289        0.033      337.823       10.054      860.305
05/08/2013  00:37:00      -97.477     -132.277      -11.402       87.300       58.751       36.253     7621.332     3451.666     1314.248        1.976        0.619      164.314       29.322        0.032      337.818       10.048      860.319
05/08/2013  00:38:00      -42.932     -145.820       -2.863       58.379       73.018       35.703     3408.053     5331.586     1274.682        1.656        0.501      152.009       32.386        0.045      337.868       10.131      860.307
05/08/2013  00:39:00      -18.170      -45.522       13.066       53.344       53.923       36.406     2845.602     2907.669     1325.403        0.482        0.354       49.014       34.625        0.499      337.877       10.147      860.303
05/08/2013  00:40:00      -50.854      -68.364      -12.373       33.301       37.198       21.317     1108.928     1383.687      454.415        0.518        0.147       85.204       13.386        0.025      337.860       10.118      860.319
05/08/2013  00:41:00      -12.857      -44.982       -2.637       42.431       43.832       22.256     1800.353     1921.251      495.317        0.321        0.211       46.784       17.961        0.147      337.872       10.137      860.311
05/08/2013  00:42:00      -74.520      -80.719      -14.028       28.036       39.733       19.432      786.035     1578.740      377.610        0.750        0.137      109.858       13.626        0.015      337.838       10.080      860.310
05/08/2013  00:43:00     -109.536      -54.220       -6.272       58.124       35.407       22.066     3378.348     1253.690      486.910        1.005        0.256      122.221       22.646        0.034      337.834       10.075      860.315
05/08/2013  00:44:00     -105.630      -80.865        8.516       87.319       53.633       32.731     7624.614     2876.479     1071.311        1.467        0.579      133.029       32.436        0.059      337.827       10.064      860.308
05/08/2013  00:45:00       18.181      -87.851        6.713       41.747       30.034       23.562     1742.828      902.029      555.184        0.565        0.160       89.713       21.430        0.057      337.873       10.141      860.295
05/08/2013  00:46:00      -17.268      -26.654       13.274       40.803       23.768       21.862     1664.908      564.920      477.925        0.195        0.135       31.759       20.739        0.426      337.925       10.230      860.304
05/08/2013  00:47:00      -73.309      -65.289       -4.923       50.916       27.996       21.244     2592.412      783.786      451.300        0.674        0.191       98.168       19.648        0.040      337.845       10.094      860.320
05/08/2013  00:48:00      -26.274      -59.676        3.121       33.106       25.269       20.483     1096.030      638.507      419.566        0.321        0.108       65.204       17.697        0.074      337.833       10.074      860.320
05/08/2013  00:49:00      -50.669      -62.603       -2.516       24.891       24.949       16.414      619.561      622.469      269.407        0.400        0.076       80.539       14.226        0.031      337.820       10.053      860.324
05/08/2013  00:50:00      -14.244        7.667       19.752       14.339       17.580       11.563      205.616      309.040      133.696        0.065        0.032       16.177       11.342        0.492      337.826       10.066      860.304
05/08/2013  00:51:00      -44.638        8.170        5.715       21.254       12.675       13.083      451.729      160.660      171.168        0.144        0.039       45.380       11.738        0.067      337.758        9.947      860.318
05/08/2013  00:52:00      -31.080      -42.242        0.792       39.219       31.133       13.471     1538.111      969.285      181.480        0.272        0.134       52.444       13.993        0.071      337.796       10.012      860.340
05/08/2013  00:53:00      -17.886       28.558       16.563       40.261       21.584       26.050     1620.942      465.874      678.577        0.209        0.138       33.697       26.215        0.605      337.805       10.029      860.319
05/08/2013  00:54:00      -64.550       24.104        0.987       29.510       19.979       15.803      870.850      399.150      249.724        0.313        0.076       68.904       13.754        0.040      337.789       10.000      860.322
05/08/2013  00:55:00       15.079       43.038       44.555       23.131       27.232       20.134      535.063      741.607      405.363        0.287        0.084       45.603       14.186        0.097      337.802       10.023      860.325
05/08/2013  00:56:00      -21.039        8.322       28.091       15.408       24.661       24.388      237.405      608.185      594.789        0.137        0.072       22.625       16.526        0.533      337.803       10.022      860.309
05/08/2013  00:57:00       -1.340      -25.430       10.304       22.833       36.078       22.590      521.349     1301.613      510.300        0.154        0.117       25.465       26.735        1.102      337.845       10.094      860.324
05/08/2013  00:58:00        3.523      -79.612       -5.064       29.095       25.772       28.987      846.530      664.212      840.225        0.436        0.118       79.690       19.679        0.061      337.933       10.242      860.329
05/08/2013  00:59:00       12.031      -24.428       13.350       26.182       38.492       31.680      685.481     1481.603     1003.594        0.204        0.159       27.230       20.050        0.542      337.920       10.219      860.331
05/08/2013  01:00:00       -4.888      -44.192        4.348       23.625       28.696       20.794      558.159      823.438      432.405        0.190        0.091       44.462        7.440        0.028      337.840       10.087      860.341
05/08/2013  01:01:00       -1.195      -18.360        2.385       18.712       25.013       16.641      350.131      625.664      276.917        0.080        0.063       18.399       12.775        0.482      337.840       10.086      860.322
05/08/2013  01:02:00      -22.184      -41.562       -1.748       23.018       31.879       22.361      529.808     1016.274      500.022        0.213        0.102       47.112       21.913        0.216      337.855       10.110      860.317
05/08/2013  01:03:00       -7.911       -7.615        9.897       22.076       30.195       15.504      487.364      911.723      240.388        0.093        0.082       10.980       18.440        2.820      337.858       10.116      860.319
05/08/2013  01:04:00      -13.557       -3.847        2.372       25.111       23.433       16.904      630.569      549.094      285.745        0.083        0.073       14.093        9.507        0.455      337.819       10.051      860.328
05/08/2013  01:05:00      -30.803       17.374       -3.999       25.488       21.196       12.246      649.623      449.255      149.968        0.126        0.062       35.366        9.710        0.075      337.772        9.971      860.321
05/08/2013  01:06:00      -51.924      -32.827        9.575       44.083       28.583       19.574     1943.304      816.986      383.157        0.350        0.157       61.431       17.926        0.085      337.742        9.922      860.330
05/08/2013  01:07:00      -15.409        8.975       17.122       25.316       19.330       15.902      640.881      373.639      252.862        0.094        0.063       17.832       16.971        0.906      337.769        9.966      860.316
05/08/2013  01:08:00      -46.266      -64.490        7.293       29.969       52.562       32.014      898.169     2762.758     1024.887        0.552        0.234       79.369       24.548        0.096      337.770        9.969      860.302
05/08/2013  01:09:00      -24.260      -63.257       -5.112       30.215       34.772       30.558      912.947     1209.082      933.786        0.384        0.153       67.750       22.208        0.107      337.804       10.027      860.284
05/08/2013  01:10:00      -32.335      -17.398        5.122       32.238       24.684       19.918     1039.258      609.318      396.716        0.171        0.102       36.718       15.676        0.182      337.821       10.053      860.282
05/08/2013  01:11:00      -18.705     -104.730        3.801       35.245       47.304       38.609     1242.240     2237.652     1490.658        0.815        0.249      106.388       31.827        0.089      337.854       10.109      860.270
05/08/2013  01:12:00      -43.524      -53.091      -10.975       34.253       45.963       25.982     1173.285     2112.617      675.087        0.440        0.198       68.651       22.105        0.104      337.876       10.144      860.260
05/08/2013  01:13:00      -23.281       12.557       21.378       27.847       18.007       16.795      775.429      324.262      282.061        0.127        0.069       26.451       14.656        0.307      337.871       10.138      860.248
05/08/2013  01:14:00      -49.279      -81.218        2.763       25.144       37.514       18.590      632.196     1407.321      345.602        0.571        0.119       94.999        9.190        0.009      337.806       10.028      860.242
05/08/2013  01:15:00      -27.613      -50.668        2.590       36.059       23.493       17.379     1300.238      551.906      302.045        0.274        0.108       57.704       15.153        0.069      337.791       10.006      860.251
05/08/2013  01:16:00      -92.247      -64.559        1.893       54.009       42.509       26.635     2916.935     1807.006      709.443        0.906        0.272      112.594       27.443        0.059      337.731        9.905      860.254
05/08/2013  01:17:00      -73.590      -61.590      -22.694       54.956       38.005       36.383     3020.134     1444.360     1323.691        0.776        0.289       95.963       21.244        0.049      337.808       10.031      860.261
05/08/2013  01:18:00      -59.065      -69.066       -0.198       46.715       33.599       23.320     2182.317     1128.906      543.799        0.606        0.193       90.877       11.700        0.017      337.775        9.977      860.283
05/08/2013  01:19:00      -44.969      -62.113       -8.420       53.162       46.642       19.222     2826.195     2175.511      369.469        0.566        0.269       76.682       20.897        0.074      337.767        9.964      860.298
05/08/2013  01:20:00      -71.456      -67.768       -8.514       27.666       30.737       11.686      765.392      944.788      136.563        0.581        0.092       98.480        7.244        0.005      337.776        9.977      860.303
05/08/2013  01:21:00      -78.213      -40.735        6.654       28.836       30.199       22.075      831.535      911.961      487.315        0.503        0.112       88.185       14.872        0.028      337.749        9.934      860.309
05/08/2013  01:22:00      -35.690      -32.230        7.256       39.283       33.171       20.215     1543.145     1100.324      408.644        0.271        0.153       48.089       14.886        0.096      337.756        9.946      860.299
05/08/2013  01:23:00      -62.283      -63.185       -6.119       37.645       26.655       28.688     1417.168      710.511      822.992        0.543        0.148       88.722       17.495        0.039      337.807       10.028      860.287
05/08/2013  01:24:00      -61.660      -70.907        6.486       55.255       35.537       23.561     3053.108     1262.896      555.113        0.687        0.244       93.966       22.182        0.056      337.794       10.007      860.279
05/08/2013  01:25:00     -115.428     -104.427        0.815       59.761       46.416       35.116     3571.398     2154.450     1233.153        1.559        0.348      155.656       24.664        0.025      337.809       10.033      860.261
05/08/2013  01:26:00     -141.142     -100.065       -4.308       54.724       42.250       31.056     2994.712     1785.086      964.458        1.785        0.287      173.014       30.191        0.030      337.816       10.045      860.250
05/08/2013  01:27:00     -105.521      -57.051        5.446       72.434       42.406       32.419     5246.719     1798.228     1050.972        1.126        0.405      119.956       37.165        0.096      337.795       10.011      860.239
05/08/2013  01:28:00      -73.952      -76.240       -7.973       45.300       31.380       23.687     2052.059      984.720      561.055        0.747        0.180      106.214       16.490        0.024      337.799       10.017      860.228
05/08/2013  01:29:00      -83.995      -70.793       -1.858       45.246       37.946       21.182     2047.224     1439.864      448.686        0.800        0.197      109.849       20.510        0.035      337.783        9.992      860.214
05/08/2013  01:30:00     -105.188     -109.758       -3.617       66.272       53.919       25.071     4391.932     2907.211      628.570        1.552        0.396      152.024       28.012        0.034      337.779        9.983      860.219
05/08/2013  01:31:00     -117.308     -105.275       -4.671       58.631       56.984       35.336     3437.583     3247.171     1248.630        1.640        0.397      157.619       28.064        0.032      337.761        9.951      860.224
05/08/2013  01:32:00     -105.509      -83.070        1.457       70.374       42.809       35.111     4952.502     1832.589     1232.749        1.303        0.401      134.286       33.263        0.061      337.772        9.971      860.211
05/08/2013  01:33:00      -53.301      -37.768       18.370       67.033       47.574       30.220     4493.398     2263.259      913.266        0.614        0.383       65.326       34.474        0.278      337.783        9.990      860.204
05/08/2013  01:34:00     -107.825      -78.696       -2.214       47.445       50.090       25.901     2250.995     2509.052      670.839        1.163        0.272      133.489       25.505        0.037      337.757        9.947      860.195
05/08/2013  01:35:00      -72.934      -40.114       -1.135       44.044       22.586       25.217     1939.859      510.144      635.914        0.501        0.154       83.238       26.417        0.101      337.772        9.971      860.186
05/08/2013  01:36:00      -86.407      -55.466       -1.597       42.237       21.328       18.302     1783.990      454.898      334.949        0.656        0.129      102.678       18.360        0.032      337.774        9.974      860.182
05/08/2013  01:37:00      -86.968      -64.492        4.472       37.941       34.450       24.266     1439.514     1186.771      588.818        0.748        0.161      108.271       22.842        0.045      337.816       10.047      860.178
05/08/2013  01:38:00      -60.522      -63.755        5.818       44.802       34.123       22.544     2007.217     1164.375      508.215        0.572        0.184       87.907       22.806        0.067      337.845       10.093      860.174
05/08/2013  01:39:00      -61.825      -81.928        1.203       26.477       35.149       19.948      701.032     1235.421      397.911        0.643        0.117      102.638       20.773        0.041      337.903       10.194      860.179
05/08/2013  01:40:00      -72.364      -68.040      -12.216       34.244       25.916       19.165     1172.669      671.619      367.306        0.611        0.111       99.328       17.073        0.030      337.882       10.157      860.185
05/08/2013  01:41:00      -35.109      -92.009       -8.172       32.844       43.164       15.726     1078.750     1863.111      247.311        0.648        0.159       98.480       11.518        0.014      337.899       10.184      860.202
05/08/2013  01:42:00      -59.331     -124.885       -6.438       35.645       53.359       24.581     1270.583     2847.217      604.208        1.194        0.236      138.263       16.015        0.013      337.917       10.215      860.207
05/08/2013  01:43:00      -47.949      -71.273       -8.153       42.200       31.252       18.527     1780.876      976.698      343.251        0.527        0.155       85.900       16.941        0.039      337.951       10.273      860.217
05/08/2013  01:44:00      -81.063      -92.720       -5.328       43.914       48.461       30.169     1928.457     2348.426      910.183        1.019        0.259      123.159       29.909        0.059      337.899       10.185      860.226
05/08/2013  01:45:00     -104.820      -85.881       -0.870       46.662       40.127       28.860     2177.298     1610.151      832.882        1.149        0.231      135.509       27.378        0.041      337.901       10.188      860.231
05/08/2013  01:46:00      -65.881      -62.414       -1.705       50.240       34.290       25.113     2524.010     1175.808      630.645        0.628        0.217       90.751       23.611        0.068      337.897       10.181      860.228
05/08/2013  01:47:00      -55.523      -64.450        4.994       43.960       33.794       24.121     1932.509     1142.058      581.841        0.546        0.183       85.068       18.977        0.050      337.846       10.095      860.233
05/08/2013  01:48:00      -65.173      -60.590        3.038       34.595       32.141       18.906     1196.791     1033.074      357.435        0.526        0.129       88.987       15.067        0.029      337.835       10.078      860.233
05/08/2013  01:49:00      -41.537      -39.274        1.515       54.032       26.599       22.944     2919.437      707.529      526.433        0.371        0.208       57.164       12.708        0.049      337.872       10.139      860.230
05/08/2013  01:50:00      -20.563      -31.550       21.956       48.289       27.745       24.257     2331.844      769.775      588.412        0.279        0.185       37.659       26.491        0.495      337.926       10.230      860.237
05/08/2013  01:51:00      -41.222      -37.643       14.135       47.987       42.762       23.607     2302.787     1828.598      557.268        0.400        0.234       55.824       20.900        0.140      337.871       10.138      860.245
05/08/2013  01:52:00      -13.598      -30.059       19.686       36.697       26.165       23.596     1346.671      684.623      556.793        0.203        0.129       32.992       19.401        0.346      337.981       10.323      860.242
05/08/2013  01:53:00       -2.867       -6.271       13.891       26.775       18.360       13.821      716.916      337.093      191.026        0.074        0.062        6.895        9.122        1.750      337.980       10.322      860.249
05/08/2013  01:54:00      -14.179      -27.540        6.717       45.207       34.345       25.130     2043.715     1179.596      631.534        0.243        0.193       30.976       19.918        0.413      338.007       10.367      860.254
05/08/2013  01:55:00       17.064       -5.088       15.518       29.700       27.773       20.796      882.095      771.335      432.492        0.132        0.104       17.807       17.908        1.011      337.983       10.327      860.267
05/08/2013  01:56:00      -18.267       -8.549        0.614       24.091       26.215       16.219      580.357      687.237      263.064        0.097        0.077       20.169       13.622        0.456      337.980       10.320      860.274
05/08/2013  01:57:00      -26.251      -11.426        8.425       30.622       28.459       21.282      937.692      809.932      452.922        0.155        0.110       28.629       18.848        0.433      337.975       10.312      860.282
05/08/2013  01:58:00      -24.519      -13.672       11.407       27.120       24.614       14.054      735.513      605.825      197.518        0.123        0.077       28.073       13.547        0.233      337.938       10.251      860.285
05/08/2013  01:59:00       -6.217       28.695        5.649       11.226       16.933       11.732      126.013      286.721      137.634        0.072        0.028       29.360        7.184        0.060      337.927       10.232      860.293
05/08/2013  02:00:00      -20.758       27.203        1.021       18.494       14.837       12.465      342.029      220.140      155.388        0.094        0.036       34.218        7.174        0.044      337.884       10.160      860.298
05/08/2013  02:01:00      -37.611       14.956        5.651       12.267       17.806       12.474      150.491      317.067      155.609        0.115        0.031       40.475        9.056        0.050      337.914       10.210      860.306
05/08/2013  02:02:00       -1.461        8.847        4.488        7.571       22.463       11.674       57.314      504.588      136.281        0.040        0.035        8.967        4.620        0.265      337.939       10.253      860.315
05/08/2013  02:03:00      -43.940        2.620       -3.045       19.766       25.296       20.720      390.714      639.908      429.307        0.170        0.073       44.018        9.799        0.050      337.905       10.194      860.318
05/08/2013  02:04:00      -28.924       -4.713        4.979       28.105       18.538       14.291      789.906      343.658      204.231        0.111        0.067       29.306       17.707        0.365      337.966       10.297      860.312
05/08/2013  02:05:00      -12.445       -7.098       16.025       38.078       19.800       15.864     1449.967      392.034      251.680        0.128        0.105       14.327       19.051        1.768      337.937       10.249      860.305
05/08/2013  02:06:00       -4.681       26.596       19.517       17.490       15.549       10.133      305.912      241.780      102.679        0.088        0.033       27.005        6.484        0.058      337.890       10.171      860.296
05/08/2013  02:07:00       -7.117      -11.722        3.954       27.522       18.818       18.087      757.439      354.123      327.150        0.082        0.072       13.714       13.668        0.993      337.959       10.288      860.291
05/08/2013  02:08:00      -23.850       -1.002        1.083       28.877       19.182       17.881      833.893      367.955      319.718        0.105        0.076       23.871       16.196        0.460      337.969       10.302      860.291
05/08/2013  02:09:00       -4.925        5.134       15.714       32.469       20.262       17.836     1054.260      410.551      318.127        0.104        0.089        7.114       17.333        5.936      337.942       10.259      860.286
05/08/2013  02:10:00      -15.150        7.823        7.330       22.409       18.277       16.115      502.170      334.056      259.678        0.072        0.055       17.051       15.271        0.802      337.948       10.270      860.272
05/08/2013  02:11:00      -15.416        9.142        2.355       12.584       16.076       12.357      158.356      258.424      152.701        0.045        0.028       17.923        4.889        0.074      337.905       10.194      860.270
05/08/2013  02:12:00       -2.489       24.593       23.866        9.126       15.292       17.189       83.289      233.853      295.466        0.090        0.031       24.719        7.438        0.091      337.952       10.276      860.270
05/08/2013  02:13:00        1.260       -0.253       26.545       18.621       25.014       22.880      346.759      625.705      523.503        0.110        0.075        1.285       19.304      225.620      338.019       10.387      860.278
05/08/2013  02:14:00       27.685       22.520       21.797       27.604       19.096       27.892      762.008      364.665      777.938        0.183        0.095       35.688       26.063        0.533      337.896       10.179      860.291
05/08/2013  02:15:00       34.552       36.252       26.262       28.320       19.327       25.585      802.001      373.541      654.596        0.251        0.092       50.080       21.532        0.185      337.871       10.138      860.289
05/08/2013  02:16:00       -3.589       42.413       69.456       16.078       36.727       18.245      258.515     1348.884      332.896        0.429        0.097       42.565       17.595        0.171      337.922       10.224      860.279
05/08/2013  02:17:00       -1.356       10.695       35.586       17.709       23.431       14.862      313.609      549.017      220.877        0.123        0.054       10.781       12.902        1.432      337.964       10.294      860.276
05/08/2013  02:18:00       -5.400       14.688       24.448       13.258       15.950       11.963      175.788      254.388      143.113        0.071        0.029       15.649        7.678        0.241      337.946       10.264      860.274
05/08/2013  02:19:00       -4.828       24.904       34.941       16.765       20.069       13.859      281.052      402.749      192.073        0.137        0.044       25.367       12.575        0.246      337.900       10.188      860.265
05/08/2013  02:20:00        2.949       -3.531       25.436       20.722       26.326       23.476      429.397      693.072      551.138        0.117        0.084        4.600       17.614       14.661      337.960       10.286      860.246
05/08/2013  02:21:00      -12.896      -73.027        4.362       25.190       32.326       18.246      634.540     1044.948      332.918        0.377        0.101       74.157       14.869        0.040      337.971       10.305      860.238
05/08/2013  02:22:00      -15.175      -40.514        0.716       48.242       30.015       21.350     2327.320      900.922      455.828        0.278        0.184       43.263       19.621        0.206      337.977       10.316      860.231
05/08/2013  02:23:00        2.307      -36.680       10.141       40.580       29.056       26.421     1646.718      844.245      698.080        0.232        0.159       36.752       17.963        0.239      338.021       10.391      860.233
05/08/2013  02:24:00      -81.406      -48.532        6.935       28.065       37.959       18.296      787.625     1440.873      334.755        0.580        0.128       94.775       15.372        0.026      337.898       10.182      860.244
05/08/2013  02:25:00     -112.208      -60.977       -5.105       31.211       30.384       19.371      974.129      923.168      375.221        0.930        0.114      127.706       11.490        0.008      337.887       10.165      860.253
05/08/2013  02:26:00     -114.373      -94.748       -8.707       35.002       34.622       23.877     1225.146     1198.651      570.114        1.256        0.150      148.521       12.494        0.007      337.855       10.109      860.254
05/08/2013  02:27:00      -55.951      -70.501        4.209       29.285       31.443       23.425      857.602      988.674      548.729        0.526        0.120       90.005       18.885        0.044      337.905       10.192      860.253
05/08/2013  02:28:00      -66.374      -72.060        3.953       58.388       44.894       21.712     3409.121     2015.504      471.416        0.775        0.295       97.970       27.814        0.081      337.953       10.276      860.238
05/08/2013  02:29:00     -102.987     -117.953       -3.158       62.461       58.901       30.558     3901.420     3469.311      933.807        1.642        0.415      156.586       30.716        0.038      337.896       10.179      860.223
05/08/2013  02:30:00     -100.045      -89.927        4.295       65.179       58.316       45.237     4248.320     3400.711     2046.414        1.390        0.485      134.521       40.633        0.091      337.874       10.141      860.213
05/08/2013  02:31:00     -111.740      -72.484       12.845       77.344       47.218       48.523     5982.128     2229.536     2354.485        1.423        0.528      133.191       40.432        0.092      337.871       10.137      860.202
05/08/2013  02:32:00      -95.205      -72.875        5.741       79.547       57.832       30.509     6327.800     3344.591      930.827        1.250        0.530      119.895       38.288        0.102      337.882       10.156      860.204
05/08/2013  02:33:00      -96.711      -76.056        8.024       71.416       48.106       32.354     5100.242     2314.215     1046.793        1.183        0.423      123.034       21.216        0.030      337.874       10.143      860.205
05/08/2013  02:34:00      -87.516     -111.328       -8.027       51.608       39.701       29.803     2663.387     1576.152      888.228        1.262        0.256      141.609       23.300        0.027      337.857       10.114      860.204
05/08/2013  02:35:00     -101.405      -82.769       -5.399       65.584       44.137       32.056     4301.223     1948.091     1027.581        1.222        0.364      130.896       37.558        0.082      337.869       10.134      860.197
05/08/2013  02:36:00      -94.953      -69.555      -12.613       43.142       45.988       24.384     1861.242     2114.910      594.581        0.929        0.229      117.703       18.310        0.024      337.864       10.127      860.199
05/08/2013  02:37:00      -66.713      -69.382       10.837       54.126       39.763       29.435     2929.596     1581.105      866.438        0.738        0.269       96.252       26.053        0.073      337.862       10.123      860.200
05/08/2013  02:38:00      -82.930      -50.329       11.342       50.304       45.466       34.809     2530.455     2067.196     1211.637        0.767        0.290       97.007       22.157        0.052      337.857       10.113      860.194
05/08/2013  02:39:00      -77.676      -88.594       -7.153       43.755       25.788       24.272     1914.464      665.000      589.138        0.855        0.158      117.824       21.932        0.035      337.860       10.119      860.185
05/08/2013  02:40:00      -82.938      -48.676       -3.093       32.734       44.585       20.346     1071.532     1987.826      413.953        0.636        0.174       96.167       18.548        0.037      337.862       10.124      860.184
05/08/2013  02:41:00      -75.511      -74.675        8.207       61.018       39.652       27.359     3723.177     1572.302      748.503        0.869        0.302      106.199       23.588        0.049      337.884       10.160      860.176
05/08/2013  02:42:00      -86.168      -92.752       -4.187       29.469       59.691       20.606      868.417     3563.071      424.600        1.045        0.243      126.601       15.690        0.015      337.876       10.146      860.180
05/08/2013  02:43:00      -84.287      -77.624        1.512       39.003       40.680       29.444     1521.248     1654.833      866.971        0.859        0.202      114.586       23.870        0.043      337.876       10.147      860.179
05/08/2013  02:44:00     -104.715      -75.140       -3.448       40.606       30.764       23.377     1648.827      946.408      546.507        0.988        0.157      128.885       22.546        0.031      337.850       10.102      860.181
05/08/2013  02:45:00      -84.116      -84.330       -2.810       39.134       27.256       22.537     1531.436      742.895      507.896        0.849        0.139      119.110       16.126        0.018      337.898       10.183      860.180
05/08/2013  02:46:00      -80.233      -92.688       -2.709       28.003       36.911       16.312      784.195     1362.418      266.096        0.872        0.121      122.590       15.675        0.016      337.911       10.206      860.179
05/08/2013  02:47:00      -84.230      -78.981       -3.261       31.339       47.358       25.953      982.149     2242.747      673.549        0.862        0.195      115.467       16.380        0.020      337.919       10.220      860.177
05/08/2013  02:48:00     -100.742      -77.174        0.648       48.561       42.434       26.124     2358.186     1800.620      682.460        1.047        0.242      126.904       17.314        0.019      337.910       10.202      860.177
05/08/2013  02:49:00      -95.624      -75.187       -6.605       38.261       40.361       22.021     1463.909     1629.042      484.913        0.921        0.179      121.643       15.943        0.017      337.906       10.195      860.182
05/08/2013  02:50:00      -93.170      -88.287       -6.773       46.927       33.264       26.342     2202.106     1106.485      693.922        1.026        0.200      128.356       21.653        0.028      337.916       10.214      860.187
05/08/2013  02:51:00     -102.655     -105.743       -4.619       46.536       36.925       22.241     2165.622     1363.439      494.645        1.288        0.201      147.375       23.358        0.025      337.898       10.183      860.190
05/08/2013  02:52:00      -88.336      -69.737       -5.259       34.838       28.156       23.996     1213.668      792.766      575.813        0.764        0.129      112.545       13.795        0.015      337.917       10.215      860.203
05/08/2013  02:53:00      -43.594      -62.047       14.163       49.984       26.153       25.080     2498.364      683.980      629.014        0.488        0.191       75.831       28.195        0.138      337.956       10.282      860.206
05/08/2013  02:54:00      -49.761      -61.515       -0.665       30.316       30.791       22.622      919.032      948.077      511.747        0.432        0.119       79.122       21.595        0.074      337.977       10.319      860.201
05/08/2013  02:55:00      -90.628      -87.826      -17.769       30.165       31.258       20.008      909.915      977.040      400.301        0.926        0.114      126.202        7.142        0.003      338.021       10.391      860.203
05/08/2013  02:56:00      -64.648      -37.712        1.464       28.653       18.278       21.022      820.977      334.073      441.917        0.360        0.080       74.844       18.721        0.063      337.977       10.316      860.200
05/08/2013  02:57:00      -21.597      -24.254        2.876       30.713       16.377       11.687      943.260      268.210      136.583        0.121        0.067       32.476       10.306        0.101      337.987       10.333      860.208
05/08/2013  02:58:00      -20.734      -24.308        3.914       21.456       29.405       16.696      460.363      864.680      278.770        0.132        0.080       31.949       13.815        0.187      337.999       10.353      860.210
05/08/2013  02:59:00      -50.690      -27.238       -2.490       26.036       19.821       14.287      677.892      392.876      204.105        0.230        0.064       57.544       15.185        0.070      337.964       10.296      860.230
05/08/2013  03:00:00      -34.603      -17.746        3.301       32.047       20.967       12.596     1026.987      439.619      158.659        0.157        0.081       38.888       16.029        0.170      338.001       10.357      860.243
05/08/2013  03:01:00      -10.703      -14.217        8.922       18.422       23.136       13.761      339.379      535.295      189.376        0.073        0.053       17.795       10.859        0.372      337.987       10.334      860.239
05/08/2013  03:02:00       -6.808       12.198       21.093       10.110       12.143       11.784      102.203      147.461      138.853        0.051        0.019       13.970        7.596        0.296      338.029       10.402      860.230
05/08/2013  03:03:00       -9.516       16.668       45.352       13.587       24.335       17.716      184.617      592.171      313.849        0.176        0.055       19.193       17.535        0.835      338.055       10.446      860.226
05/08/2013  03:04:00      -11.449        7.772       25.588       13.424       16.477       14.742      180.191      271.487      217.317        0.076        0.033       13.838       14.295        1.067      338.031       10.407      860.234
05/08/2013  03:05:00       11.098       21.048       24.835       25.285       16.724       11.875      639.333      279.703      141.009        0.112        0.053       23.795       12.061        0.257      338.036       10.416      860.236
05/08/2013  03:06:00       26.338       26.608       21.149       15.711       11.629       13.917      246.839      135.230      193.692        0.121        0.029       37.439        6.021        0.026      338.027       10.401      860.235
05/08/2013  03:07:00       30.509       35.559       39.709       31.260       26.920       19.635      977.194      724.705      385.540        0.293        0.104       46.854       12.109        0.067      338.047       10.435      860.243
05/08/2013  03:08:00       54.413       69.078       57.458       42.033       29.737       24.309     1766.760      884.316      590.906        0.714        0.162       87.935       22.126        0.063      338.015       10.379      860.250
05/08/2013  03:09:00       58.309       68.479       47.832       39.295       25.095       24.001     1544.076      629.752      576.025        0.656        0.137       89.941       14.135        0.025      337.946       10.264      860.256
05/08/2013  03:10:00       45.218       75.097       57.784       39.919       24.269       16.528     1593.493      589.001      273.165        0.674        0.123       87.659       14.499        0.027      337.916       10.214      860.248
05/08/2013  03:11:00       45.482       62.591       54.086       39.292       28.592       22.632     1543.880      817.493      512.229        0.589        0.144       77.370       18.118        0.055      337.926       10.229      860.248
05/08/2013  03:12:00       73.264       76.582       45.810       50.496       23.181       28.560     2549.895      537.347      815.697        0.862        0.195      105.983       29.849        0.079      337.821       10.054      860.256
05/08/2013  03:13:00       94.113       77.096       35.245       26.149       18.243       25.573      683.795      332.813      653.956        0.886        0.084      121.660       14.307        0.014      337.817       10.048      860.277
05/08/2013  03:14:00       78.972       49.428       14.424       34.436       22.458       23.421     1185.850      504.378      548.564        0.556        0.112       93.165       20.846        0.050      337.784        9.992      860.300
05/08/2013  03:15:00       58.651       60.613        9.195       21.018       11.533       16.691      441.746      133.021      278.590        0.403        0.043       84.344       11.850        0.020      337.774        9.973      860.322
05/08/2013  03:16:00       62.962       38.998        4.669       11.399       11.640       15.740      129.927      135.501      247.735        0.301        0.026       74.061        7.318        0.010      337.782        9.989      860.329
05/08/2013  03:17:00       36.705       20.531        6.686       17.200       16.185       15.305      295.857      261.942      234.248        0.130        0.040       42.057        4.311        0.011      337.816       10.045      860.329
05/08/2013  03:18:00       22.660       12.950       16.085       27.698       17.301       19.113      767.162      299.341      365.300        0.119        0.072       26.100       12.119        0.216      337.866       10.130      860.330
05/08/2013  03:19:00       69.578       10.165       29.040       40.327       24.574       26.704     1626.228      603.869      713.107        0.436        0.147       70.317       28.186        0.161      337.864       10.125      860.325
05/08/2013  03:20:00       51.104       28.126       38.338       32.833       31.902       19.061     1078.002     1017.706      363.322        0.367        0.123       58.332       18.436        0.100      337.860       10.119      860.323
05/08/2013  03:21:00       19.583      -34.945       21.508       28.190       31.435       22.117      794.663      988.164      489.148        0.217        0.114       40.058       20.164        0.253      337.957       10.283      860.333
05/08/2013  03:22:00       40.133      -49.710       -0.647       18.772       35.596       22.272      352.375     1267.097      496.023        0.310        0.106       63.889       20.050        0.098      337.993       10.343      860.344
05/08/2013  03:23:00       12.430      -36.196       15.144       22.435       33.267       18.441      503.346     1106.720      340.070        0.182        0.098       38.271       20.899        0.298      338.058       10.452      860.355
05/08/2013  03:24:00       36.083       23.875       28.996       21.722       20.439       16.394      471.850      417.764      268.752        0.194        0.058       43.267       12.018        0.077      338.021       10.389      860.359
05/08/2013  03:25:00       65.649       40.783       20.389       21.956       20.480       19.878      482.086      419.412      395.148        0.384        0.065       77.285       16.366        0.045      337.970       10.304      860.356
05/08/2013  03:26:00       48.687       35.268       33.164       24.615       24.507       22.996      605.901      600.596      528.798        0.322        0.087       60.119       13.017        0.047      337.924       10.226      860.354
05/08/2013  03:27:00       30.124       27.193       26.451       19.850       22.589       14.945      394.025      510.279      223.362        0.174        0.056       40.582       10.501        0.067      337.915       10.211      860.358
05/08/2013  03:28:00       11.247       18.441       26.453       16.915       18.587       12.408      286.112      345.466      153.962        0.098        0.039       21.600        5.771        0.071      337.936       10.247      860.362
05/08/2013  03:29:00       42.015       31.247       28.946       19.113       19.146       16.528      365.324      366.577      273.187        0.229        0.050       52.361       13.642        0.068      337.907       10.198      860.361
05/08/2013  03:30:00        5.812        7.015        7.493       17.414       15.062       13.660      303.236      226.867      186.585        0.043        0.036        9.110        8.251        0.820      337.899       10.184      860.362
05/08/2013  03:31:00       13.418       17.890       11.237       17.170       10.890       10.478      294.803      118.586      109.794        0.057        0.026       22.363       10.778        0.232      337.886       10.164      860.366
05/08/2013  03:32:00       -1.757       20.096       -2.854       15.188       15.201        7.008      230.669      231.071       49.106        0.046        0.026       20.173        7.400        0.135      337.838       10.079      860.376
05/08/2013  03:33:00      -15.187        3.365       -0.783        6.283        7.703        6.631       39.477       59.339       43.965        0.019        0.007       15.555        3.990        0.066      337.857       10.113      860.388
05/08/2013  03:34:00       -1.863       15.077        5.753       18.844       13.981        9.033      355.109      195.458       81.596        0.045        0.032       15.192        7.019        0.213      337.925       10.230      860.393
05/08/2013  03:35:00       33.633       24.571        7.447       12.403       12.454        9.796      153.827      155.109       95.966        0.110        0.020       41.652        6.854        0.027      337.914       10.211      860.394
05/08/2013  03:36:00       30.039       36.960        2.636       18.073       14.841       14.402      326.633      220.246      207.416        0.151        0.038       47.628        9.991        0.044      337.869       10.133      860.402
05/08/2013  03:37:00       44.142       32.355        2.527       15.268       13.240       11.091      233.116      175.291      123.009        0.177        0.027       54.730        9.550        0.030      337.882       10.158      860.398
05/08/2013  03:38:00       27.976       27.919       -7.029       14.334       14.849       11.616      205.472      220.508      134.933        0.109        0.028       39.524        7.881        0.040      337.861       10.121      860.394
05/08/2013  03:39:00       16.326       32.202       -1.521       12.378       12.005        9.882      153.208      144.132       97.655        0.085        0.020       36.105        7.878        0.048      337.870       10.135      860.401
05/08/2013  03:40:00       26.774       22.416        1.701       11.045        9.707        9.820      121.996       94.230       96.441        0.077        0.016       34.919        6.123        0.031      337.872       10.141      860.398
05/08/2013  03:41:00       19.734       29.769        3.775       19.630       10.117       10.534      385.326      102.346      110.960        0.094        0.030       35.716        9.655        0.073      337.902       10.188      860.401
05/08/2013  03:42:00        0.055       39.779       -0.309       12.401       18.898        8.256      153.789      357.137       68.166        0.108        0.029       39.779        9.881        0.062      337.927       10.233      860.411
05/08/2013  03:43:00        4.130       63.532       -2.807       10.785       12.721       11.772      116.311      161.814      138.572        0.224        0.021       63.667        6.677        0.011      337.917       10.214      860.428
05/08/2013  03:44:00       16.117       44.825       -1.233       18.630       18.521       11.775      347.083      343.019      138.656        0.155        0.041       47.634       10.584        0.049      337.919       10.218      860.432
05/08/2013  03:45:00       30.184       46.624       -4.043       17.688       12.837       11.912      312.865      164.787      141.906        0.186        0.031       55.542        7.073        0.016      337.933       10.243      860.442
05/08/2013  03:46:00        9.800       30.314       -1.290       11.000       14.197       15.484      121.002      201.542      239.745        0.079        0.028       31.859        9.578        0.090      337.944       10.263      860.452
05/08/2013  03:47:00       -0.900       10.981        6.550        7.269        8.613        7.605       52.837       74.178       57.840        0.017        0.009       11.017        5.820        0.279      337.991       10.341      860.453
05/08/2013  03:48:00      -33.840       -0.737       -2.073       23.312       12.401        5.772      543.436      153.788       33.317        0.094        0.037       33.848        2.765        0.007      337.935       10.249      860.451
05/08/2013  03:49:00      -61.430      -12.842       -1.895       10.071       10.268        8.886      101.420      105.438       78.956        0.211        0.014       62.758        5.936        0.009      337.881       10.153      860.444
05/08/2013  03:50:00      -55.872       -6.803       -5.729       22.130       11.645        9.281      489.740      135.617       86.145        0.196        0.036       56.284        8.584        0.023      337.912       10.207      860.431
05/08/2013  03:51:00      -77.497      -18.675       -4.099       21.675       13.930       11.471      469.794      194.034      131.583        0.358        0.040       79.716       10.386        0.017      337.937       10.250      860.419
05/08/2013  03:52:00     -140.636       -6.521       -9.177       41.640       27.287       16.596     1733.896      744.604      275.431        1.133        0.138      140.787       18.216        0.017      337.871       10.137      860.402
05/08/2013  03:53:00      -92.355        1.772      -15.620       34.580       21.373       20.299     1195.808      456.808      412.057        0.542        0.103       92.372       17.819        0.037      337.862       10.123      860.397
05/08/2013  03:54:00      -97.614      -23.325      -14.041       20.116       20.070       12.208      404.659      402.792      149.038        0.561        0.048      100.363        4.931        0.002      337.902       10.189      860.389
05/08/2013  03:55:00      -86.854      -44.170       -8.319       16.063       14.031        9.462      258.024      196.858       89.524        0.505        0.027       97.440        7.017        0.005      337.945       10.262      860.398
05/08/2013  03:56:00      -71.052      -27.672       -3.651       21.264       11.771        9.235      452.141      138.549       85.285        0.325        0.034       76.250        4.424        0.003      337.960       10.289      860.405
05/08/2013  03:57:00      -78.726       -4.549       -9.271       13.593        9.147        8.737      184.772       83.669       76.335        0.332        0.017       78.858        6.576        0.007      337.941       10.257      860.427
05/08/2013  03:58:00      -38.672       13.411      -10.480       17.208       15.529        7.540      296.118      241.145       56.849        0.119        0.030       40.931       10.212        0.062      337.918       10.217      860.445
05/08/2013  03:59:00      -36.616       23.172       -1.480       23.126       18.679       13.474      534.802      348.919      181.557        0.147        0.053       43.332       14.058        0.105      337.949       10.268      860.456
05/08/2013  04:00:00      -85.297       20.592       -8.273       16.221       10.365       11.032      263.134      107.429      121.711        0.413        0.025       87.748        9.454        0.012      337.889       10.168      860.462
05/08/2013  04:01:00      -38.268       15.964       -7.506       16.416       17.438       11.394      269.491      304.093      129.815        0.124        0.035       41.464        9.614        0.054      337.892       10.175      860.470
05/08/2013  04:02:00       -6.380       18.493      -12.853        7.619       11.630        6.537       58.048      135.262       42.734        0.039        0.012       19.563        5.719        0.085      337.880       10.156      860.467
05/08/2013  04:03:00      -15.014        7.172       -1.448       16.713       13.145        6.467      279.308      172.793       41.824        0.039        0.025       16.639        6.728        0.163      337.883       10.156      860.480
05/08/2013  04:04:00      -69.314       26.945       -8.402       20.044       17.610       12.896      401.774      310.104      166.297        0.324        0.044       74.367       10.972        0.022      337.918       10.218      860.507
05/08/2013  04:05:00      -72.611       36.366      -18.607       18.648       20.428       13.575      347.764      417.302      184.288        0.395        0.047       81.209        7.455        0.008      337.871       10.138      860.523
05/08/2013  04:06:00      -40.992       21.487      -10.995       10.657       15.035        7.858      113.564      226.056       61.753        0.133        0.020       46.282        8.501        0.034      337.880       10.154      860.523
05/08/2013  04:07:00       19.404       21.556        2.617       26.132       19.819       16.659      682.873      392.784      277.519        0.110        0.068       29.003       13.359        0.212      337.986       10.332      860.524
05/08/2013  04:08:00       35.094       36.984        0.147       17.644       13.045       12.781      311.306      170.180      163.355        0.162        0.032       50.984        9.264        0.033      337.905       10.196      860.527
05/08/2013  04:09:00       31.707       27.748       -2.051       20.853       18.377       11.735      434.854      337.706      137.712        0.134        0.046       42.134       11.233        0.071      337.926       10.230      860.519
05/08/2013  04:10:00       24.222       28.514        3.835       18.733       16.847       17.811      350.914      283.806      317.216        0.118        0.048       37.414        7.873        0.044      337.927       10.234      860.535
05/08/2013  04:11:00       36.688       35.575       -5.226       17.201       20.224       16.523      295.890      409.023      273.020        0.181        0.049       51.104       11.663        0.052      337.922       10.223      860.540
05/08/2013  04:12:00       45.326       32.624        5.534       21.610       14.889       13.333      466.987      221.687      177.775        0.201        0.043       55.846        6.959        0.016      337.906       10.197      860.550
05/08/2013  04:13:00       50.586       39.916        6.378       16.758       21.767       17.756      280.845      473.798      315.290        0.263        0.053       64.438       14.440        0.050      337.911       10.208      860.556
05/08/2013  04:14:00       81.262       57.972        0.216       26.259       17.927       13.678      689.549      321.388      187.080        0.558        0.060       99.821        5.344        0.003      337.881       10.154      860.564
05/08/2013  04:15:00       83.276       60.213       -1.607       23.762       20.069       14.167      564.625      402.779      200.703        0.587        0.058      102.765       10.070        0.010      337.870       10.137      860.559
05/08/2013  04:16:00       76.587       58.944       10.536       21.573       21.150       19.811      465.391      447.318      392.467        0.538        0.065       96.643       11.535        0.014      337.942       10.258      860.557
05/08/2013  04:17:00       74.725       54.420       37.639       22.408       20.658       21.956      502.106      426.756      482.057        0.569        0.071       92.441        9.874        0.011      337.977       10.317      860.559
05/08/2013  04:18:00       71.295       65.928       49.661       31.413       24.065       25.891      986.786      579.107      670.340        0.707        0.112       97.105       19.933        0.042      337.957       10.282      860.546
05/08/2013  04:19:00      103.888       72.468       33.551       18.405       18.838       24.214      338.755      354.856      586.296        0.922        0.064      126.667        7.378        0.003      337.974       10.311      860.549
05/08/2013  04:20:00       43.699       42.700       21.232       37.007       22.678       29.264     1369.512      514.313      856.405        0.346        0.137       61.098       22.704        0.138      338.067       10.468      860.546
05/08/2013  04:21:00       59.990       48.763       14.069       17.495       23.172       26.818      306.059      536.928      719.224        0.387        0.078       77.309       11.089        0.021      337.910       10.203      860.550
05/08/2013  04:22:00       30.939       30.744       -6.465       33.138       15.953       18.743     1098.119      254.488      351.303        0.182        0.085       43.616       16.079        0.136      337.875       10.145      860.576
05/08/2013  04:23:00       50.547       37.372        4.742       24.981       15.146       18.144      624.027      229.388      329.187        0.258        0.059       62.862       11.218        0.032      337.882       10.158      860.588
05/08/2013  04:24:00       62.655       43.169        3.972       21.032       15.555       11.427      442.359      241.953      130.587        0.331        0.041       76.087       10.018        0.017      337.872       10.142      860.607
05/08/2013  04:25:00       63.548       27.831        8.935       18.425       13.945       15.037      339.489      194.461      226.111        0.283        0.038       69.375       11.554        0.028      337.897       10.182      860.608
05/08/2013  04:26:00       91.817       44.863       24.525       36.071       24.800       29.298     1301.088      615.059      858.354        0.691        0.139      102.191       19.657        0.037      337.937       10.249      860.607
05/08/2013  04:27:00       70.539       43.684       42.585       48.709       38.172       36.099     2372.572     1457.106     1303.146        0.691        0.257       82.970       30.269        0.133      337.954       10.278      860.606
05/08/2013  04:28:00      121.129       59.984       29.489       34.800       22.128       27.114     1211.052      489.627      735.148        1.079        0.122      135.167       17.664        0.017      337.873       10.140      860.608
05/08/2013  04:29:00      118.637       47.749        6.306       38.130       30.749       19.103     1453.865      945.529      364.927        0.958        0.138      127.885       15.941        0.016      337.868       10.133      860.607
05/08/2013  04:30:00       75.625       50.492       -5.720       44.196       27.803       17.005     1953.327      773.017      289.169        0.566        0.151       90.932       11.736        0.017      337.868       10.131      860.602
05/08/2013  04:31:00       20.783       25.172        6.944       27.600       18.188       22.336      761.737      330.815      498.875        0.135        0.080       32.643       17.928        0.302      337.898       10.184      860.614
05/08/2013  04:32:00       25.334       42.250       -1.181       20.461       21.864       23.514      418.667      478.036      552.923        0.194        0.072       49.263       19.284        0.153      337.860       10.117      860.620
05/08/2013  04:33:00       30.592       39.579       -1.192       14.895       17.694       16.747      221.865      313.061      280.473        0.166        0.041       50.023       13.784        0.076      337.845       10.091      860.622
05/08/2013  04:34:00       39.957       47.662       -1.708       13.443       19.142       15.128      180.723      366.428      228.866        0.232        0.039       62.195       11.888        0.037      337.855       10.110      860.625
05/08/2013  04:35:00       49.241       23.718       -2.327       31.461       16.783       16.802      989.820      281.679      282.308        0.227        0.078       54.656        5.206        0.009      337.880       10.153      860.627
05/08/2013  04:36:00       19.571       49.630        4.748       20.759       26.915       13.019      430.951      724.420      169.502        0.210        0.066       53.350       12.472        0.055      337.872       10.141      860.628
05/08/2013  04:37:00       59.616       42.843        4.605       24.595       17.643       15.609      604.927      311.290      243.638        0.329        0.058       73.414       10.745        0.021      337.857       10.116      860.627
05/08/2013  04:38:00        4.822       24.236        4.232       17.698       22.306       13.585      313.215      497.574      184.558        0.081        0.050       24.711       10.032        0.165      337.892       10.174      860.638
05/08/2013  04:39:00       32.842       49.888       -2.991       18.428       21.300       19.072      339.604      453.692      363.726        0.237        0.058       59.727       16.939        0.080      337.896       10.181      860.633
05/08/2013  04:40:00       88.621       55.690        1.460       17.471       18.854       17.293      305.238      355.473      299.055        0.596        0.048      104.666       12.063        0.013      337.891       10.169      860.626
05/08/2013  04:41:00      102.631       62.729       -5.366       19.407       23.822       15.222      376.619      567.507      231.701        0.784        0.059      120.283        4.984        0.002      337.897       10.180      860.625
05/08/2013  04:42:00       82.587       28.286       14.664       49.226       26.907       26.377     2423.213      723.966      695.748        0.584        0.192       87.297       17.426        0.040      337.946       10.264      860.631
05/08/2013  04:43:00       25.624        6.275        2.089       24.292       18.943       10.501      590.103      358.849      110.273        0.088        0.053       26.382        4.553        0.030      337.946       10.266      860.630
05/08/2013  04:44:00       26.818       23.243        0.911       24.591       17.275       17.649      604.708      298.427      311.485        0.124        0.061       35.488        9.623        0.074      337.937       10.251      860.631
05/08/2013  04:45:00       23.336       36.797        4.245       20.366       29.301       16.699      414.794      858.533      278.847        0.173        0.078       43.573       14.100        0.105      337.936       10.248      860.622
05/08/2013  04:46:00       36.594       22.202        5.933       17.242       17.657       14.016      297.285      311.760      196.458        0.134        0.040       42.802       12.367        0.083      337.944       10.265      860.615
05/08/2013  04:47:00       25.163       25.936       -4.840       18.608       15.284        9.054      346.248      233.590       81.984        0.100        0.033       36.137        6.548        0.033      337.923       10.228      860.614
05/08/2013  04:48:00       40.081       41.626       -1.536       14.480       10.990       11.880      209.666      120.776      141.144        0.191        0.024       57.786        6.179        0.011      337.893       10.172      860.613
05/08/2013  04:49:00       39.045       46.656        9.023       24.671       19.816       16.853      608.669      392.666      284.011        0.253        0.064       60.838       12.327        0.041      337.901       10.187      860.612
05/08/2013  04:50:00       31.592       32.265        0.919       15.304       14.354       15.707      234.214      206.045      246.719        0.136        0.034       45.156       11.269        0.062      337.916       10.212      860.604
05/08/2013  04:51:00       12.271       10.518        2.126       11.084        9.861        6.638      122.857       97.232       44.058        0.026        0.013       16.162        3.398        0.044      337.916       10.212      860.587
05/08/2013  04:52:00      -30.013        1.103        0.419       26.539       15.776        5.777      704.344      248.898       33.372        0.094        0.049       30.034        3.551        0.014      337.922       10.223      860.575
05/08/2013  04:53:00      -44.790      -12.690       -4.271       30.835       14.149       12.005      950.796      200.201      144.118        0.174        0.065       46.553        9.684        0.043      338.023       10.394      860.566
05/08/2013  04:54:00      -68.544      -19.423       -7.118       13.840       13.127       13.257      191.551      172.326      175.748        0.283        0.027       71.242        9.465        0.018      337.974       10.311      860.551
05/08/2013  04:55:00      -64.975        5.130       -9.139        8.366       15.165        7.342       69.983      229.964       53.902        0.234        0.018       65.177        6.366        0.010      337.942       10.259      860.548
05/08/2013  04:56:00      -16.243       11.164       14.209       21.595        9.500        7.192      466.331       90.247       51.720        0.060        0.030       19.709        6.686        0.115      338.013       10.376      860.553
05/08/2013  04:57:00       27.546       30.008        1.108       22.867       14.771        8.981      522.912      218.175       80.652        0.124        0.041       40.734        6.804        0.028      337.968       10.300      860.551
05/08/2013  04:58:00       94.202       64.305       14.071       13.191       10.346       13.596      173.999      107.048      184.844        0.684        0.023      114.058        8.922        0.006      337.920       10.220      860.549
05/08/2013  04:59:00       77.539       66.664       31.438       27.234       25.200       28.488      741.708      635.017      811.576        0.682        0.109      102.257       17.668        0.030      337.960       10.287      860.541
05/08/2013  05:00:00       75.731       50.832       33.645       35.095       24.087       23.694     1231.639      580.191      561.427        0.591        0.119       91.209       16.735        0.034      337.948       10.267      860.553
05/08/2013  05:01:00       53.519       34.218       16.715       25.723       19.813       19.274      661.687      392.565      371.472        0.287        0.071       63.523       17.376        0.075      337.919       10.219      860.578
05/08/2013  05:02:00       54.323       35.430        4.225       14.377       14.069       10.064      206.690      197.934      101.291        0.236        0.025       64.856        7.789        0.014      337.893       10.175      860.610
05/08/2013  05:03:00       62.432       45.301        9.911       15.110       12.848       13.233      228.308      165.059      175.105        0.331        0.028       77.136        6.134        0.006      337.886       10.164      860.632
05/08/2013  05:04:00       67.159       50.934        2.701       19.168       17.923       12.796      367.397      321.225      163.727        0.398        0.043       84.289        8.763        0.011      337.891       10.172      860.662
05/08/2013  05:05:00       35.932       50.077       -4.042       18.388       13.739       10.826      338.125      188.772      117.209        0.223        0.032       61.635        6.851        0.012      337.873       10.142      860.681
05/08/2013  05:06:00       25.622       57.357       -6.408       19.265       26.090       19.106      371.123      680.689      365.058        0.270        0.071       62.820       16.193        0.066      337.889       10.169      860.698
05/08/2013  05:07:00       20.014       46.674       -1.409       15.896       15.485       13.346      252.679      239.776      178.124        0.163        0.034       50.784       11.295        0.049      337.889       10.166      860.711
05/08/2013  05:08:00       10.528       66.745       -7.652        9.236       11.794       11.180       85.307      139.109      124.987        0.249        0.017       67.570        7.677        0.013      337.890       10.167      860.718
05/08/2013  05:09:00        8.939       32.843       -1.203       13.236       17.162       14.765      175.192      294.519      218.006        0.092        0.034       34.038       11.813        0.120      337.917       10.212      860.717
05/08/2013  05:10:00       16.656       33.778       -3.494       11.180       11.641       10.494      124.987      135.508      110.129        0.090        0.019       37.662        8.936        0.056      337.916       10.214      860.711
05/08/2013  05:11:00       31.792       34.023        4.787       11.646       11.031       10.327      135.626      121.689      106.653        0.128        0.018       46.565        6.711        0.021      337.918       10.218      860.710
05/08/2013  05:12:00       18.007       28.994       -0.774       20.184        6.713        6.750      407.397       45.058       45.569        0.083        0.025       34.130        7.013        0.042      337.914       10.211      860.709
05/08/2013  05:13:00      -10.595       49.481       -4.446       14.920       18.772       10.736      222.595      352.375      115.269        0.164        0.035       50.602        8.770        0.030      337.941       10.258      860.721
05/08/2013  05:14:00      -27.230       51.491        2.029       14.376       21.672       15.525      206.676      469.674      241.028        0.216        0.046       58.248       12.805        0.048      337.983       10.327      860.731
05/08/2013  05:15:00       -4.194       60.384       -2.796       19.724       19.211       13.276      389.026      369.058      176.245        0.230        0.047       60.529       13.852        0.052      337.970       10.307      860.747
05/08/2013  05:16:00        2.489       77.878       -8.314        8.016       11.607        6.110       64.253      134.728       37.334        0.319        0.012       77.918        4.975        0.004      337.929       10.239      860.767
05/08/2013  05:17:00        8.554       87.119       -7.318        9.094       11.865        8.168       82.696      140.772       66.715        0.400        0.015       87.538        4.325        0.002      337.950       10.273      860.771
05/08/2013  05:18:00       16.937       82.775      -15.510       10.311       15.470        6.930      106.306      239.328       48.025        0.389        0.020       84.490        7.320        0.008      337.953       10.277      860.776
05/08/2013  05:19:00       35.145       60.912       -6.834       16.308       23.490       15.368      265.949      551.803      236.181        0.302        0.053       70.324       11.680        0.028      337.963       10.293      860.783
05/08/2013  05:20:00       16.512       29.091        4.908       23.822       15.829       18.263      567.478      250.543      333.523        0.115        0.058       33.451        9.713        0.084      337.983       10.326      860.784
05/08/2013  05:21:00       34.073       41.723        3.743       34.894       21.800       20.424     1217.569      475.226      417.144        0.251        0.105       53.868       12.408        0.053      337.974       10.312      860.791
05/08/2013  05:22:00       60.871       45.091       -1.837       31.344       16.837       16.184      982.429      283.469      261.918        0.363        0.076       75.753        9.547        0.016      337.941       10.259      860.804
05/08/2013  05:23:00       60.502       43.746        2.836       21.984       26.356       16.415      483.315      694.619      269.462        0.351        0.072       74.661        7.031        0.009      337.930       10.237      860.810
05/08/2013  05:24:00       51.148       50.575        6.864       14.008       15.219       12.309      196.221      231.605      151.505        0.290        0.029       71.930        7.905        0.012      337.903       10.191      860.821
05/08/2013  05:25:00       60.861       46.442       10.811       14.495       12.205       16.020      210.099      148.955      256.639        0.330        0.031       76.557        9.710        0.016      337.918       10.218      860.834
05/08/2013  05:26:00       62.449       55.269       13.560       28.968       17.820       16.769      839.169      317.568      281.200        0.429        0.072       83.394        5.685        0.005      337.917       10.217      860.843
05/08/2013  05:27:00       68.222       58.871       13.372       17.572       15.512       12.301      308.791      240.608      151.325        0.450        0.035       90.112        7.520        0.007      337.918       10.218      860.848
05/08/2013  05:28:00       57.690       43.318        4.340       14.330       17.460       15.192      205.341      304.867      230.812        0.298        0.037       72.143        8.610        0.014      337.918       10.217      860.846
05/08/2013  05:29:00       44.785       33.568       12.795       19.347       20.091       18.967      374.320      403.659      359.755        0.222        0.057       55.969       15.067        0.072      337.930       10.239      860.847
05/08/2013  05:30:00       56.531       33.094        2.974       20.476       19.383       20.115      419.264      375.683      404.600        0.275        0.060       65.506       13.763        0.044      337.914       10.210      860.843
05/08/2013  05:31:00       66.404       51.725       25.348       23.360       18.505       20.769      545.679      342.451      431.333        0.452        0.066       84.173       15.505        0.034      337.931       10.241      860.840
05/08/2013  05:32:00       39.530       38.049       40.508       18.789       16.680       13.999      353.021      278.208      195.967        0.274        0.041       54.867        6.431        0.014      337.958       10.284      860.842
05/08/2013  05:33:00       53.457       34.343       20.555       23.317       24.690       16.784      543.667      609.584      281.703        0.295        0.072       63.538       10.837        0.029      337.950       10.274      860.844
05/08/2013  05:34:00       82.871       47.592       26.261       31.470       21.948       24.671      990.349      481.736      608.640        0.595        0.104       95.565       15.496        0.026      337.962       10.290      860.852
05/08/2013  05:35:00      102.085       40.087       11.021       28.397       29.559       27.202      806.393      873.744      739.951        0.728        0.121      109.674       12.316        0.013      337.924       10.227      860.868
05/08/2013  05:36:00       63.389       30.075        9.544       33.602       28.430       23.777     1129.068      808.290      565.347        0.376        0.125       70.161       21.291        0.092      337.949       10.272      860.882
05/08/2013  05:37:00       63.798       12.166        5.922       33.200       26.180       27.509     1102.239      685.418      756.740        0.340        0.127       64.948       12.161        0.035      337.961       10.289      860.893
05/08/2013  05:38:00       79.057       42.687        6.169       27.539       24.338       23.964      758.403      592.338      574.280        0.502        0.096       89.845       11.794        0.017      337.934       10.248      860.898
05/08/2013  05:39:00       22.896       48.406       32.899       28.686       20.652       22.579      822.879      426.507      509.832        0.285        0.088       53.548       19.447        0.132      338.014       10.378      860.897
05/08/2013  05:40:00       29.207       48.107       43.874       25.862       22.153       17.428      668.817      490.734      303.733        0.328        0.073       56.279        9.555        0.029      338.059       10.454      860.903
05/08/2013  05:41:00       36.584       41.898       38.176       25.175       17.350       16.818      633.775      301.020      282.849        0.288        0.061       55.622        9.085        0.027      338.048       10.435      860.916
05/08/2013  05:42:00       18.163       31.297       30.861       17.485       19.638       19.541      305.719      385.632      381.839        0.167        0.054       36.186       15.661        0.187      338.067       10.467      860.920
05/08/2013  05:43:00       26.390       31.060       27.737       11.527       10.805        9.310      132.877      116.752       86.678        0.138        0.017       40.757        5.387        0.017      337.981       10.323      860.933
05/08/2013  05:44:00       34.760       27.443       35.857       10.093        9.715        6.085      101.874       94.375       37.028        0.174        0.012       44.288        4.735        0.011      337.982       10.322      860.938
05/08/2013  05:45:00        7.583        3.585       40.757       17.138       19.699       11.709      293.701      388.037      137.098        0.128        0.041        8.388       10.003        1.422      338.165       10.632      860.946
05/08/2013  05:46:00        9.714       27.553       33.678       20.088       16.336        8.356      403.540      266.849       69.829        0.136        0.037       29.215        3.588        0.015      338.116       10.549      860.951
05/08/2013  05:47:00       48.422       40.843        8.196       18.898       18.082       21.585      357.141      326.953      465.925        0.261        0.058       63.347       15.882        0.063      338.035       10.415      860.957
05/08/2013  05:48:00       92.931       49.249       11.798       37.087       29.244       15.583     1375.456      855.215      242.831        0.684        0.124      105.174        6.318        0.004      338.023       10.394      860.967
05/08/2013  05:49:00      127.233       64.017       12.687       33.125       30.537       29.468     1097.249      932.533      868.365        1.167        0.145      142.430       19.536        0.019      338.017       10.383      860.980
05/08/2013  05:50:00      117.575       49.802       -7.840       35.869       31.861       24.207     1286.612     1015.132      585.998        0.963        0.144      127.687       19.466        0.023      337.987       10.332      861.001
05/08/2013  05:51:00      103.101       71.933        4.035       35.000       28.391       27.277     1225.011      806.074      744.038        0.930        0.139      125.715       23.275        0.034      337.939       10.254      861.027
05/08/2013  05:52:00       79.863       70.537       13.927       28.907       27.510       26.273      835.601      756.786      690.285        0.691        0.114      106.553       14.782        0.019      337.924       10.228      861.054
05/08/2013  05:53:00       84.345       73.840       12.173       39.151       29.922       25.964     1532.783      895.311      674.142        0.791        0.155      112.100       13.830        0.015      337.941       10.256      861.067
05/08/2013  05:54:00       78.469       60.332       10.824       22.765       23.436       25.431      518.262      549.262      646.734        0.581        0.086       98.981       16.881        0.029      337.937       10.254      861.082
05/08/2013  05:55:00       96.746       66.852       18.210       31.437       22.825       18.906      988.302      520.989      357.423        0.801        0.093      117.596        8.983        0.006      337.934       10.249      861.089
05/08/2013  05:56:00       72.228       44.943        6.456       23.673       16.623       20.576      560.389      276.326      423.362        0.427        0.063       85.069       12.130        0.020      337.945       10.266      861.082
05/08/2013  05:57:00       70.816       52.594       20.228       17.022       19.055       16.979      289.746      363.082      288.296        0.457        0.047       88.211        6.703        0.006      337.935       10.250      861.075
05/08/2013  05:58:00       60.029       45.889       21.543       18.324       13.730       17.222      335.775      188.525      296.614        0.350        0.041       75.560       10.176        0.018      337.960       10.291      861.063
05/08/2013  05:59:00       14.882       12.768       33.115       19.914       21.356        9.984      396.578      456.073       99.673        0.122        0.048       19.609        7.660        0.153      338.060       10.455      861.052
05/08/2013  06:00:00       20.528       33.171       33.311       24.122       33.690       16.353      581.872     1135.050      267.427        0.231        0.099       39.009       11.091        0.081      338.066       10.464      861.043
05/08/2013  06:01:00        7.119       21.241       27.446       15.791       21.170       14.333      249.366      448.150      205.432        0.108        0.045       22.403        8.886        0.157      338.049       10.438      861.042
05/08/2013  06:02:00       11.371      -33.978        0.642       24.013       28.164       27.097      576.615      793.234      734.234        0.169        0.105       35.830       13.999        0.153      338.162       10.626      861.056
05/08/2013  06:03:00       34.224      -14.013       12.252       44.891       19.831       18.520     2015.226      393.250      342.997        0.213        0.138       36.981       14.748        0.159      338.130       10.573      861.065
05/08/2013  06:04:00       22.591       24.352       37.232       29.361       31.561       23.471      862.076      996.084      550.875        0.245        0.120       33.217       25.488        0.589      338.097       10.518      861.081
05/08/2013  06:05:00       22.753       -3.097       21.506       22.846       13.366       15.226      521.926      178.654      231.830        0.096        0.047       22.963        9.849        0.184      338.158       10.618      861.106
05/08/2013  06:06:00       18.435       18.529       26.542       16.767       18.808       14.599      281.125      353.734      213.140        0.112        0.042       26.138        9.621        0.135      338.139       10.587      861.114
05/08/2013  06:07:00       34.899       35.315       26.438       20.822       17.134       12.674      433.560      293.563      160.628        0.203        0.044       49.650        9.562        0.037      338.108       10.536      861.122
05/08/2013  06:08:00       79.169       35.483        1.300       24.678       15.477       17.369      608.985      239.539      301.691        0.434        0.058       86.757       12.841        0.022      338.082       10.493      861.138
05/08/2013  06:09:00       54.735       27.090        9.742       30.101       20.504       17.763      906.080      420.410      315.519        0.273        0.082       61.072        9.841        0.026      338.100       10.522      861.143
05/08/2013  06:10:00       38.983       26.702       25.814       27.469       19.948       19.593      754.561      397.933      383.904        0.222        0.077       47.251        6.538        0.019      338.137       10.583      861.135
05/08/2013  06:11:00       37.011       36.048       34.092       21.517       17.262       15.292      462.981      297.964      233.859        0.241        0.050       51.665        8.443        0.027      338.114       10.546      861.132
05/08/2013  06:12:00       41.745       43.711       31.813       15.053       10.776       12.374      226.592      116.121      153.117        0.258        0.025       60.443        9.722        0.026      338.070       10.471      861.127
05/08/2013  06:13:00       69.687       54.094        8.845       20.175       13.356       18.192      407.043      178.384      330.952        0.439        0.046       88.218       12.679        0.021      338.058       10.451      861.131
05/08/2013  06:14:00       55.511       46.254       31.919       28.070       19.795       20.397      787.949      391.860      416.034        0.392        0.080       72.256       12.593        0.030      338.094       10.513      861.139
05/08/2013  06:15:00       67.893       45.119       33.910       28.939       22.245       24.384      837.442      494.855      594.579        0.486        0.096       81.518       21.237        0.068      338.080       10.489      861.157
05/08/2013  06:16:00       64.182       41.045       29.581       21.976       18.427       19.223      482.958      339.572      369.510        0.394        0.060       76.184        8.980        0.014      338.070       10.470      861.183
05/08/2013  06:17:00       61.177       37.082       17.411       22.782       20.172       18.523      519.001      406.920      343.095        0.334        0.063       71.538       13.101        0.034      338.096       10.515      861.208
05/08/2013  06:18:00       52.845       47.013       18.295       21.247       13.323       13.049      451.428      177.515      170.274        0.307        0.040       70.731       11.672        0.027      338.063       10.458      861.233
05/08/2013  06:19:00       40.270       32.619       10.030       14.994       10.234       12.311      224.810      104.741      151.555        0.163        0.024       51.824        4.258        0.007      338.084       10.496      861.251
05/08/2013  06:20:00       43.916       44.458        9.887       18.698       19.070       12.665      349.631      363.657      160.410        0.244        0.044       62.492       11.534        0.034      338.059       10.453      861.267
05/08/2013  06:21:00       51.627       35.524       -0.010        9.881       14.106       10.685       97.631      198.992      114.159        0.217        0.021       62.668        6.154        0.010      338.046       10.432      861.274
05/08/2013  06:22:00       52.161       49.805       16.152       14.021       12.575       15.251      196.597      158.128      232.579        0.302        0.029       72.120        4.991        0.005      338.106       10.531      861.276
05/08/2013  06:23:00       59.738       52.380       17.396       11.698       13.122       15.288      136.839      172.196      233.730        0.358        0.027       79.450        6.407        0.007      338.074       10.479      861.292
05/08/2013  06:24:00       35.088       53.048       33.074       32.662       18.698       22.101     1066.815      349.631      488.468        0.352        0.095       63.602       18.909        0.088      338.128       10.570      861.304
05/08/2013  06:25:00       81.380       50.885       14.563       27.355       18.534       27.964      748.297      343.514      781.972        0.565        0.094       95.979       21.128        0.048      338.045       10.433      861.321
05/08/2013  06:26:00       97.436       52.563        3.386       25.834       18.759       17.780      667.420      351.914      316.123        0.680        0.067      110.710       13.156        0.014      338.001       10.356      861.336
05/08/2013  06:27:00       75.125       51.361       -3.613       25.031       14.749       14.461      626.549      217.544      209.122        0.467        0.053       91.004        8.007        0.008      338.005       10.363      861.357
05/08/2013  06:28:00       54.694       37.873        3.070       20.596       16.641       12.392      424.200      276.922      153.567        0.264        0.043       66.527       10.460        0.025      338.046       10.431      861.371
05/08/2013  06:29:00       42.022       15.743       -2.489       17.795       16.069       15.276      316.645      258.204      233.367        0.141        0.040       44.875        3.939        0.008      338.067       10.467      861.380
05/08/2013  06:30:00       45.307       47.938        3.602       20.646       15.753       15.823      426.242      248.144      250.361        0.264        0.046       65.961       12.982        0.039      338.028       10.402      861.386
05/08/2013  06:31:00       38.963       58.526       -0.224       20.006       17.817       15.039      400.256      317.449      226.180        0.294        0.047       70.309        8.487        0.015      338.039       10.421      861.391
05/08/2013  06:32:00       42.945       57.281        2.244       25.439       24.902       23.689      647.162      620.098      561.165        0.348        0.091       71.591       18.450        0.066      338.049       10.434      861.400
05/08/2013  06:33:00       44.295       54.748       -1.582       26.306       20.491       15.136      692.000      419.899      229.100        0.315        0.067       70.422       10.258        0.021      338.045       10.429      861.405
05/08/2013  06:34:00       38.147       53.872        2.044       26.022       26.069       18.067      677.127      679.615      326.432        0.302        0.084       66.010       15.358        0.054      338.057       10.449      861.417
05/08/2013  06:35:00       38.307       57.666        5.490       23.227       27.044       21.806      539.474      731.354      475.480        0.328        0.087       69.231       17.673        0.065      338.063       10.461      861.430
05/08/2013  06:36:00       45.736       63.199        8.686       28.634       29.094       23.888      819.906      846.449      570.637        0.420        0.112       78.012       16.471        0.045      338.058       10.453      861.459
05/08/2013  06:37:00       65.486       54.906        2.354       31.275       30.001       25.115      978.112      900.087      630.788        0.491        0.125       85.458       18.453        0.047      338.036       10.415      861.482
05/08/2013  06:38:00       73.400       53.480        6.853       23.392       26.526       23.975      547.173      703.621      574.808        0.506        0.091       90.817       20.506        0.051      338.034       10.413      861.509
05/08/2013  06:39:00       69.766       45.382        2.029       23.328       23.235       17.739      544.179      539.876      314.671        0.416        0.070       83.227       14.685        0.031      338.046       10.432      861.528
05/08/2013  06:40:00       70.710       47.669        3.621       24.867       30.212       26.410      618.344      912.779      697.503        0.476        0.111       85.278       20.950        0.060      338.054       10.443      861.546
05/08/2013  06:41:00      107.935       46.902       -0.138       29.263       25.801       22.234      856.323      665.693      494.340        0.793        0.101      117.685       13.066        0.012      338.064       10.460      861.567
05/08/2013  06:42:00       87.507       45.560        2.772       35.273       23.831       20.761     1244.193      567.898      431.022        0.599        0.112       98.657       12.797        0.017      338.086       10.500      861.587
05/08/2013  06:43:00       68.456       45.317       16.872       26.725       17.750       20.768      714.221      315.052      431.326        0.424        0.073       82.097       13.902        0.029      338.087       10.503      861.594
05/08/2013  06:44:00       91.952       49.754       15.191       24.174       14.064       26.141      584.382      197.785      683.333        0.631        0.073      104.549       19.468        0.035      338.094       10.512      861.607
05/08/2013  06:45:00       60.495       40.877        4.030       27.948       21.682       19.155      781.100      470.096      366.923        0.348        0.081       73.011       11.466        0.025      338.083       10.495      861.621
05/08/2013  06:46:00       63.974       44.571       22.635       22.116       17.318       17.827      489.102      299.913      317.816        0.385        0.055       77.969        7.510        0.009      338.061       10.456      861.633
05/08/2013  06:47:00       15.199       26.732       34.801       16.720       22.835       10.811      279.550      521.458      116.867        0.154        0.046       30.751        7.740        0.063      338.183       10.662      861.635
05/08/2013  06:48:00       44.130       39.275       26.796       41.646       20.215       26.808     1734.382      408.662      718.647        0.353        0.143       59.076       27.029        0.209      338.225       10.732      861.630
05/08/2013  06:49:00       71.013       64.897       25.753       31.323       18.331       20.743      981.115      336.011      430.254        0.583        0.087       96.201        6.712        0.005      338.143       10.594      861.641
05/08/2013  06:50:00       41.221       47.779       43.399       45.079       27.180       17.714     2032.094      738.754      313.781        0.447        0.154       63.103        7.856        0.015      338.230       10.741      861.648
05/08/2013  06:51:00       64.813       66.304       48.528       29.838       17.800       24.054      890.278      316.847      578.597        0.637        0.089       92.720       10.564        0.013      338.176       10.649      861.662
05/08/2013  06:52:00       56.641       62.067       40.889       24.890       21.644       24.575      619.518      468.475      603.907        0.521        0.085       84.027       13.403        0.025      338.285       10.832      861.676
05/08/2013  06:53:00       62.425       49.089       26.537       21.540       21.098       25.922      463.988      445.138      671.939        0.430        0.079       79.414       16.287        0.042      338.221       10.725      861.670
05/08/2013  06:54:00       44.467       49.462       21.401       19.763       14.900       13.996      390.577      222.001      195.887        0.285        0.040       66.512        9.163        0.019      338.152       10.606      861.676
05/08/2013  06:55:00       26.606       25.705       25.608       15.409       13.152        9.176      237.435      172.963       84.201        0.126        0.025       36.995        4.559        0.015      338.236       10.751      861.684
05/08/2013  06:56:00       51.547       24.916        8.044       14.589       21.039       12.312      212.850      442.659      151.583        0.207        0.040       57.253       10.214        0.032      338.197       10.684      861.686
05/08/2013  06:57:00       36.891       16.958        7.000       21.049       15.540       13.955      443.055      241.479      194.734        0.129        0.044       40.602        7.114        0.031      338.213       10.711      861.689
05/08/2013  06:58:00       34.937       18.318       14.979       20.515       16.869       14.587      420.850      284.554      212.774        0.135        0.046       39.448        8.714        0.049      338.223       10.727      861.707
05/08/2013  06:59:00       22.958       -2.762       11.330       16.869       22.530       17.873      284.548      507.586      319.430        0.089        0.056       23.124       13.162        0.324      338.320       10.891      861.721
05/08/2013  07:00:00       -8.032        6.864       29.746       13.116       36.958       24.743      172.027     1365.887      612.222        0.157        0.108       10.566       25.987        6.049      338.363       10.964      861.729
05/08/2013  07:01:00      -29.525        0.654       11.444       20.896       12.104       12.223      436.661      146.498      149.413        0.087        0.037       29.532        9.318        0.100      338.362       10.964      861.743
05/08/2013  07:02:00       -9.517       14.409       26.526       10.440       18.834       18.687      108.998      354.728      349.195        0.091        0.041       17.268       14.687        0.723      338.424       11.066      861.751
05/08/2013  07:03:00       -3.729       14.055       42.709       16.854       28.593       18.924      284.045      817.556      358.131        0.175        0.073       14.541       17.730        1.487      338.445       11.100      861.758
05/08/2013  07:04:00        3.103      -11.986       23.714       19.454       41.305       25.540      378.451     1706.073      652.309        0.173        0.137       12.381       15.019        1.471      338.473       11.147      861.747
05/08/2013  07:05:00      -44.252      -45.440       32.194       38.893       35.300       33.612     1512.691     1246.068     1129.775        0.447        0.194       63.428       11.289        0.032      338.391       11.012      861.740
05/08/2013  07:06:00        2.280      -75.608      -11.661       65.688       55.209       33.540     4314.899     3048.062     1124.926        0.717        0.424       75.642       40.510        0.287      338.343       10.930      861.741
05/08/2013  07:07:00      -29.810      -61.049       -7.087       31.075       47.223       23.173      965.664     2230.025      536.998        0.420        0.187       67.939       14.981        0.049      338.348       10.938      861.737
05/08/2013  07:08:00      -39.960      -24.367        2.348       21.762       26.666       12.522      473.593      711.060      156.800        0.177        0.067       46.803        8.308        0.032      338.366       10.968      861.739
05/08/2013  07:09:00      -25.197      -16.454        2.798       27.077       31.440       24.041      733.150      988.470      577.967        0.161        0.115       30.094       26.151        0.755      338.457       11.122      861.744
05/08/2013  07:10:00      -28.949       -0.855        4.169       23.472       21.735       15.866      550.950      472.430      251.727        0.107        0.064       28.961       12.691        0.192      338.372       10.980      861.752
05/08/2013  07:11:00      -24.367       11.188       35.117       15.105       24.749       14.252      228.151      612.498      203.122        0.150        0.052       26.813       11.604        0.187      338.455       11.118      861.755
05/08/2013  07:12:00      -10.280      -17.754        6.634       16.186       27.509       22.468      261.994      756.770      504.815        0.099        0.076       20.515       12.362        0.363      338.423       11.065      861.762
05/08/2013  07:13:00        2.197      -23.822       26.124       22.260       41.659       22.974      495.505     1735.505      527.820        0.201        0.138       23.923       10.848        0.206      338.474       11.150      861.774
05/08/2013  07:14:00        7.283       43.343       72.597       31.266       36.861       22.725      977.557     1358.730      516.422        0.503        0.143       43.950       23.806        0.293      338.428       11.072      861.779
05/08/2013  07:15:00        1.796       21.195       53.134       29.450       39.169       33.555      867.328     1534.195     1125.962        0.340        0.176       21.271       33.461        2.475      338.433       11.082      861.774
05/08/2013  07:16:00       24.827       -8.431       24.544       24.055       29.983       23.503      578.635      898.951      552.395        0.166        0.101       26.219       20.262        0.597      338.528       11.242      861.775
05/08/2013  07:17:00       24.870       -6.610       34.236       22.406       30.933       23.502      502.033      956.839      552.356        0.192        0.101       25.734       18.831        0.535      338.526       11.237      861.789
05/08/2013  07:18:00       27.866       -7.566       37.664       28.379       25.919       31.685      805.367      671.772     1003.918        0.237        0.124       28.875       23.866        0.683      338.489       11.175      861.788
05/08/2013  07:19:00       72.981      -77.203       -0.724       51.605       43.116       24.536     2663.124     1858.976      602.027        0.820        0.256      106.238       23.277        0.048      338.364       10.966      861.788
05/08/2013  07:20:00       76.898      -98.743      -10.016       45.481       77.739       39.733     2068.519     6043.309     1578.744        1.273        0.485      125.154       48.177        0.148      338.396       11.018      861.795
05/08/2013  07:21:00       16.698      -32.947       18.528       49.121       58.032       48.038     2412.849     3367.714     2307.609        0.490        0.404       36.936       39.577        1.148      338.495       11.185      861.785
05/08/2013  07:22:00       39.095      -47.947       26.589       59.494       87.641       62.659     3539.559     7680.878     3926.106        0.984        0.757       61.866       72.288        1.365      338.505       11.202      861.788
05/08/2013  07:23:00       50.738      -17.610       47.875       56.809       79.194       50.501     3227.294     6271.728     2550.320        0.861        0.602       53.707       50.216        0.874      338.492       11.180      861.796
05/08/2013  07:24:00       86.446     -142.301      -16.682       72.620       67.562       47.996     5273.592     4564.599     2303.597        2.007        0.607      166.500       52.936        0.101      338.367       10.969      861.804
05/08/2013  07:25:00       37.224       17.430       53.683       38.516       66.540       38.714     1483.510     4427.544     1498.773        0.599        0.370       41.103       42.121        1.050      338.508       11.207      861.817
05/08/2013  07:26:00       52.341      -14.883       38.550       48.722       49.277       34.023     2373.837     2428.265     1157.566        0.520        0.298       54.416       21.641        0.158      338.472       11.146      861.845
05/08/2013  07:27:00       58.206       60.751       45.482       43.709       37.696       35.845     1910.443     1420.975     1284.851        0.688        0.231       84.135       30.497        0.131      338.362       10.962      861.864
05/08/2013  07:28:00      141.033       88.691       45.562       54.206       49.659       45.031     2938.320     2466.055     2027.825        1.863        0.372      166.602       30.232        0.033      338.234       10.746      861.855
05/08/2013  07:29:00        4.561       57.708       88.579       47.345       34.419       32.574     2241.588     1184.698     1061.084        0.784        0.224       57.888       26.954        0.217      338.410       11.042      861.871
05/08/2013  07:30:00       55.898       88.435       78.700       54.736       39.985       32.420     2996.018     1598.832     1051.030        1.139        0.282      104.620       21.578        0.043      338.380       10.992      861.871
05/08/2013  07:31:00       40.198       60.791       72.067       51.993       45.440       30.049     2703.320     2064.791      902.971        0.809        0.284       72.880       17.395        0.057      338.365       10.967      861.872
05/08/2013  07:32:00       49.098       60.710       59.874       43.789       32.731       25.030     1917.473     1071.317      626.521        0.665        0.181       78.079       23.077        0.087      338.370       10.976      861.866
05/08/2013  07:33:00       44.766      -44.320        4.841       26.854       64.463       26.502      721.139     4155.525      702.379        0.478        0.279       62.994       29.447        0.219      338.409       11.041      861.870
05/08/2013  07:34:00       44.528      -61.754        9.194       30.123       45.364       27.702      907.373     2057.926      767.382        0.481        0.187       76.133       23.282        0.094      338.435       11.084      861.874
05/08/2013  07:35:00       18.806       -3.433       31.060       23.662       35.069       28.408      559.897     1229.859      807.042        0.196        0.130       19.117       15.410        0.650      338.569       11.309      861.881
05/08/2013  07:36:00       63.197      -64.587       -1.291       31.398       47.707       27.550      985.821     2275.980      758.995        0.609        0.201       90.362       21.315        0.056      338.479       11.158      861.876
05/08/2013  07:37:00       69.939      -83.892       -5.206       30.377       33.231       26.495      922.751     1104.296      701.969        0.734        0.136      109.221       15.474        0.020      338.531       11.245      861.873
05/08/2013  07:38:00        5.542       -3.047       23.924       26.246       35.825       33.004      688.855     1283.466     1089.249        0.184        0.153        6.324       24.149       14.582      338.693       11.517      861.875
05/08/2013  07:39:00       31.981       -8.194       54.546       42.643       68.901       41.223     1818.427     4747.297     1699.328        0.616        0.413       33.014       50.029        2.296      338.625       11.404      861.878
05/08/2013  07:40:00       55.178      -82.979      -10.503       49.797       46.551       38.598     2479.716     2166.978     1489.836        0.809        0.307       99.650       28.989        0.085      338.615       11.387      861.880
05/08/2013  07:41:00       26.146      -69.927        3.936       42.437       49.005       39.103     1800.930     2401.445     1529.023        0.566        0.287       74.655       32.005        0.184      338.635       11.421      861.878
05/08/2013  07:42:00       49.038      -49.858        5.758       67.928       69.385       57.148     4614.169     4814.342     3265.928        0.881        0.635       69.932       50.787        0.527      338.573       11.316      861.887
05/08/2013  07:43:00       78.490      -79.158      -10.730       42.581       55.607       36.412     1813.184     3092.162     1325.861        0.939        0.312      111.474       40.739        0.134      338.529       11.242      861.907
05/08/2013  07:44:00       68.903      -84.970      -11.220       55.725       60.377       46.526     3105.272     3645.424     2164.626        1.050        0.446      109.397       30.856        0.080      338.581       11.330      861.918
05/08/2013  07:45:00       59.334      -90.078        5.478       45.502       57.285       38.697     2070.413     3281.556     1497.456        0.926        0.342      107.864       34.248        0.101      338.522       11.231      861.927
05/08/2013  07:46:00       52.660     -106.983       -3.850       47.919       58.724       41.424     2296.208     3448.565     1715.974        1.085        0.373      119.241       23.974        0.040      338.664       11.471      861.927
05/08/2013  07:47:00       36.153     -106.563        8.549       41.101       70.666       30.986     1689.290     4993.727      960.131        1.019        0.382      112.529       18.887        0.028      338.620       11.396      861.931
05/08/2013  07:48:00       50.790      -80.608        6.715       60.784       77.144       51.651     3694.649     5951.169     2667.864        1.072        0.616       95.275       30.934        0.105      338.604       11.368      861.935
05/08/2013  07:49:00       74.641      -96.533        3.938       45.112       66.329       40.342     2035.078     4399.483     1627.489        1.148        0.403      122.024       37.035        0.092      338.598       11.357      861.938
05/08/2013  07:50:00       97.677     -122.858       -8.811       49.382       48.896       36.147     2438.603     2390.830     1306.629        1.542        0.307      156.955       30.199        0.037      338.569       11.309      861.936
05/08/2013  07:51:00       51.224     -137.065       -0.981       33.560       44.870       28.249     1126.287     2013.281      798.006        1.267        0.197      146.324       22.969        0.025      338.649       11.446      861.939
05/08/2013  07:52:00       61.505     -161.765       -0.886       45.501       27.794       26.506     2070.332      772.502      702.581        1.675        0.177      173.063       21.944        0.016      338.533       11.250      861.957
05/08/2013  07:53:00       56.988     -134.710      -21.467       38.602       33.126       27.176     1490.124     1097.307      738.553        1.259        0.166      146.268       20.840        0.020      338.616       11.389      861.965
05/08/2013  07:54:00       61.741     -103.916      -12.304       40.356       30.498       28.224     1628.628      930.100      796.610        0.906        0.168      120.874       14.996        0.015      338.686       11.506      861.967
05/08/2013  07:55:00       55.447      -97.891      -16.645       32.175       45.822       24.898     1035.254     2099.668      619.888        0.834        0.188      112.503       20.447        0.033      338.699       11.528      861.979
05/08/2013  07:56:00       83.451      -90.361      -18.856       25.836       39.900       25.023      667.477     1592.019      626.146        0.918        0.144      123.001       19.156        0.024      338.715       11.556      861.987
05/08/2013  07:57:00       34.115      -32.543        2.982       40.696       34.773       31.230     1656.164     1209.139      975.336        0.304        0.192       47.147       21.776        0.213      338.794       11.686      861.986
05/08/2013  07:58:00       51.596      -54.589       -3.421       48.519       45.779       35.137     2354.088     2095.754     1234.639        0.567        0.284       75.114       31.437        0.175      338.715       11.554      861.992
05/08/2013  07:59:00       11.460       -8.836       31.502       33.021       42.542       33.190     1090.401     1809.826     1101.558        0.260        0.200       14.471       35.260        5.937      338.726       11.574      862.003
05/08/2013  08:00:00       24.660      -17.005       31.395       23.295       52.949       20.093      542.658     2803.617      403.745        0.282        0.188       29.955       17.439        0.339      338.734       11.588      862.004
05/08/2013  08:01:00       68.858       68.446       52.375       53.025       34.688       30.308     2811.599     1203.237      918.553        0.855        0.247       97.090       25.044        0.067      338.636       11.422      862.009
05/08/2013  08:02:00      119.262       57.242       13.331       23.599       22.578       21.724      556.903      509.746      471.939        0.961        0.077      132.288       10.003        0.006      338.527       11.240      862.016
05/08/2013  08:03:00       75.987       75.008       53.291       56.014       43.892       30.763     3137.542     1926.511      946.350        1.012        0.301      106.772       33.640        0.099      338.694       11.519      862.003
05/08/2013  08:04:00       30.022       34.849       49.267       36.149       46.821       31.432     1306.730     2192.227      987.969        0.451        0.224       45.998       29.577        0.413      338.743       11.602      862.021
05/08/2013  08:05:00       52.063       25.327       19.493       30.190       26.956       32.137      911.425      726.640     1032.819        0.320        0.134       57.897       19.671        0.115      338.766       11.640      862.020
05/08/2013  08:06:00       22.048       10.610       16.815       36.775       58.772       39.527     1352.394     3454.146     1562.344        0.362        0.318       24.468       15.728        0.413      338.844       11.773      862.023
05/08/2013  08:07:00       22.430     -100.968       -1.033       41.705       48.198       39.631     1739.317     2323.009     1570.644        0.816        0.282      103.429       18.783        0.033      338.756       11.625      862.037
05/08/2013  08:08:00        8.900     -112.410      -10.644       39.838       35.169       31.874     1587.067     1236.873     1015.927        0.833        0.192      112.762       23.900        0.045      338.841       11.765      862.038
05/08/2013  08:09:00      -11.720     -117.248      -12.469       46.699       44.918       35.243     2180.756     2017.621     1242.081        0.974        0.272      117.833       15.914        0.018      338.815       11.723      862.059
05/08/2013  08:10:00      -14.473      -60.448       16.987       82.986       52.764       32.850     6886.675     2784.024     1079.100        0.745        0.537       62.156       43.118        0.481      338.836       11.757      862.055
05/08/2013  08:11:00     -170.633      -57.280        0.754       55.097       58.246       29.424     3035.660     3392.639      865.772        1.984        0.365      179.990       26.070        0.021      338.797       11.692      862.058
05/08/2013  08:12:00      -75.294      -61.094        6.939       64.446       58.573       39.600     4153.288     3430.832     1568.159        0.930        0.458       96.962       37.025        0.146      338.857       11.793      862.075
05/08/2013  08:13:00      -39.849     -114.430        2.123       32.564       32.869       21.955     1060.431     1080.348      482.028        0.865        0.131      121.170       13.577        0.013      338.668       11.476      862.082
05/08/2013  08:14:00       -4.817     -115.530       -0.280       43.618       41.019       18.870     1902.499     1682.567      356.085        0.866        0.197      115.630       22.084        0.036      338.628       11.409      862.092
05/08/2013  08:15:00      -30.562      -50.870       13.234       52.841       27.095       29.119     2792.164      734.117      847.902        0.403        0.219       59.344       33.270        0.314      338.838       11.761      862.094
05/08/2013  08:16:00      -84.272       -1.073       -8.029       43.845       21.871       18.281     1922.380      478.349      334.190        0.495        0.137       84.279       22.172        0.069      338.702       11.535      862.104
05/08/2013  08:17:00      -60.691      -23.469      -16.368       20.222       11.639       12.689      408.941      135.471      161.007        0.260        0.035       65.070        5.036        0.006      338.642       11.432      862.101
05/08/2013  08:18:00      -30.985      -53.506        5.254       31.472       22.805       20.065      990.456      520.059      402.604        0.288        0.096       61.830       19.070        0.095      338.752       11.619      862.106
05/08/2013  08:19:00       -1.256      -10.635       14.628       20.206       12.306       12.717      408.272      151.443      161.718        0.052        0.036       10.709       11.915        1.238      338.972       11.987      862.104
05/08/2013  08:20:00      -45.604       -8.676       -4.767       19.227       23.979       16.385      369.666      574.996      268.462        0.170        0.061       46.422       13.799        0.088      338.834       11.755      862.112
05/08/2013  08:21:00     -103.736       14.593       -7.755       37.377       25.717       15.783     1397.032      661.344      249.104        0.667        0.115      104.757        7.525        0.005      338.717       11.560      862.110
05/08/2013  08:22:00      -65.331       29.758       -4.703       32.377       25.015       19.187     1048.239      625.752      368.139        0.361        0.102       71.789       11.627        0.026      338.794       11.687      862.120
05/08/2013  08:23:00     -109.116        4.903      -12.263       26.114       24.335       12.113      681.950      592.197      146.728        0.675        0.071      109.227       11.488        0.011      338.803       11.703      862.114
05/08/2013  08:24:00      -21.780      -45.485        6.110       30.102       26.940       24.867      906.145      725.780      618.379        0.242        0.113       50.431       13.906        0.076      338.973       11.989      862.121
05/08/2013  08:25:00      -88.280      -56.445        0.226       45.157       74.472       27.130     2039.111     5546.012      736.062        0.965        0.416      104.783       29.672        0.080      338.895       11.857      862.117
05/08/2013  08:26:00      -56.447      -97.239       -0.700       42.193       60.801       33.963     1780.230     3696.810     1153.494        0.964        0.332      112.435       19.904        0.031      338.985       12.009      862.118
05/08/2013  08:27:00     -109.169     -137.208       -1.806       70.814       59.829       32.116     5014.654     3579.492     1031.460        2.018        0.481      175.340       34.274        0.038      338.794       11.686      862.130
05/08/2013  08:28:00      -71.817      -52.148        5.968       53.619       41.856       28.739     2874.998     1751.952      825.945        0.668        0.273       88.753       25.836        0.085      338.918       11.895      862.145
05/08/2013  08:29:00      -58.610      -55.102       -5.901       33.246       24.127       21.011     1105.288      582.110      441.469        0.432        0.106       80.445       17.443        0.047      338.795       11.688      862.156
05/08/2013  08:30:00      -35.780      -29.748       -8.601       29.184       25.857       14.569      851.722      668.577      212.268        0.199        0.087       46.531       12.269        0.070      338.827       11.742      862.162
05/08/2013  08:31:00     -111.995      -48.808        1.917       46.542       33.548       27.681     2166.117     1125.465      766.217        0.949        0.203      122.168       20.316        0.028      338.936       11.927      862.165
05/08/2013  08:32:00      -68.051      -40.071        0.552       44.454       36.438       21.576     1976.117     1327.736      465.505        0.500        0.188       78.972       24.003        0.092      338.924       11.906      862.170
05/08/2013  08:33:00     -106.892      -37.014      -14.985       39.302       20.907       16.711     1544.630      437.117      279.245        0.764        0.113      113.119       13.016        0.013      338.728       11.576      862.174
05/08/2013  08:34:00     -110.717       16.816       -7.472       30.303       46.523       19.245      918.243     2164.372      370.364        0.802        0.173      111.987       13.249        0.014      338.775       11.657      862.177
05/08/2013  08:35:00     -136.117       -8.029      -11.304       38.930       22.655       20.885     1515.549      513.246      436.194        1.059        0.123      136.353       14.809        0.012      338.783       11.670      862.192
05/08/2013  08:36:00      -72.921      -20.082      -10.390       35.658       12.472       15.303     1271.470      155.550      234.194        0.374        0.083       75.636       15.880        0.044      338.792       11.685      862.206
05/08/2013  08:37:00      -17.662      -28.617       23.895       22.721       34.153       20.927      516.236     1166.400      437.923        0.191        0.106       33.628       14.355        0.182      339.044       12.110      862.220
05/08/2013  08:38:00       -1.040       32.586       -4.822       13.573       29.927       12.523      184.218      895.645      156.822        0.116        0.062       32.602        6.471        0.039      339.011       12.053      862.230
05/08/2013  08:39:00     -123.917        8.788      -12.404       67.075       22.268       24.988     4499.004      495.853      624.379        1.060        0.281      124.228       33.943        0.075      338.930       11.916      862.241
05/08/2013  08:40:00     -146.004      -13.856      -25.530       35.845       39.296       17.262     1284.843     1544.204      297.983        1.264        0.156      146.660       15.793        0.012      338.765       11.641      862.252
05/08/2013  08:41:00      -71.727      -25.200       -6.124       31.796       47.347       23.744     1010.965     2241.764      563.763        0.482        0.191       76.025       17.858        0.055      338.994       12.023      862.252
05/08/2013  08:42:00      -82.444       -7.259       -5.873       33.972       33.832       22.239     1154.063     1144.607      494.574        0.484        0.140       82.763       10.473        0.016      339.000       12.034      862.260
05/08/2013  08:43:00      -17.219       -3.487       -1.543       20.836       19.482       19.645      434.139      379.563      385.930        0.076        0.060       17.569       10.796        0.378      339.279       12.503      862.261
05/08/2013  08:44:00      -21.231       10.597       -1.917       25.210       22.377       20.070      635.542      500.735      402.818        0.105        0.077       23.729       14.287        0.363      339.355       12.633      862.263
05/08/2013  08:45:00      -25.929        8.322        4.648       24.875       21.458       17.392      618.787      460.433      302.487        0.107        0.069       27.231        7.456        0.075      339.310       12.556      862.263
05/08/2013  08:46:00      -25.542       27.090        6.406       27.973       34.256       22.260      782.516     1173.456      495.500        0.194        0.123       37.233       18.595        0.249      339.421       12.742      862.269
05/08/2013  08:47:00      -18.553       28.340        5.193       31.857       26.166       22.564     1014.866      684.637      509.150        0.169        0.110       33.873       17.773        0.275      339.403       12.712      862.265
05/08/2013  08:48:00      -32.972       29.423      -12.297       17.075       24.588       14.510      291.543      604.552      210.534        0.161        0.055       44.191        9.418        0.045      339.190       12.352      862.266
05/08/2013  08:49:00      -41.969       49.844      -11.213       26.465       40.949       16.077      700.387     1676.812      258.474        0.350        0.132       65.160       12.237        0.035      339.104       12.209      862.271
05/08/2013  08:50:00        7.934       -0.772       17.601       10.593       23.543       13.627      112.219      554.265      185.695        0.061        0.043        7.972        7.114        0.796      339.295       12.529      862.270
05/08/2013  08:51:00      -24.710       52.047       -4.670       31.008       37.234       24.137      961.488     1386.348      582.602        0.314        0.147       57.615       18.139        0.099      339.147       12.280      862.274
05/08/2013  08:52:00        5.854       31.832       14.145       28.573       27.428       21.879      816.393      752.288      478.686        0.165        0.102       32.366       11.962        0.137      339.246       12.448      862.280
05/08/2013  08:53:00       21.901       66.787       -3.178       31.552       31.606       27.427      995.513      998.954      752.234        0.385        0.137       70.287       22.148        0.099      339.124       12.242      862.294
05/08/2013  08:54:00        5.616       68.258        1.469       21.584       33.598       25.779      465.869     1128.796      664.533        0.348        0.113       68.488       22.813        0.111      339.132       12.255      862.299
05/08/2013  08:55:00       42.195       20.816       14.629       32.752       26.855       25.723     1072.724      721.179      661.675        0.244        0.123       47.050       21.118        0.201      339.105       12.212      862.297
05/08/2013  08:56:00       -4.957        9.628       15.695       20.615       15.064       18.063      424.977      226.922      326.278        0.067        0.049       10.829       12.579        1.349      339.370       12.657      862.305
05/08/2013  08:57:00       12.136       56.565      -15.521       22.395       20.755       13.744      501.548      430.785      188.896        0.235        0.056       57.852        8.932        0.024      339.064       12.141      862.298
05/08/2013  08:58:00        5.725       35.077       15.237       21.367       33.620       20.182      456.536     1130.276      407.293        0.174        0.100       35.541       19.540        0.302      339.498       12.873      862.307
05/08/2013  08:59:00       10.775      -11.290       21.313       15.146       30.471       19.872      229.394      928.482      394.904        0.113        0.078       15.607       18.333        1.380      339.471       12.826      862.318
05/08/2013  09:00:00        8.282       -8.677       19.553       23.824       28.399       22.296      567.596      806.497      497.110        0.120        0.094       11.995       16.431        1.876      339.467       12.820      862.326
05/08/2013  09:01:00        7.653       41.190       58.108       35.609       48.653       38.672     1268.023     2367.116     1495.505        0.513        0.257       41.895       37.371        0.796      339.475       12.834      862.331
05/08/2013  09:02:00       12.663      -35.081       30.443       26.873       53.062       29.933      722.183     2815.593      895.961        0.338        0.222       37.297       25.753        0.477      339.487       12.853      862.343
05/08/2013  09:03:00       17.878      -24.816       22.017       41.559       70.453       45.274     1727.143     4963.679     2049.777        0.508        0.437       30.585       45.879        2.250      339.482       12.846      862.344
05/08/2013  09:04:00       17.619      -21.734       31.623       48.354       72.858       42.324     2338.141     5308.244     1791.338        0.561        0.472       27.978       48.575        3.014      339.341       12.607      862.353
05/08/2013  09:05:00       62.398      -70.429       -4.174       36.921       50.901       36.812     1363.167     2590.921     1355.157        0.709        0.265       94.095       21.888        0.054      339.300       12.539      862.356
05/08/2013  09:06:00       36.959      -47.011        5.619       48.867       63.243       37.372     2387.959     3999.730     1396.662        0.569        0.389       59.800       37.855        0.401      339.450       12.790      862.355
05/08/2013  09:07:00       34.678      -16.333       20.778       52.716       34.197       34.706     2778.985     1169.437     1204.516        0.353        0.258       38.332       27.444        0.513      339.407       12.719      862.363
05/08/2013  09:08:00       15.607      -16.592       10.704       35.610       36.368       34.406     1268.084     1322.597     1183.784        0.220        0.189       22.779       21.151        0.862      339.377       12.668      862.365
05/08/2013  09:09:00       -8.241       -0.529       36.158       13.823       21.149       10.694      191.075      447.274      114.361        0.106        0.038        8.258        4.927        0.356      339.598       13.041      862.373
05/08/2013  09:10:00       29.587      -59.556        3.284       29.332       54.081       26.397      860.337     2924.787      696.806        0.446        0.224       66.501       33.039        0.247      339.371       12.659      862.369
05/08/2013  09:11:00       45.734       -1.820       11.252       30.766       55.322       26.816      946.575     3060.478      719.076        0.347        0.236       45.770       20.830        0.207      339.483       12.847      862.375
05/08/2013  09:12:00        1.549      -19.786       20.956       27.919       30.845       25.411      779.494      951.425      645.730        0.160        0.119       19.847        9.637        0.236      339.795       13.373      862.380
05/08/2013  09:13:00       -1.750        8.867       19.917       15.978       16.962       21.150      255.301      287.702      447.327        0.073        0.050        9.038       15.772        3.046      339.908       13.565      862.382
05/08/2013  09:14:00      -28.132      -44.464        6.005       42.069       33.238       25.440     1769.773     1104.768      647.201        0.316        0.176       52.616       17.656        0.113      339.690       13.197      862.387
05/08/2013  09:15:00      -70.442      -46.675        0.827       41.144       38.460       23.737     1692.846     1479.190      563.450        0.544        0.187       84.502       19.273        0.052      339.527       12.922      862.379
05/08/2013  09:16:00      -40.380       13.259       -2.263       30.641       32.642       26.801      938.898     1065.506      718.320        0.227        0.136       42.501       18.868        0.197      339.582       13.015      862.385
05/08/2013  09:17:00      -14.535        0.373        7.963       28.229       15.677       17.617      796.897      245.777      310.370        0.081        0.068       14.540       14.792        1.035      339.852       13.471      862.381
05/08/2013  09:18:00      -23.526        5.762       -9.481       19.191       21.730       13.330      368.302      472.182      177.682        0.085        0.051       24.221        4.751        0.038      339.474       12.832      862.382
05/08/2013  09:19:00      -83.867       -3.125       -1.203       30.815       27.116       19.942      949.540      735.262      397.686        0.456        0.104       83.925       11.524        0.019      339.443       12.781      862.394
05/08/2013  09:20:00      -60.801       16.982        0.259       52.131       19.191       20.788     2717.589      368.304      432.123        0.375        0.176       63.128       24.603        0.152      339.505       12.883      862.397
05/08/2013  09:21:00      -46.765        5.850        7.302       45.360       24.791       23.412     2057.571      614.584      548.125        0.275        0.161       47.130       20.773        0.194      339.584       13.017      862.400
05/08/2013  09:22:00      -61.569       -4.077       -2.467       44.681       49.506       21.197     1996.420     2450.807      449.306        0.435        0.245       61.704        6.518        0.011      339.591       13.031      862.397
05/08/2013  09:23:00      -85.990      -10.205       -3.997       41.879       42.582       27.551     1753.886     1813.254      759.057        0.592        0.216       86.594       23.660        0.075      339.572       12.998      862.384
05/08/2013  09:24:00      -55.603       -9.117        9.260       51.227       45.374       27.113     2624.217     2058.807      735.140        0.434        0.271       56.346       25.365        0.203      339.790       13.365      862.391
05/08/2013  09:25:00     -123.069      -72.631       -3.568       30.382       27.352       21.027      923.048      748.152      442.128        1.127        0.106      142.902       13.052        0.008      339.364       12.647      862.383
05/08/2013  09:26:00      -69.391      -40.390       -1.460       49.204       23.062       19.790     2421.063      531.850      391.639        0.490        0.167       80.290       15.755        0.039      339.335       12.597      862.388
05/08/2013  09:27:00      -37.515      -46.451        9.133       40.050       18.898       15.745     1604.019      357.153      247.910        0.293        0.110       59.709       17.775        0.089      339.474       12.833      862.383
05/08/2013  09:28:00      -24.218        1.640        6.927       22.814       16.883       18.212      520.488      285.045      331.684        0.089        0.057       24.274       17.523        0.521      339.784       13.355      862.395
05/08/2013  09:29:00      -49.130        9.409        3.687       28.176       30.123       20.378      793.899      907.390      415.248        0.232        0.106       50.023       19.995        0.160      339.621       13.079      862.386
05/08/2013  09:30:00      -28.305       -3.464        9.269       27.616       37.181       22.661      762.643     1382.390      513.520        0.178        0.133       28.516       24.468        0.736      339.817       13.411      862.397
05/08/2013  09:31:00      -73.276       32.390      -11.708       22.327       23.920       14.980      498.493      572.183      224.408        0.393        0.065       80.116       11.397        0.020      339.411       12.724      862.395
05/08/2013  09:32:00      -71.169       20.955       -9.263       21.288       19.339       14.168      453.158      374.016      200.743        0.331        0.051       74.190        6.912        0.009      339.381       12.675      862.392
05/08/2013  09:33:00      -22.786       23.368       -6.568       23.274       25.462       13.486      541.702      648.296      181.866        0.124        0.069       32.639       12.690        0.151      339.605       13.052      862.381
05/08/2013  09:34:00      -19.369       10.809        6.937       23.422       22.478       13.810      548.577      505.251      190.719        0.089        0.062       22.181        9.167        0.171      340.010       13.736      862.376
05/08/2013  09:35:00      -61.748       38.174      -18.492       15.073       18.710       12.749      227.181      350.075      162.545        0.318        0.037       72.595        6.656        0.008      339.424       12.750      862.360
05/08/2013  09:36:00      -28.204        0.059      -16.677       10.132        6.580        5.586      102.654       43.303       31.204        0.063        0.009       28.204        3.501        0.015      339.616       13.072      862.358
05/08/2013  09:37:00      -56.470        4.116      -13.671       23.955       16.054       13.269      573.860      257.721      176.065        0.220        0.050       56.619       12.637        0.050      339.546       12.953      862.344
05/08/2013  09:38:00      -40.215      -62.048        4.938       36.924       51.372       21.286     1363.415     2639.040      453.078        0.497        0.223       73.941       18.726        0.064      339.757       13.310      862.339
05/08/2013  09:39:00     -103.954     -143.968       -3.349       33.299       67.477       26.015     1108.852     4553.147      676.784        1.894        0.317      177.576       28.234        0.025      339.489       12.855      862.338
05/08/2013  09:40:00      -95.082      -68.446       -0.307       59.056       40.726       25.490     3487.609     1658.625      649.715        0.976        0.290      117.155       20.098        0.029      339.691       13.198      862.328
05/08/2013  09:41:00     -101.414      -18.961        7.335       56.067       53.104       28.359     3143.549     2820.015      804.214        0.873        0.338      103.172       26.777        0.067      339.767       13.326      862.319
05/08/2013  09:42:00      -38.032      -30.644        3.586       35.644       46.342       24.810     1270.525     2147.595      615.548        0.322        0.202       48.841       17.177        0.124      340.133       13.946      862.320
05/08/2013  09:43:00      -40.712      -43.972       23.710       45.670       56.141       32.296     2085.761     3151.839     1043.033        0.522        0.314       59.925       26.905        0.202      340.147       13.967      862.310
05/08/2013  09:44:00       15.627       28.789       68.629       54.737       78.831       46.884     2996.123     6214.396     2198.150        0.859        0.570       32.757       50.442        2.371      340.353       14.316      862.304
05/08/2013  09:45:00       29.167        9.904       74.564       59.432       82.749       53.146     3532.158     6847.381     2824.456        0.985        0.660       30.803       48.388        2.468      340.391       14.379      862.289
05/08/2013  09:46:00       26.769     -119.524      -16.539       66.734       53.886       41.971     4453.384     2903.697     1761.555        1.220        0.456      122.485       34.525        0.079      340.015       13.745      862.308
05/08/2013  09:47:00       22.059      -50.335       25.965       42.371       65.351       47.902     1795.327     4270.778     2294.571        0.603        0.418       54.956       41.554        0.572      340.401       14.397      862.308
05/08/2013  09:48:00       26.063       13.162       40.484       65.088       50.913       38.493     4236.497     2592.148     1481.718        0.540        0.416       29.198       37.596        1.658      340.421       14.431      862.308
05/08/2013  09:49:00       53.923      -36.258       14.460       52.429       56.483       43.022     2748.758     3190.282     1850.925        0.611        0.389       64.979       42.593        0.430      340.340       14.294      862.314
05/08/2013  09:50:00       31.809      -45.863       11.936       45.924       72.306       46.083     2109.014     5228.095     2123.680        0.636        0.473       55.814       50.443        0.817      340.801       15.073      862.324
05/08/2013  09:51:00      -27.990       12.076        2.750       25.563       33.768       25.502      653.450     1140.268      650.371        0.169        0.122       30.484       20.091        0.434      340.641       14.803      862.326
05/08/2013  09:52:00      -38.487       10.204        0.663       44.646       66.477       27.166     1993.252     4419.135      737.994        0.437        0.358       39.817       23.353        0.344      340.500       14.564      862.324
05/08/2013  09:53:00      -34.806      -40.011        7.528       36.926       37.041       21.843     1363.564     1372.070      477.114        0.304        0.161       53.032       23.352        0.194      340.502       14.567      862.326
05/08/2013  09:54:00     -132.092      -61.907        8.732      103.208       52.008       30.749    10651.792     2704.810      945.506        1.783        0.715      145.879       42.310        0.084      340.229       14.104      862.321
05/08/2013  09:55:00     -190.799      -58.616      -15.855       64.923       46.941       29.060     4215.036     2203.420      844.500        2.368        0.363      199.600       25.459        0.016      339.735       13.271      862.332
05/08/2013  09:56:00      -81.874      -20.428        8.015       47.091       43.606       26.092     2217.531     1901.499      680.786        0.599        0.240       84.384       24.329        0.083      339.945       13.628      862.339
05/08/2013  09:57:00      -43.137       40.053        5.925       56.674       38.399       23.045     3211.903     1474.464      531.069        0.436        0.261       58.865       20.736        0.124      340.499       14.562      862.339
05/08/2013  09:58:00      -15.624      -19.699       12.265       35.293       39.248       21.297     1245.613     1540.383      453.565        0.201        0.162       25.143       20.933        0.693      340.568       14.678      862.340
05/08/2013  09:59:00      -63.663      -83.324       -6.666       62.176       52.443       21.879     3865.875     2750.280      478.691        0.907        0.355      104.861       24.479        0.054      340.057       13.817      862.344
05/08/2013  10:00:00      -45.147      -99.252       -5.129       62.866       49.390       33.931     3952.190     2439.371     1151.289        0.973        0.377      109.038       31.484        0.083      340.097       13.882      862.345
05/08/2013  10:01:00     -140.790      -27.887      -16.042       42.467       66.500       30.626     1803.431     4422.227      937.925        1.401        0.358      143.525       15.901        0.012      339.876       13.508      862.343
05/08/2013  10:02:00      -47.602        3.806        7.035       41.206       28.122       25.812     1697.897      790.865      666.260        0.274        0.158       47.754       25.686        0.289      340.593       14.723      862.341
05/08/2013  10:03:00      -55.507       31.712      -16.342       35.964       34.183       26.350     1293.378     1168.472      694.297        0.375        0.158       63.927       16.708        0.068      340.033       13.775      862.331
05/08/2013  10:04:00      -37.545       18.019      -12.043       33.140       29.564       25.205     1098.240      874.005      635.286        0.224        0.130       41.645       11.231        0.073      340.310       14.243      862.323
05/08/2013  10:05:00      -39.375      -42.052       12.051       42.590       37.064       32.414     1813.888     1373.770     1050.639        0.385        0.212       57.609       24.977        0.188      340.258       14.156      862.324
05/08/2013  10:06:00      -43.605      -23.708        4.646       33.160       55.490       29.603     1099.587     3079.180      876.334        0.377        0.253       49.634       31.201        0.395      340.609       14.748      862.317
05/08/2013  10:07:00      -36.535      -53.931       -8.930       38.191       33.673       26.939     1458.545     1133.854      725.731        0.382        0.166       65.141       18.006        0.076      340.748       14.983      862.320
05/08/2013  10:08:00       11.374      -70.858       13.401       60.837       46.969       35.100     3701.116     2206.076     1232.007        0.623        0.357       71.765       26.700        0.138      340.684       14.876      862.320
05/08/2013  10:09:00      -25.257      -53.582        2.339       40.938       54.908       28.214     1675.948     3014.884      796.014        0.450        0.274       59.237       26.423        0.199      340.623       14.773      862.331
05/08/2013  10:10:00     -138.867      -87.771       -5.461       62.217       55.025       31.685     3871.005     3027.743     1003.970        1.746        0.395      164.279       20.610        0.016      340.132       13.942      862.327
05/08/2013  10:11:00      -79.730      -72.345       -2.033       49.315       44.166       30.915     2431.963     1950.655      955.732        0.847        0.267      107.660       18.320        0.029      340.073       13.841      862.336
05/08/2013  10:12:00      -23.785        8.890       -7.980       24.116       24.105       24.008      581.591      581.068      576.405        0.122        0.087       25.392       16.029        0.398      340.350       14.310      862.328
05/08/2013  10:13:00      -20.176      -21.742       -4.136       26.186       31.126       22.760      685.682      968.851      518.028        0.153        0.109       29.661       18.649        0.395      340.442       14.464      862.336
05/08/2013  10:14:00     -149.251      -75.247       14.102      104.648       86.562       56.282    10951.179     7493.051     3167.651        2.487        1.081      167.147       51.357        0.094      340.417       14.420      862.340
05/08/2013  10:15:00     -112.460     -111.469        8.053       95.454       78.377       42.428     9111.538     6143.023     1800.122        2.109        0.853      158.343       45.538        0.083      340.290       14.205      862.346
05/08/2013  10:16:00      -89.462      -96.595      -12.266       42.675       56.799       26.595     1821.179     3226.159      707.318        1.162        0.288      131.658       15.541        0.014      340.052       13.806      862.360
05/08/2013  10:17:00      -86.096     -117.962        0.102      102.585       60.046       38.500    10523.699     3605.579     1482.233        1.847        0.781      146.040       33.295        0.052      340.258       14.152      862.357
05/08/2013  10:18:00     -126.629     -110.594       -3.855       56.271       64.962       34.567     3166.394     4220.043     1194.894        1.843        0.429      168.125       28.317        0.028      340.093       13.874      862.364
05/08/2013  10:19:00     -114.854      -49.691       -5.625       57.576       35.936       29.241     3314.963     1291.418      855.011        1.058        0.273      125.142       23.078        0.034      340.274       14.181      862.362
05/08/2013  10:20:00      -97.149       -5.883       -4.397       40.915       40.928       26.237     1674.050     1675.067      688.385        0.676        0.202       97.327       23.836        0.060      340.345       14.303      862.362
05/08/2013  10:21:00      -62.162      -37.846      -13.665       54.872       51.993       19.134     3010.963     2703.261      366.109        0.578        0.304       72.776       17.931        0.061      340.227       14.102      862.359
05/08/2013  10:22:00      -60.443        0.991       -8.449       40.935       24.948       17.985     1675.646      622.389      323.460        0.317        0.131       60.451       18.020        0.089      340.655       14.825      862.372
05/08/2013  10:23:00      -94.114      -14.852        3.523       49.434       25.365       21.444     2443.721      643.397      459.852        0.632        0.177       95.278       13.741        0.021      340.457       14.490      862.372
05/08/2013  10:24:00        4.166      -20.061       30.503       58.869       86.039       38.397     3465.589     7402.744     1474.338        0.684        0.617       20.489       41.851        4.172      341.225       15.790      862.379
05/08/2013  10:25:00       38.208      -24.933       49.910       47.222       51.953       59.601     2229.912     2699.110     3552.319        0.653        0.424       45.623       28.471        0.389      341.052       15.496      862.374
05/08/2013  10:26:00       85.470      -40.159       10.070       72.976       49.548       49.880     5325.429     2454.983     2488.035        0.964        0.513       94.434       36.908        0.153      340.499       14.562      862.387
05/08/2013  10:27:00       69.473      -83.159      -15.838       49.960       66.993       40.974     2496.030     4488.020     1678.853        1.033        0.433      108.360       28.357        0.068      340.801       15.073      862.376
05/08/2013  10:28:00       12.978      -58.998       21.624       49.999       89.292       46.263     2499.888     7973.036     2140.279        0.836        0.631       60.409       38.677        0.410      341.150       15.663      862.386
05/08/2013  10:29:00      106.675       85.641       29.745       43.200       30.053       28.372     1866.253      903.175      804.960        1.159        0.179      136.799       17.874        0.017      340.323       14.264      862.404
05/08/2013  10:30:00      117.734       79.829       32.993       72.662       37.735       31.979     5279.709     1423.948     1022.657        1.452        0.386      142.246       15.599        0.012      340.509       14.578      862.412
05/08/2013  10:31:00       77.772       50.726       24.984       60.222       40.039       33.839     3626.687     1603.132     1145.045        0.781        0.319       92.852       22.047        0.056      340.678       14.864      862.415
05/08/2013  10:32:00       67.501       54.932       17.216       44.149       36.175       38.220     1949.112     1308.617     1460.803        0.629        0.236       87.029       15.078        0.030      340.787       15.048      862.426
05/08/2013  10:33:00       30.895       21.914       67.814       59.862       69.604       40.297     3583.428     4844.700     1623.818        0.804        0.503       37.878       39.463        1.085      340.924       15.280      862.429
05/08/2013  10:34:00      -12.165      -44.723       16.493       22.736       53.590       27.398      516.931     2871.837      750.650        0.328        0.207       46.348       16.028        0.120      340.567       14.676      862.431
05/08/2013  10:35:00       36.748      -76.573       14.362       47.695       51.241       38.223     2274.851     2625.682     1461.000        0.689        0.318       84.934       16.242        0.037      340.754       14.994      862.437
05/08/2013  10:36:00       16.434      -74.296       15.723       46.092       70.738       44.377     2124.480     5003.822     1969.323        0.757        0.455       76.091       26.642        0.123      340.965       15.350      862.427
05/08/2013  10:37:00       16.888       37.746       19.984       44.227       50.427       31.008     1956.004     2542.922      961.468        0.378        0.273       41.352       28.205        0.465      340.823       15.110      862.438
05/08/2013  10:38:00       -0.491       -5.984        4.849       31.598       17.898       26.379      998.442      320.338      695.831        0.104        0.101        6.004       12.120        4.075      340.719       14.934      862.442
05/08/2013  10:39:00       84.187       11.628       27.609       78.420      105.460       43.484     6149.755    11121.917     1890.849        1.357        0.958       84.986       31.854        0.140      340.710       14.916      862.442
05/08/2013  10:40:00       59.273       86.212       80.783       65.579       47.396       47.038     4300.627     2246.347     2212.573        1.311        0.438      104.623       34.994        0.112      340.692       14.888      862.438
05/08/2013  10:41:00       80.296       84.387       17.916       66.324       45.830       43.457     4398.897     2100.383     1888.547        1.114        0.419      116.484       19.830        0.029      340.624       14.773      862.445
05/08/2013  10:42:00      166.401       96.879       15.610       75.862       56.438       36.771     5755.020     3185.263     1352.112        2.380        0.515      192.548       29.695        0.024      340.680       14.865      862.448
05/08/2013  10:43:00      127.617       82.559        2.219       47.987       34.764       40.611     2302.749     1208.549     1649.280        1.413        0.258      151.994       27.545        0.033      340.572       14.684      862.455
05/08/2013  10:44:00       91.878       66.522       38.803       69.324       59.153       35.465     4805.848     3499.022     1257.752        1.197        0.478      113.432       28.379        0.063      340.664       14.841      862.467
05/08/2013  10:45:00       76.242       63.014       51.491       74.057       69.497       65.864     5484.507     4829.812     4338.051        1.354        0.733       98.912       48.977        0.245      340.613       14.753      862.471
05/08/2013  10:46:00       70.299     -105.403       -6.728       89.302      132.415       44.986     7974.869    17533.768     2023.774        2.181        1.377      126.695       48.959        0.149      340.712       14.921      862.455
05/08/2013  10:47:00      138.095     -187.809      -21.211       70.687       72.300       45.967     4996.695     5227.287     2112.960        3.356        0.617      233.115       39.433        0.029      340.805       15.075      862.464
05/08/2013  10:48:00       65.769     -130.098        3.907       71.586       72.083       45.686     5124.561     5195.954     2087.222        1.683        0.620      145.777       41.275        0.080      341.142       15.649      862.476
05/08/2013  10:49:00       49.355        5.956       73.573       74.319       98.507       70.956     5523.311     9703.561     5034.686        1.407        1.013       49.713       67.106        1.822      341.407       16.098      862.479
05/08/2013  10:50:00       49.460      -56.619       42.040       82.190       94.091       60.777     6755.270     8853.154     3693.903        1.336        0.965       75.180       27.210        0.131      341.246       15.825      862.486
05/08/2013  10:51:00       95.481       41.205       69.868       93.383      124.544       69.784     8720.403    15511.127     4869.867        2.239        1.455      103.993       79.880        0.590      340.952       15.328      862.495
05/08/2013  10:52:00      116.982       31.123       55.927      133.044      102.730       65.279    17700.787    10553.548     4261.363        2.514        1.626      121.052       55.493        0.210      340.793       15.059      862.492
05/08/2013  10:53:00      101.840       70.677       39.288       80.431       58.893       63.127     6469.185     3468.390     3984.972        1.541        0.696      123.962       15.444        0.016      341.106       15.588      862.493
05/08/2013  10:54:00       91.299       92.135       68.029       92.932       79.718       60.799     8636.415     6354.922     3696.518        2.007        0.934      129.709       42.993        0.110      341.340       15.984      862.495
05/08/2013  10:55:00      156.492      119.158       63.533       87.393       64.660       76.847     7637.575     4180.932     5905.443        3.022        0.886      196.694       43.202        0.048      340.957       15.334      862.493
05/08/2013  10:56:00      100.878      145.129      110.288       71.422       49.924       56.937     5101.121     2492.382     3241.783        2.712        0.542      176.745       39.158        0.049      340.667       14.842      862.513
05/08/2013  10:57:00      -21.293       -1.977       35.686       43.945       81.261       36.955     1931.126     6603.367     1365.697        0.581        0.495       21.384       31.524        2.173      340.736       14.962      862.522
05/08/2013  10:58:00       -5.797       23.188       22.354       44.595       17.206       19.078     1988.721      296.048      363.974        0.186        0.132       23.901       21.372        0.800      340.988       15.390      862.530
05/08/2013  10:59:00       21.012       24.891       15.079       37.659       40.595       18.070     1418.221     1647.978      326.523        0.234        0.170       32.574       20.751        0.406      341.226       15.792      862.530
05/08/2013  11:00:00       26.353       23.628        3.883       36.462       58.458       31.555     1329.508     3417.344      995.693        0.350        0.287       35.395       16.883        0.228      341.041       15.479      862.522
05/08/2013  11:01:00       59.228       68.739       58.102       38.664       36.431       30.971     1494.868     1327.227      959.193        0.769        0.189       90.736       24.652        0.074      340.735       14.963      862.521
05/08/2013  11:02:00       41.754      -41.604        7.861       29.928       53.026       41.283      895.698     2811.746     1704.248        0.447        0.271       58.943       39.379        0.446      340.403       14.400      862.520
05/08/2013  11:03:00      -28.881       -7.092       -3.896       22.618       38.905       19.052      511.590     1513.573      362.989        0.164        0.119       29.739       15.345        0.266      340.493       14.552      862.510
05/08/2013  11:04:00      -17.911      -28.239        9.759       35.544       59.426       32.557     1263.376     3531.423     1059.962        0.353        0.293       33.441       21.246        0.404      340.975       15.367      862.506
05/08/2013  11:05:00       44.419      -41.899       16.188       50.565       67.693       40.282     2556.847     4582.323     1622.671        0.637        0.438       61.062       34.123        0.312      341.043       15.483      862.496
05/08/2013  11:06:00       18.910      -32.306       41.584       40.500       70.639       36.232     1640.221     4989.820     1312.778        0.554        0.397       37.433       37.473        1.002      341.504       16.264      862.493
05/08/2013  11:07:00       77.515       77.166       49.642       48.382       47.992       41.326     2340.842     2303.223     1707.800        1.039        0.318      109.376       19.240        0.031      341.367       16.031      862.490
05/08/2013  11:08:00       78.015       68.176       44.044       69.918       51.788       35.786     4888.458     2682.000     1280.645        1.076        0.443      103.607       23.685        0.052      341.533       16.314      862.471
05/08/2013  11:09:00       46.566       64.203       -4.373       47.068       39.603       28.355     2215.421     1568.390      804.024        0.545        0.229       79.313       15.800        0.040      341.008       15.422      862.474
05/08/2013  11:10:00       22.298       67.502       -0.765       54.937       47.433       31.921     3018.071     2249.852     1018.982        0.567        0.314       71.090       25.072        0.124      341.597       16.421      862.467
05/08/2013  11:11:00       12.795       13.921       20.600       45.046       47.241       34.496     2029.098     2231.708     1189.986        0.312        0.273       18.908       26.396        1.949      341.674       16.552      862.459
05/08/2013  11:12:00       18.248      -13.937       27.823       32.121       63.678       28.672     1031.745     4054.877      822.067        0.360        0.295       22.962       33.285        2.101      341.520       16.290      862.466
05/08/2013  11:13:00       77.654      110.278       67.014       59.540       39.960       62.673     3545.028     1596.824     3927.924        1.587        0.453      134.875       40.890        0.092      340.960       15.342      862.459
05/08/2013  11:14:00      107.321       82.301       45.670       25.698       26.441       21.796      660.399      699.126      475.059        1.111        0.092      135.245       12.103        0.008      340.752       14.990      862.464
05/08/2013  11:15:00       79.409       61.187       37.024       38.236       39.826       37.560     1462.012     1586.107     1410.740        0.794        0.223      100.248       21.209        0.045      341.099       15.577      862.456
05/08/2013  11:16:00       78.645       71.289        9.108       42.027       42.757       41.026     1766.258     1828.203     1683.158        0.831        0.264      106.147       29.395        0.077      341.160       15.680      862.463
05/08/2013  11:17:00       71.273       64.793       -7.408       51.321       36.023       29.617     2633.862     1297.676      877.189        0.707        0.240       96.323       22.268        0.053      340.823       15.109      862.472
05/08/2013  11:18:00      -34.162       64.835      -18.861       35.865       34.277       23.419     1286.270     1174.928      548.438        0.437        0.150       73.284       18.497        0.064      340.889       15.222      862.467
05/08/2013  11:19:00      -36.865       99.177       -6.645       47.504       65.499       33.823     2256.645     4290.062     1144.023        0.946        0.385      105.807       40.524        0.147      340.983       15.381      862.473
05/08/2013  11:20:00      -79.046       81.703       -2.933       44.540       43.345       39.282     1983.823     1878.767     1543.063        0.917        0.270      113.682       32.700        0.083      341.056       15.504      862.474
05/08/2013  11:21:00      -70.721      147.144      -19.285       68.689       68.384       32.403     4718.173     4676.318     1049.956        1.873        0.522      163.257       26.286        0.026      341.005       15.418      862.477
05/08/2013  11:22:00      -48.966      176.856       -8.821       41.867       51.575       33.852     1752.831     2659.965     1145.987        1.966        0.278      183.509       32.277        0.031      341.332       15.972      862.478
05/08/2013  11:23:00       -8.937      199.684      -21.969       46.608       51.001       29.944     2172.338     2601.108      896.665        2.305        0.284      199.884       30.647        0.024      341.090       15.559      862.482
05/08/2013  11:24:00      -13.591      139.779       -5.514       29.563       62.253       33.548      873.952     3875.418     1125.495        1.281        0.294      140.438       34.378        0.060      341.233       15.805      862.476
05/08/2013  11:25:00       -7.937       73.588       -0.518       29.565       55.242       27.845      874.091     3051.725      775.342        0.509        0.235       74.014       22.530        0.093      341.594       16.416      862.475
05/08/2013  11:26:00       27.484       78.058       -1.377       45.424       37.587       38.292     2063.302     1412.815     1466.270        0.590        0.247       82.755       27.038        0.107      341.101       15.581      862.459
05/08/2013  11:27:00       19.450        5.372       -3.488       54.926       82.321       33.707     3016.847     6776.731     1136.160        0.567        0.546       20.178       18.548        0.845      341.034       15.467      862.447
05/08/2013  11:28:00       17.163      -19.873       33.372       41.024       62.158       52.507     1682.970     3863.604     2757.008        0.505        0.415       26.259       39.476        2.260      341.660       16.527      862.433
05/08/2013  11:29:00       57.406       11.586       34.241       40.665       71.268       36.454     1653.631     5079.121     1328.859        0.633        0.403       58.564       10.368        0.031      341.305       15.926      862.426
05/08/2013  11:30:00       30.713       89.086       10.296       59.318       63.488       37.922     3518.665     4030.745     1438.098        0.899        0.449       94.232       21.761        0.053      341.355       16.010      862.432
05/08/2013  11:31:00       62.497      102.755       19.707       57.020       65.921       43.517     3251.321     4345.529     1893.735        1.217        0.475      120.269       42.553        0.125      341.726       16.639      862.439
05/08/2013  11:32:00       80.364       85.301       -2.125       74.503       75.444       41.790     5550.728     5691.743     1746.432        1.336        0.649      117.194       40.260        0.118      341.253       15.836      862.443
05/08/2013  11:33:00        5.945       73.720       18.287      111.045       55.305       52.146    12330.928     3058.641     2719.232        1.195        0.905       73.960       46.894        0.402      341.519       16.288      862.440
05/08/2013  11:34:00       83.358      143.698       -7.176       59.138       90.403       55.354     3497.341     8172.700     3064.120        2.119        0.737      166.125       46.311        0.078      341.329       15.964      862.432
05/08/2013  11:35:00      -24.269      258.240      -43.063       55.582       57.443       37.082     3089.309     3299.665     1375.039        3.845        0.388      259.377       32.322        0.016      340.906       15.245      862.441
05/08/2013  11:36:00       33.718      246.097      -19.793       64.777       80.154       53.986     4196.100     6424.643     2914.499        3.781        0.677      248.397       51.816        0.044      341.422       16.122      862.442
05/08/2013  11:37:00      -51.180      232.836      -34.303       51.495       52.702       30.037     2651.773     2777.460      902.249        3.217        0.317      238.394       25.327        0.011      340.936       15.296      862.443
05/08/2013  11:38:00      -33.439      142.262      -16.677       31.357       72.286       31.117      983.239     5225.309      968.244        1.440        0.359      146.139       36.739        0.063      341.397       16.081      862.435
05/08/2013  11:39:00       27.239       11.376        2.215       25.768       30.995       27.817      663.982      960.678      773.813        0.164        0.120       29.520       11.439        0.150      341.561       16.360      862.424
05/08/2013  11:40:00      -66.958       42.237       -5.509       47.068       58.103       26.345     2215.408     3375.912      694.067        0.629        0.314       79.166       29.191        0.136      341.680       16.561      862.393
05/08/2013  11:41:00      -21.074      -94.477       -9.290       49.261       35.878       32.008     2426.647     1287.256     1024.534        0.710        0.237       96.799       20.026        0.043      340.948       15.321      862.387
05/08/2013  11:42:00     -156.973      -52.462      -13.565       49.667       40.888       32.969     2466.838     1671.845     1086.968        1.640        0.261      165.507       25.800        0.024      340.883       15.211      862.374
05/08/2013  11:43:00     -149.159      -56.508      -20.897       31.572       33.790       29.539      996.783     1141.796      872.549        1.444        0.151      159.504       13.438        0.007      340.835       15.129      862.375
05/08/2013  11:44:00     -137.312      -53.008      -22.338       39.558       29.468       19.560     1564.853      868.363      382.591        1.249        0.141      147.188       15.940        0.012      340.922       15.277      862.371
05/08/2013  11:45:00     -109.452      -31.946      -13.760       44.429       33.051       20.424     1973.960     1092.336      417.156        0.834        0.174      114.019       12.368        0.012      340.988       15.388      862.376
05/08/2013  11:46:00      -86.228      -25.792       -5.920       28.822       30.646       21.719      830.697      939.150      471.708        0.519        0.112       90.003       12.450        0.019      341.313       15.940      862.373
05/08/2013  11:47:00       -4.159      -63.254        5.823       33.980       65.310       29.287     1154.660     4265.364      857.737        0.516        0.314       63.391       32.943        0.270      341.808       16.778      862.360
05/08/2013  11:48:00        6.615       10.634       27.859       26.588       59.543       26.378      706.916     3545.349      695.815        0.294        0.247       12.524       15.073        1.449      341.818       16.795      862.349
05/08/2013  11:49:00       32.160       20.140       33.914       55.325       25.434       28.480     3060.875      646.881      811.114        0.355        0.226       37.945       20.546        0.293      342.592       18.109      862.343
05/08/2013  11:50:00       42.715       90.153        2.569       52.889       59.101       40.107     2797.209     3492.955     1608.608        0.893        0.395       99.761       31.885        0.102      341.854       16.856      862.364
05/08/2013  11:51:00      -20.417      212.392      -19.340       67.330      105.070       52.153     4533.275    11039.652     2719.945        3.209        0.915      213.371       56.965        0.071      341.558       16.354      862.355
05/08/2013  11:52:00      -20.499      257.282      -30.225       50.368       68.201       43.182     2536.916     4651.423     1864.714        3.829        0.453      258.097       30.230        0.014      341.418       16.112      862.356
05/08/2013  11:53:00      -44.684       87.043        4.043       38.091       69.652       39.246     1450.961     4851.353     1540.249        0.871        0.392       97.842       43.830        0.201      342.074       17.231      862.367
05/08/2013  11:54:00      -36.233      254.098      -34.733       40.379       59.873       32.380     1630.478     3584.820     1048.452        3.667        0.313      256.669       26.126        0.010      341.307       15.926      862.354
05/08/2013  11:55:00      -23.604      229.025      -14.155       40.373       82.304       39.134     1629.997     6774.003     1531.437        3.157        0.497      230.238       44.354        0.037      341.550       16.339      862.340
05/08/2013  11:56:00      -39.243      121.153      -12.958       45.821       57.089       37.424     2099.568     3259.201     1400.557        1.157        0.338      127.350       27.236        0.046      341.841       16.835      862.332
05/08/2013  11:57:00       87.359      176.640      -10.520       82.940      103.834       56.688     6879.019    10781.487     3213.484        2.991        1.044      197.061       56.386        0.082      341.653       16.511      862.312
05/08/2013  11:58:00      158.666      145.403        6.331       72.783       79.169       59.912     5297.308     6267.762     3589.466        3.075        0.758      215.214       47.208        0.048      341.459       16.183      862.303
05/08/2013  11:59:00       60.404      200.087      -16.822       90.412       88.501       55.486     8174.361     7832.489     3078.671        3.152        0.954      209.006       44.132        0.045      341.260       15.847      862.312
05/08/2013  12:00:00      -28.440      147.739      -19.326       25.624       49.485       27.238      656.566     2448.810      741.883        1.343        0.192      150.451       27.523        0.033      341.336       15.978      862.304
05/08/2013  12:01:00      -38.265      176.564      -19.693       29.012       46.643       31.912      841.675     2175.535     1018.395        1.853        0.202      180.663       28.486        0.025      341.350       16.002      862.289
05/08/2013  12:02:00       -0.932      106.630      -26.556       43.471       65.759       27.912     1889.719     4324.232      779.106        0.953        0.350      106.634       23.313        0.048      341.399       16.084      862.280
05/08/2013  12:03:00       89.126       71.816       19.972       67.332       45.051       42.656     4533.539     2029.633     1819.515        1.094        0.419      114.459       13.954        0.015      341.563       16.361      862.246
05/08/2013  12:04:00       87.231      108.928       57.329       57.208       37.412       46.315     3272.741     1399.638     2145.053        1.479        0.341      139.551       15.240        0.012      341.648       16.508      862.229
05/08/2013  12:05:00      -86.120      141.999      -20.630       70.045       75.189       37.406     4906.334     5653.312     1399.212        1.998        0.598      166.073       34.222        0.042      341.868       16.878      862.229
05/08/2013  12:06:00      -18.077      220.815      -24.215       50.212       92.526       40.792     2521.208     8561.091     1664.018        3.121        0.637      221.554       46.910        0.045      341.573       16.377      862.224
05/08/2013  12:07:00      -18.188      142.038      -14.927       30.216       59.604       32.341      913.037     3552.604     1045.913        1.312        0.276      143.197       28.378        0.039      341.444       16.161      862.218
05/08/2013  12:08:00        8.132       32.305        7.799       38.069       31.281       27.168     1449.226      978.497      738.117        0.217        0.158       33.312       20.143        0.366      342.078       17.237      862.196
05/08/2013  12:09:00       42.320      -48.778       12.827       31.321       50.740       27.674      981.032     2574.560      765.838        0.433        0.216       64.578       26.035        0.163      341.999       17.103      862.189
05/08/2013  12:10:00       32.562      -66.324       14.280       56.505       58.000       35.699     3192.856     3364.045     1274.405        0.675        0.392       73.886       34.859        0.223      342.497       17.949      862.176
05/08/2013  12:11:00       71.125      -45.277       18.612       47.860       68.524       47.269     2290.571     4695.482     2234.386        0.834        0.461       84.314       31.281        0.138      342.041       17.176      862.189
05/08/2013  12:12:00      165.423      104.480       56.948       68.337       54.797       58.417     4669.948     3002.726     3412.488        2.630        0.554      195.655       48.371        0.061      341.732       16.647      862.182
05/08/2013  12:13:00       36.427       79.752      105.864       71.423       67.963       53.686     5101.215     4618.904     2882.166        1.575        0.630       87.677       44.379        0.256      342.108       17.287      862.164
05/08/2013  12:14:00      201.865      126.599       21.196       73.659       51.306       48.617     5425.641     2632.300     2363.651        3.382        0.521      238.279       22.495        0.009      341.447       16.163      862.150
05/08/2013  12:15:00       56.252       45.115       63.795       83.886       78.707       58.416     7036.826     6194.868     3412.470        1.295        0.832       72.108       34.193        0.225      342.337       17.676      862.118
05/08/2013  12:16:00       -5.459        2.911       38.992       48.373       52.708       42.017     2339.987     2778.133     1765.414        0.422        0.344        6.186       26.333       18.120      342.804       18.471      862.106
05/08/2013  12:17:00       85.653       -4.274       25.784       76.022       54.540       39.012     5779.278     2974.599     1521.925        0.915        0.514       85.759       30.483        0.126      342.094       17.265      862.100
05/08/2013  12:18:00       34.506      -17.524       34.984       44.837       77.997       37.977     2010.363     6083.561     1442.232        0.613        0.477       38.701       39.333        1.033      342.399       17.781      862.092
05/08/2013  12:19:00       74.940     -205.771      -23.233       64.958       79.035       39.076     4219.553     6246.493     1526.898        3.024        0.600      218.992       37.229        0.029      341.732       16.646      862.082
05/08/2013  12:20:00       13.633      -85.360       13.803       58.509       71.043       44.982     3423.355     5047.040     2023.419        0.908        0.525       86.442       43.967        0.259      341.948       17.016      862.052
05/08/2013  12:21:00      -23.645       10.994       17.573       31.709       35.615       43.362     1005.453     1268.463     1880.268        0.257        0.208       26.076       26.927        1.066      342.560       18.055      862.043
05/08/2013  12:22:00      -23.299      -31.893       -0.300       33.102       32.737       25.654     1095.710     1071.729      658.103        0.219        0.141       39.497       14.734        0.139      341.939       17.001      862.025
05/08/2013  12:23:00      -15.283      -31.124       -9.935       41.231       51.848       36.218     1699.991     2688.205     1311.722        0.350        0.285       34.673       21.868        0.398      342.017       17.133      862.029
05/08/2013  12:24:00      127.055     -147.200      -17.158       82.371      120.192       51.701     6784.908    14446.220     2672.962        3.100        1.195      194.450       72.298        0.138      341.704       16.599      861.994
05/08/2013  12:25:00       19.799      -31.684       32.483       56.363       48.058       29.633     3176.736     2309.574      878.144        0.441        0.318       37.361       23.705        0.403      342.256       17.540      861.973
05/08/2013  12:26:00       22.780      -22.963       10.709       34.452       32.129       28.571     1186.960     1032.289      816.320        0.210        0.152       32.345       24.148        0.557      342.172       17.397      861.949
05/08/2013  12:27:00       35.054        8.181       37.226       56.726       74.418       30.330     3217.845     5537.999      919.926        0.618        0.484       35.996       31.936        0.787      342.407       17.796      861.961
05/08/2013  12:28:00       12.236      -37.370       14.648       77.149       83.938       57.129     5951.949     7045.621     3263.698        0.901        0.813       39.322       50.163        1.627      342.223       17.483      861.931
05/08/2013  12:29:00      101.466      -11.627       91.906      102.497      134.439       77.919    10505.615    18073.740     6071.338        2.676        1.733      102.130       72.284        0.501      342.415       17.808      861.902
05/08/2013  12:30:00      146.330     -162.339       -3.877       95.609      124.964       69.925     9141.015    15616.115     4889.473        3.871        1.482      218.555       67.857        0.096      342.335       17.669      861.886
05/08/2013  12:31:00      149.086     -156.360        2.755      125.367      199.062      121.400    15716.939    39625.556    14738.070        5.837        3.504      216.044      140.114        0.421      342.350       17.695      861.862
05/08/2013  12:32:00      119.262      -86.676       34.189       87.232      113.313       69.220     7609.338    12839.783     4791.422        2.407        1.262      147.432       75.490        0.262      342.393       17.770      861.860
05/08/2013  12:33:00      114.165      -31.775       83.480      100.104      101.961       82.344    10020.793    10396.012     6780.468        2.410        1.360      118.505       54.444        0.211      342.609       18.139      861.841
05/08/2013  12:34:00      200.667     -307.414      -48.614       97.075      112.104       72.200     9423.560    12567.319     5212.824        8.216        1.360      367.111       75.441        0.042      341.887       16.909      861.838
05/08/2013  12:35:00      180.047     -254.582      -58.569      135.739      115.999       68.412    18425.019    13455.852     4680.253        6.860        1.828      311.816       63.036        0.041      342.027       17.147      861.831
05/08/2013  12:36:00       80.464      -82.976       34.801       81.110      168.505       62.354     6578.851    28393.828     3888.044        2.671        1.943      115.583       68.332        0.350      342.613       18.142      861.833
05/08/2013  12:37:00      153.794      101.823       25.991       90.192       78.089       59.105     8134.625     6097.870     3493.364        2.621        0.886      184.447       59.563        0.104      342.023       17.141      861.826
05/08/2013  12:38:00      134.703     -220.241      -20.386      118.071      158.414       77.928    13940.749    25094.881     6072.782        5.608        2.255      258.168       83.730        0.105      342.404       17.788      861.816
05/08/2013  12:39:00       35.831       -2.482       64.552       69.468      104.062       44.130     4825.759    10828.954     1947.470        1.153        0.880       35.917       42.181        1.379      342.590       18.107      861.824
05/08/2013  12:40:00       -9.561       14.074       37.979       34.800       42.016       32.404     1211.050     1765.352     1050.028        0.288        0.201       17.014       11.810        0.482      342.765       18.405      861.816
05/08/2013  12:41:00        6.108       23.380       25.308       48.351       49.752       30.403     2337.801     2475.252      924.318        0.348        0.287       24.165       16.538        0.468      342.506       17.963      861.822
05/08/2013  12:42:00      122.749      -59.001        5.241      157.857      204.864       90.265    24918.723    41969.240     8147.756        4.679        3.752      136.193      124.716        0.839      342.214       17.467      861.799
05/08/2013  12:43:00      247.264     -247.450      -60.861      118.874      120.135       64.877    14130.991    14432.375     4209.086        7.942        1.639      349.816       54.017        0.024      341.864       16.869      861.782
05/08/2013  12:44:00      126.846      -47.468       75.515      137.501      204.805      118.873    18906.443    41945.069    14130.808        4.950        3.749      135.437      152.884        1.274      342.214       17.464      861.791
05/08/2013  12:45:00      166.809     -101.855       40.794      128.578      172.730      102.645    16532.249    29835.553    10535.932        4.837        2.845      195.447      116.109        0.353      342.156       17.367      861.797
05/08/2013  12:46:00       29.445       29.795       88.524       60.319       80.302       38.702     3638.356     6448.469     1497.868        1.059        0.579       41.889       28.132        0.451      342.287       17.592      861.829
05/08/2013  12:47:00       25.004       16.445       53.602       62.042       69.939       43.999     3849.269     4891.396     1935.871        0.722        0.534       29.927       25.375        0.719      342.623       18.162      861.832
05/08/2013  12:48:00       33.205       -6.259       64.606       61.830       96.932       59.072     3822.947     9395.852     3489.489        1.101        0.835       33.790       54.158        2.569      342.795       18.455      861.837
05/08/2013  12:49:00      100.902       84.679       67.745       61.509       57.709       54.759     3783.392     3330.287     2998.542        1.603        0.506      131.726       23.309        0.031      342.008       17.116      861.858
05/08/2013  12:50:00       91.931      -86.550       37.725       74.349       82.904       63.890     5527.717     6873.028     4081.918        1.692        0.824      126.263       53.325        0.178      342.151       17.361      861.868
05/08/2013  12:51:00       77.960        5.567       77.496       71.561       66.749       51.228     5120.962     4455.369     2624.334        1.216        0.610       78.158       38.060        0.237      342.081       17.240      861.886
05/08/2013  12:52:00       98.362       32.190       41.330       83.257       71.639       43.799     6931.722     5132.099     1918.335        1.320        0.699      103.495       31.203        0.091      341.960       17.034      861.877
05/08/2013  12:53:00      129.223       82.066       72.667       58.353       54.370       43.779     3405.034     2956.116     1916.600        1.849        0.414      153.080       28.584        0.035      341.796       16.757      861.883
05/08/2013  12:54:00      173.460      116.435       46.981       84.405       58.632       60.153     7124.230     3437.721     3618.401        3.001        0.709      208.915       44.513        0.045      341.842       16.832      861.865
05/08/2013  12:55:00      176.597      124.818       39.409       74.854       58.164       68.178     5603.069     3383.031     4648.187        3.097        0.682      216.255       42.949        0.039      341.918       16.961      861.857
05/08/2013  12:56:00      168.361      122.018       21.679       65.658       33.929       35.227     4310.981     1151.154     1240.963        2.520        0.335      207.928       15.031        0.005      341.818       16.792      861.860
05/08/2013  12:57:00      103.968      123.205        8.804       91.583       65.135       49.142     8387.359     4242.528     2414.944        2.055        0.752      161.211       42.911        0.071      341.859       16.862      861.859
05/08/2013  12:58:00       11.123       91.286        4.451       35.949       77.258       32.814     1292.312     5968.811     1076.779        0.841        0.417       91.961       37.813        0.169      342.335       17.674      861.853
05/08/2013  12:59:00       15.589      152.922       -5.751       48.305      137.059       43.559     2333.383    18785.212     1897.383        2.333        1.151      153.715       58.295        0.144      342.354       17.704      861.836
05/08/2013  13:00:00       64.230       56.036       17.591       64.966       39.526       43.804     4220.544     1562.310     1918.778        0.764        0.385       85.238       30.043        0.124      342.493       17.941      861.822
05/08/2013  13:01:00       31.344      137.500       -9.213       62.779       76.137       50.391     3941.200     5796.918     2539.233        1.612        0.614      141.027       48.715        0.119      342.226       17.488      861.812
05/08/2013  13:02:00       56.480       71.265       28.017       90.220       60.126       30.248     8139.651     3615.098      914.952        1.086        0.633       90.933       32.639        0.129      342.508       17.966      861.798
05/08/2013  13:03:00       96.975       77.883       -1.240       38.309       32.577       32.561     1467.616     1061.269     1060.205        0.953        0.179      124.378       24.224        0.038      341.817       16.793      861.793
05/08/2013  13:04:00       90.816      118.165       67.929       73.630       67.153       58.913     5421.440     4509.569     3470.733        2.011        0.670      149.032       33.000        0.049      342.357       17.709      861.782
05/08/2013  13:05:00      190.766      132.814       63.672       84.725       75.488       68.289     7178.352     5698.506     4663.352        3.781        0.877      232.446       35.765        0.024      342.045       17.177      861.786
05/08/2013  13:06:00      109.060       99.717       -7.853       97.073       49.288       35.066     9423.154     2429.347     1229.622        1.749        0.654      147.775       33.001        0.050      341.645       16.498      861.809
05/08/2013  13:07:00      -31.902       16.770      -21.436       35.142       32.596       17.287     1234.985     1062.526      298.833        0.218        0.130       36.041       11.199        0.097      341.820       16.798      861.790
05/08/2013  13:08:00       12.379       63.333        0.387       40.918       51.418       32.190     1674.264     2643.835     1036.174        0.476        0.268       64.532       14.924        0.053      342.198       17.440      861.778
05/08/2013  13:09:00       33.091       34.609        4.461       32.400       28.362       24.472     1049.777      804.426      598.894        0.238        0.123       47.883       17.931        0.140      342.409       17.798      861.766
05/08/2013  13:10:00       27.487       70.035        0.167       20.772       38.297       24.346      431.466     1466.634      592.751        0.408        0.125       75.236       23.574        0.098      342.088       17.253      861.762
05/08/2013  13:11:00      103.014       66.263        6.369       78.245       49.358       32.175     6122.349     2436.173     1035.237        1.232        0.480      122.485       22.267        0.033      342.068       17.218      861.752
05/08/2013  13:12:00      191.526       95.375       14.154       70.031       48.041       46.981     4904.291     2307.968     2207.189        2.770        0.471      213.959       31.930        0.022      341.990       17.084      861.744
05/08/2013  13:13:00       61.243       59.542       -2.669       61.936       45.373       33.974     3836.015     2058.703     1154.205        0.717        0.352       85.417       25.997        0.093      342.272       17.565      861.752
05/08/2013  13:14:00       59.210       58.969       28.277       41.577       36.627       29.300     1728.642     1341.517      858.492        0.586        0.196       83.565       12.961        0.024      342.080       17.241      861.749
05/08/2013  13:15:00      128.537       64.813       25.415       67.342       53.688       52.252     4534.908     2882.430     2730.242        1.576        0.507      143.953       40.338        0.079      342.294       17.603      861.745
05/08/2013  13:16:00      117.270       96.149       96.536       86.140       73.767       66.327     7420.033     5441.507     4399.259        2.479        0.863      151.647       52.578        0.120      341.988       17.081      861.742
05/08/2013  13:17:00       93.330      140.609      134.670       96.889       78.528       78.945     9387.456     6166.659     6232.273        3.420        1.089      168.764       61.023        0.131      342.032       17.155      861.720
05/08/2013  13:18:00      111.039       99.201      108.686       75.776       90.339       74.151     5742.058     8161.132     5498.298        2.669        0.970      148.897       61.418        0.170      341.975       17.059      861.739
05/08/2013  13:19:00       27.590       17.090       84.620       57.902       93.196       53.958     3352.648     8685.505     2911.475        1.158        0.747       32.454       58.699        3.271      342.489       17.934      861.735
05/08/2013  13:20:00        2.071     -102.313       -0.940       65.630       87.560       49.603     4307.317     7666.788     2460.438        1.245        0.722      102.334       45.877        0.201      342.250       17.527      861.758
05/08/2013  13:21:00        0.681      -24.104       52.422       75.569       73.070       45.072     5710.722     5339.244     2031.529        0.820        0.654       24.114       44.255        3.368      342.560       18.054      861.741
05/08/2013  13:22:00      -23.520      -22.000       14.134       49.852       64.544       41.014     2485.196     4165.888     1682.118        0.478        0.417       32.205       38.364        1.419      342.648       18.206      861.740
05/08/2013  13:23:00       13.914      -65.436       15.302       62.142       84.818       59.209     3861.672     7194.042     3505.731        0.963        0.728       66.899       54.912        0.674      342.830       18.515      861.716
05/08/2013  13:24:00       24.089      -88.829       29.938       60.278       89.736       51.670     3633.462     8052.573     2669.786        1.186        0.718       92.038       53.623        0.339      342.740       18.361      861.710
05/08/2013  13:25:00       34.873        2.776       76.009       73.587       90.783       50.811     5415.081     8241.498     2581.792        1.162        0.812       34.983       61.996        3.141      342.656       18.218      861.707
05/08/2013  13:26:00      146.541      118.479       74.845      103.994       83.535       48.587    10814.850     6978.158     2360.661        3.063        1.008      188.445       35.326        0.035      342.449       17.865      861.695
05/08/2013  13:27:00      117.581       11.468       69.989      104.401      129.770       70.582    10899.511    16840.170     4981.766        2.578        1.636      118.139       74.354        0.396      342.596       18.115      861.669
05/08/2013  13:28:00      143.277       31.977       65.251      103.675      107.900       81.341    10748.552    11642.396     6616.337        2.740        1.450      146.802       69.939        0.227      342.202       17.445      861.667
05/08/2013  13:29:00       99.640       61.312       74.398      112.621       89.773       73.200    12683.601     8059.208     5358.234        2.266        1.305      116.993       62.046        0.281      342.483       17.923      861.622
05/08/2013  13:30:00       25.063      -99.298       58.794       86.570      126.514       86.198     7494.341    16005.709     7430.067        2.243        1.547      102.412       85.419        0.696      342.796       18.455      861.652
05/08/2013  13:31:00       44.457      -66.550       35.596       64.749      134.578       82.789     4192.425    18111.317     6854.006        1.841        1.458       80.034       82.176        1.054      342.655       18.214      861.660
05/08/2013  13:32:00      102.931     -106.472       32.178       81.565      154.795       89.801     6652.908    23961.442     8064.278        3.082        1.934      148.091      103.844        0.492      342.267       17.555      861.677
05/08/2013  13:33:00       95.495       -0.656       44.524       87.171      125.768       57.629     7598.829    15817.552     3321.132        1.892        1.337       95.498       52.100        0.298      342.292       17.598      861.682
05/08/2013  13:34:00      128.903     -120.920        5.005      107.614      163.961      108.310    11580.764    26883.202    11731.154        4.072        2.510      176.742      114.452        0.419      342.073       17.226      861.668
05/08/2013  13:35:00      140.652     -162.797      -18.559       83.251      121.934       68.901     6930.718    14867.858     4747.350        3.658        1.327      215.142       84.082        0.153      341.982       17.069      861.695
05/08/2013  13:36:00       80.656      -57.945       24.565       75.732      109.670       63.206     5735.345    12027.607     3995.054        1.611        1.088       99.312       74.615        0.564      342.160       17.375      861.673
05/08/2013  13:37:00        9.710      -46.290       49.368       51.918       97.686       74.649     2695.506     9542.511     5572.402        1.124        0.891       47.298       74.228        2.463      342.467       17.896      861.655
05/08/2013  13:38:00       73.359      -57.385       32.178       82.737       87.156       66.795     6845.399     7596.191     4461.632        1.430        0.945       93.137       59.995        0.415      342.685       18.267      861.653
05/08/2013  13:39:00       94.722      -53.647       47.334      102.465       72.229       55.348    10499.017     5217.093     3063.359        1.643        0.939      108.859       42.095        0.150      342.548       18.035      861.640
05/08/2013  13:40:00       40.428     -167.982       -8.758       63.397       56.039       37.487     4019.201     3140.325     1405.239        1.925        0.428      172.779       25.491        0.022      342.882       18.601      861.626
05/08/2013  13:41:00       65.992      -83.329       22.475       50.881       94.122       60.675     2588.857     8859.033     3681.456        1.346        0.756      106.295       66.429        0.391      342.666       18.235      861.628
05/08/2013  13:42:00       71.990      -72.722       40.646       77.185       78.617       46.824     5957.461     6180.617     2192.502        1.322        0.717      102.328       43.657        0.182      342.624       18.163      861.617
05/08/2013  13:43:00      164.141      119.372       80.618      147.701       81.777       69.917    21815.537     6687.508     4888.345        4.054        1.670      202.958       45.868        0.051      342.565       18.061      861.611
05/08/2013  13:44:00      258.672      164.425       97.227      109.942       88.414       79.413    12087.317     7817.044     6306.371        6.480        1.311      306.507       64.644        0.044      342.295       17.600      861.602
05/08/2013  13:45:00       82.250       38.734        1.281       63.250       63.773       39.752     4000.561     4066.934     1580.212        0.896        0.482       90.914       22.278        0.060      342.317       17.642      861.594
05/08/2013  13:46:00      107.772       68.483       27.314       92.423       82.299       58.896     8542.008     6773.087     3468.702        1.791        0.939      127.690       26.269        0.042      342.457       17.879      861.575
05/08/2013  13:47:00      133.002       66.000       51.130       67.372       90.445       48.530     4538.994     8180.220     2355.204        1.986        0.754      148.478       46.028        0.096      342.549       18.033      861.573
05/08/2013  13:48:00       56.011      -49.823       46.628       74.212      133.946       63.360     5507.452    17941.499     4014.469        1.762        1.373       74.964       78.298        1.091      343.007       18.814      861.590
05/08/2013  13:49:00       62.645      -66.306       23.047       76.795       96.584       61.946     5897.452     9328.530     3837.276        1.395        0.953       91.219       63.265        0.481      342.868       18.577      861.592
05/08/2013  13:50:00      -12.322      -55.246       35.952       47.614       71.312       62.483     2267.109     5085.363     3904.101        0.787        0.563       56.604       30.409        0.289      343.069       18.921      861.581
05/08/2013  13:51:00      100.218     -140.881        7.490      109.016      123.141       70.869    11884.457    15163.610     5022.471        3.100        1.604      172.891       76.272        0.195      342.645       18.197      861.580
05/08/2013  13:52:00       15.213      -89.217       18.206       80.031       87.063       61.888     6404.909     7580.034     3830.162        1.317        0.891       90.505       57.897        0.409      343.035       18.863      861.578
05/08/2013  13:53:00      -62.445     -165.682       -3.653       68.680      105.228       42.477     4716.880    11072.940     1804.320        2.448        0.880      177.059       51.345        0.084      342.852       18.550      861.586
05/08/2013  13:54:00      -11.947      -63.306       23.326       59.097       48.667       38.342     3492.439     2368.510     1470.138        0.601        0.367       64.424       30.881        0.230      343.056       18.898      861.588
05/08/2013  13:55:00       36.569     -104.568       -7.393       82.131      142.284       56.667     6745.504    20244.800     3211.202        2.126        1.510      110.778       53.835        0.236      343.077       18.932      861.588
05/08/2013  13:56:00      151.077     -153.778        2.923      100.691      111.414       71.952    10138.587    12413.139     5177.159        3.710        1.386      215.573       68.202        0.100      342.830       18.510      861.570
05/08/2013  13:57:00       75.981     -112.957       22.943       88.920      101.371       71.597     7906.683    10276.065     5126.062        2.118        1.165      136.134       56.733        0.174      342.716       18.320      861.567
05/08/2013  13:58:00       77.144      -13.728       48.794       90.636      112.812       57.946     8214.813    12726.468     3357.761        1.641        1.215       78.356       47.505        0.368      342.857       18.559      861.583
05/08/2013  13:59:00       70.106       27.995       88.322       85.181      103.801       68.285     7255.789    10774.572     4662.856        1.809        1.135       75.489       65.994        0.764      342.663       18.229      861.598
05/08/2013  14:00:00       33.428      -66.162       28.899       46.245       80.501       54.741     2138.576     6480.375     2996.606        0.897        0.581       74.128       46.886        0.400      342.667       18.236      861.599
05/08/2013  14:01:00       79.967      -41.085        7.831       54.228       45.138       39.734     2940.718     2037.420     1578.766        0.735        0.328       89.904       34.574        0.148      342.351       17.700      861.586
05/08/2013  14:02:00      -81.358      -17.856       -7.526       77.804       39.950       23.884     6053.504     1596.041      570.457        0.761        0.411       83.294       21.402        0.066      342.296       17.606      861.556
05/08/2013  14:03:00     -152.834      -59.247      -27.429       29.374       43.927       21.284      862.844     1929.542      453.029        1.543        0.162      163.915       19.007        0.013      342.084       17.246      861.527
05/08/2013  14:04:00     -119.067        4.086      -25.235       33.809       26.696       18.130     1143.024      712.675      328.707        0.851        0.109      119.137       12.398        0.011      341.917       16.963      861.501
05/08/2013  14:05:00      -30.681      -27.630       -1.420       37.892       37.729       26.010     1435.824     1423.449      676.543        0.262        0.177       41.288       20.236        0.240      342.601       18.125      861.501
05/08/2013  14:06:00      -38.321      -79.130       27.225       52.147       49.752       31.436     2719.285     2475.291      988.230        0.733        0.309       87.921       11.689        0.018      342.817       18.493      861.512
05/08/2013  14:07:00       77.792      -86.358       25.083      101.974       97.342       60.532    10398.599     9475.416     3664.165        1.883        1.177      116.230       55.725        0.230      342.916       18.661      861.484
05/08/2013  14:08:00      -26.933     -111.861        3.952      113.173       68.580       51.835    12808.200     4703.264     2686.839        1.672        1.010      115.058       34.108        0.088      342.989       18.784      861.509
05/08/2013  14:09:00      114.747     -180.549      -18.952      190.687      159.055       78.664    36361.536    25298.377     6188.058        5.697        3.392      213.927       85.061        0.158      342.887       18.608      861.493
05/08/2013  14:10:00       20.481      -74.655       88.865      101.391      148.684      100.905    10280.163    22107.043    10181.752        2.822        2.128       77.413       97.905        1.599      343.209       19.160      861.484
05/08/2013  14:11:00      100.294     -261.597      -23.447      167.385      125.803       88.639    28017.820    15826.359     7856.809        6.536        2.585      280.164       97.666        0.122      342.810       18.477      861.505
05/08/2013  14:12:00       66.878       -9.733       90.160       82.939      131.013       89.602     6878.867    17164.288     8028.550        2.238        1.604       67.583       92.477        1.872      342.764       18.401      861.536
05/08/2013  14:13:00       61.745      -61.948       19.205      116.143      120.175       71.386    13489.085    14441.932     5095.956        2.052        1.651       87.464       80.778        0.853      342.578       18.085      861.534
05/08/2013  14:14:00       47.558      -64.548       32.996       64.964      133.033       83.982     4220.263    17697.782     7052.975        1.824        1.449       80.177       89.660        1.251      342.750       18.377      861.515
05/08/2013  14:15:00      224.997     -137.970        7.639      134.663      140.537       77.906    18134.191    19750.674     6069.299        5.683        2.198      263.931       82.843        0.099      342.777       18.422      861.507
05/08/2013  14:16:00      123.248      -91.355       39.621      113.375      138.395       80.661    12853.942    19153.062     6506.236        3.180        1.926      153.414       69.006        0.202      343.281       19.280      861.491
05/08/2013  14:17:00       21.652      163.700      241.651       99.792      173.509       93.634     9958.484    30105.490     8767.313        6.724        2.442      165.126      100.110        0.368      342.730       18.340      861.501
05/08/2013  14:18:00       57.999       58.317       99.455       67.582       86.332       75.204     4567.342     7453.142     5655.609        1.716        0.884       82.249       40.004        0.237      342.689       18.274      861.537
05/08/2013  14:19:00      121.861       62.642       35.897       69.171       53.826       33.248     4784.612     2897.257     1105.448        1.442        0.439      137.019       28.988        0.045      342.362       17.719      861.521
05/08/2013  14:20:00       47.861      -15.630       21.882       54.601       83.977       55.877     2981.306     7052.122     3122.244        0.808        0.658       50.349       57.462        1.302      342.616       18.152      861.514
05/08/2013  14:21:00       69.263      -89.818       -2.547       76.380       49.316       46.347     5833.915     2432.113     2148.053        1.164        0.521      113.423       28.901        0.065      342.537       18.016      861.524
05/08/2013  14:22:00       35.353     -106.579       44.114       61.996      124.697       67.517     3843.561    15549.300     4558.483        1.925        1.198      112.289       68.405        0.371      342.998       18.799      861.538
05/08/2013  14:23:00      162.834     -198.417       10.759      110.497      152.156       85.967    12209.647    23151.398     7390.308        5.437        2.138      256.679      100.727        0.154      342.586       18.097      861.524
05/08/2013  14:24:00      206.581     -182.300       21.853      109.013      128.745       74.991    11883.877    16575.162     5623.702        5.523        1.704      275.516       76.760        0.078      342.546       18.030      861.510
05/08/2013  14:25:00      174.732     -122.815       52.925      150.655      192.935      106.290    22696.826    37224.085    11297.577        5.981        3.561      213.576      113.123        0.281      342.711       18.311      861.501
05/08/2013  14:26:00      192.491     -127.928       36.755      144.555      198.246      126.762    20896.259    39301.574    16068.588        6.551        3.813      231.124      147.061        0.405      342.675       18.249      861.507
05/08/2013  14:27:00      112.970      -24.294       68.054      132.501      166.752      109.346    17556.451    27806.290    11956.488        3.764        2.866      115.552      119.636        1.072      342.933       18.689      861.490
05/08/2013  14:28:00      107.271     -258.419       -4.971      118.935      142.874       84.060    14145.489    20412.977     7066.032        5.996        2.081      279.799       80.346        0.082      342.712       18.311      861.516
05/08/2013  14:29:00      249.113     -364.760      -53.791       93.136       87.853       57.136     8674.314     7718.074     3264.473       10.883        0.983      441.710       54.240        0.015      342.217       17.470      861.525
05/08/2013  14:30:00      175.924     -138.672       17.682      119.954      215.913      118.797    14389.015    46618.465    14112.738        6.279        3.756      224.007      139.941        0.390      342.485       17.925      861.513
05/08/2013  14:31:00       61.733       -8.583       73.922       96.342      132.223       94.606     9281.732    17482.864     8950.253        2.253        1.786       62.327       93.586        2.255      342.790       18.445      861.512
05/08/2013  14:32:00      101.770     -192.502       22.070       77.810      164.695       78.079     6054.371    27124.595     6096.375        4.358        1.964      217.748       99.708        0.210      342.630       18.170      861.509
05/08/2013  14:33:00       37.085     -232.264      -32.021       59.876       53.914       42.084     3585.078     2906.717     1771.078        3.230        0.413      235.206       24.937        0.011      342.184       17.411      861.560
05/08/2013  14:34:00      -33.063      -74.182      -24.578       52.145       84.869       32.386     2719.082     7202.663     1048.858        0.908        0.549       81.216       30.396        0.140      342.254       17.534      861.540
05/08/2013  14:35:00      -95.733      -66.729        2.737       51.300       52.444       29.564     2631.715     2750.355      874.016        0.994        0.313      116.694       30.066        0.066      342.841       18.533      861.536
05/08/2013  14:36:00     -142.899     -121.804       -6.350       69.881       68.511       41.189     4883.305     4693.752     1696.555        2.328        0.564      187.767       18.818        0.010      342.578       18.084      861.531
05/08/2013  14:37:00      -66.075      -69.361        5.308       77.723       56.672       31.405     6040.933     3211.723      986.246        0.972        0.512       95.796       26.487        0.076      343.025       18.846      861.525
05/08/2013  14:38:00      -23.383      -33.495       22.822       85.760       90.774       40.313     7354.737     8239.860     1625.136        0.970        0.861       40.850       44.531        1.188      343.180       19.110      861.534
05/08/2013  14:39:00      -58.760      -27.995       19.293       77.952       64.599       40.465     6076.466     4173.046     1637.389        0.825        0.594       65.088       38.151        0.344      343.259       19.246      861.523
05/08/2013  14:40:00      -49.462      -41.451        2.337       70.522       60.644       41.332     4973.387     3677.679     1708.295        0.726        0.518       64.535       31.917        0.245      343.201       19.146      861.526
05/08/2013  14:41:00      -45.055      -64.928        0.196       60.105       54.246       39.604     3612.645     2942.639     1568.456        0.718        0.406       79.029       25.506        0.104      343.373       19.439      861.517
05/08/2013  14:42:00      -39.195      -84.509       17.483       63.849       83.909       44.393     4076.693     7040.694     1970.776        1.103        0.654       93.156       28.640        0.095      343.168       19.090      861.527
05/08/2013  14:43:00      133.944     -202.567       -4.022      166.009      142.531       96.305    27559.105    20315.005     9274.558        5.806        2.857      242.846       61.993        0.065      342.754       18.384      861.529
05/08/2013  14:44:00      216.254     -229.064        6.770      189.219      241.704      133.159    35803.814    58420.719    17731.239       10.560        5.598      315.018      174.731        0.308      342.633       18.176      861.474
05/08/2013  14:45:00      111.254     -221.817      -41.140      110.957      131.756       81.232    12311.370    17359.734     6598.636        4.977        1.813      248.153       71.060        0.082      342.943       18.706      861.514
05/08/2013  14:46:00      120.531      -94.296       72.185      163.651      206.856      138.717    26781.688    42789.422    19242.380        5.871        4.441      153.034      146.746        0.920      342.923       18.671      861.484
05/08/2013  14:47:00       -6.465      -11.210       77.899       66.929      118.413       81.342     4479.436    14021.657     6616.508        1.567        1.256       12.941       80.458       38.656      343.371       19.435      861.502
05/08/2013  14:48:00       35.757      -59.110       54.490       82.095       94.586       71.699     6739.611     8946.582     5140.792        1.428        1.041       69.084       55.799        0.652      343.375       19.442      861.514
05/08/2013  14:49:00      156.845      -32.682       73.070      124.831      129.583       82.094    15582.764    16791.843     6739.382        3.505        1.956      160.214       90.734        0.321      342.758       18.390      861.490
05/08/2013  14:50:00      142.959       -6.762      126.322      164.169      183.226      128.123    26951.395    33571.943    16415.407        5.668        3.847      143.119      139.446        0.949      342.873       18.585      861.399
05/08/2013  14:51:00      117.818     -126.378       50.469      130.508      223.682      113.861    17032.411    50033.677    12964.401        5.620        4.002      172.779      153.513        0.789      342.629       18.169      861.460
05/08/2013  14:52:00       41.352       -4.297       64.667       89.386       94.074       57.973     7989.834     8849.969     3360.913        1.305        1.010       41.575       64.405        2.400      343.047       18.884      861.471
05/08/2013  14:53:00      -39.324     -102.722      -14.154       91.782       64.788       39.845     8423.999     4197.474     1587.585        1.325        0.710      109.992       34.330        0.097      343.004       18.809      861.467
05/08/2013  14:54:00       -7.889       -3.125       40.596       69.790       74.369       36.523     4870.635     5530.676     1333.941        0.673        0.587        8.485       29.174       11.822      343.374       19.441      861.445
05/08/2013  14:55:00        2.998       85.180       80.492       46.023       63.704       65.231     2118.079     4058.244     4255.116        1.209        0.522       85.233       22.488        0.070      343.432       19.539      861.416
05/08/2013  14:56:00      122.991       60.093       22.173       35.141       28.140       32.612     1234.918      791.832     1063.562        1.116        0.155      136.886       23.459        0.029      342.689       18.275      861.416
05/08/2013  14:57:00       60.751        9.341        7.213       45.089       35.117       28.333     2033.051     1233.177      802.779        0.395        0.203       61.465       28.743        0.219      342.471       17.903      861.411
05/08/2013  14:58:00      -76.498     -117.005       -7.243      106.272       54.309       47.390    11293.741     2949.495     2245.768        1.804        0.824      139.793       40.647        0.085      343.161       19.076      861.402
05/08/2013  14:59:00      -49.154      -48.354       23.062       74.858       74.834       42.306     5603.718     5600.141     1789.793        0.914        0.650       68.950       41.277        0.358      343.434       19.544      861.357
05/08/2013  15:00:00       -2.250     -206.699      -13.200      142.902      120.023       49.634    20421.030    14405.518     2463.568        4.009        1.865      206.712       53.639        0.067      343.061       18.904      861.347
05/08/2013  15:01:00       90.671     -209.862        0.343      125.654      131.618       69.726    15788.944    17323.264     4861.737        4.511        1.899      228.611       76.218        0.111      342.965       18.742      861.329
05/08/2013  15:02:00       66.952     -113.257       38.824       73.961      132.943       75.901     5470.193    17673.918     5760.942        2.386        1.445      131.566       74.029        0.317      343.271       19.263      861.309
05/08/2013  15:03:00       36.973      -17.204       84.110       91.651      136.558       87.994     8399.960    18648.121     7742.970        2.176        1.740       40.780      103.047        6.385      343.492       19.639      861.306
05/08/2013  15:04:00       63.430      -56.445       69.124       79.602      160.788       96.001     6336.488    25852.757     9216.110        2.669        2.070       84.908      112.497        1.755      343.553       19.744      861.289
05/08/2013  15:05:00       89.393      -83.838       58.921      111.345      175.174      100.361    12397.722    30686.004    10072.244        3.581        2.658      122.556      123.391        1.014      343.271       19.264      861.316
05/08/2013  15:06:00       19.051       -4.554       34.558       78.039       65.789       42.308     6090.044     4328.243     1789.935        0.689        0.610       19.587       34.445        3.092      343.221       19.181      861.317
05/08/2013  15:07:00       41.802      -91.051       38.046       89.423      144.071       78.162     7996.472    20756.380     6109.233        2.317        1.743      100.188       90.867        0.823      343.236       19.205      861.319
05/08/2013  15:08:00      112.417      -43.742       60.735       97.438      123.036       74.292     9494.074    15137.819     5519.312        2.419        1.508      120.627       84.729        0.493      343.045       18.880      861.316
05/08/2013  15:09:00       22.956     -135.221      -10.563       49.048      108.054       37.090     2405.736    11675.676     1375.663        1.719        0.773      137.155       11.910        0.008      342.892       18.618      861.301
05/08/2013  15:10:00       23.494       -4.325       32.356       49.292       50.035       49.525     2429.705     2503.524     2452.714        0.450        0.369       23.889       29.979        1.575      343.669       19.945      861.287
05/08/2013  15:11:00       83.729       30.161       50.238       69.512       64.847       56.363     4831.973     4205.103     3176.816        1.133        0.611       88.996       54.386        0.373      343.103       18.978      861.291
05/08/2013  15:12:00       66.435       99.631      145.168      103.671      160.159      126.677    10747.616    25650.893    16047.018        4.392        2.622      119.749      136.756        1.304      343.218       19.172      861.267
05/08/2013  15:13:00      166.888      125.990      115.468      132.057       79.163       72.586    17439.003     6266.798     5268.678        4.301        1.449      209.106       66.997        0.103      343.601       19.825      861.267
05/08/2013  15:14:00       61.524        5.422       65.105       69.866      116.673       70.038     4881.212    13612.605     4905.349        1.572        1.170       61.763       68.400        1.226      343.515       19.681      861.249
05/08/2013  15:15:00      124.784     -182.512       -5.293       87.502      101.628       59.615     7656.673    10328.320     3553.948        3.522        1.077      221.092       34.467        0.024      343.027       18.845      861.257
05/08/2013  15:16:00      163.322     -267.410      -29.253       75.445       83.713       45.290     5691.946     7007.871     2051.202        5.689        0.738      313.341       35.264        0.013      342.735       18.348      861.270
05/08/2013  15:17:00      120.673      -49.645       43.503       77.140       82.467       68.908     5950.641     6800.726     4748.318        1.821        0.875      130.486       62.737        0.231      342.914       18.657      861.260
05/08/2013  15:18:00      -36.040       70.086        1.326       24.502       43.849       29.587      600.346     1922.769      875.404        0.480        0.170       78.809       31.193        0.157      342.993       18.792      861.232
05/08/2013  15:19:00      -39.574       10.888        7.833       66.137       65.338       42.151     4374.042     4269.045     1776.684        0.608        0.521       41.045       38.059        0.860      343.422       19.522      861.190
05/08/2013  15:20:00      -35.134      -16.568       18.394       53.813       47.866       31.270     2895.860     2291.188      977.823        0.401        0.308       38.845       30.421        0.613      343.719       20.030      861.165
05/08/2013  15:21:00      -69.994      -31.607      -10.769       53.663       27.663       19.984     2879.698      765.232      399.363        0.503        0.202       76.800       18.939        0.061      342.965       18.744      861.151
05/08/2013  15:22:00      -43.937       -8.822       19.532       62.225       66.516       38.267     3871.969     4424.377     1464.369        0.607        0.488       44.814       41.428        0.855      343.065       18.915      861.144
05/08/2013  15:23:00       -7.368      -30.348       -4.802       57.008       67.451       31.140     3249.911     4549.585      969.688        0.488        0.438       31.229       18.019        0.333      343.246       19.222      861.137
05/08/2013  15:24:00      118.574     -258.789      -31.788       82.377       93.740       41.568     6785.943     8787.183     1727.879        4.967        0.865      284.661       33.497        0.014      343.004       18.808      861.133
05/08/2013  15:25:00      131.427     -277.247       -9.559       80.317      109.921       54.613     6450.819    12082.633     2982.564        5.787        1.076      306.821       58.323        0.036      342.683       18.261      861.115
05/08/2013  15:26:00       84.356      -17.978      103.744       80.692      219.818      103.450     6511.259    48319.962    10701.945        4.186        3.277       86.250      137.268        2.533      343.111       18.989      861.105
05/08/2013  15:27:00       19.601       46.637       98.090       63.555       92.670       53.836     4039.248     8587.672     2898.349        1.385        0.776       50.588       61.665        1.486      343.240       19.211      861.110
05/08/2013  15:28:00        2.966       66.730      105.859       61.548       60.999       44.299     3788.186     3720.938     1962.409        1.257        0.474       66.796       32.262        0.233      343.616       19.853      861.104
05/08/2013  15:29:00      119.740       36.039       96.305       97.267       85.582       72.871     9460.808     7324.235     5310.237        2.350        1.105      125.046       69.613        0.310      343.279       19.277      861.088
05/08/2013  15:30:00       77.675      -26.259       66.730       89.194      121.328       73.556     7955.623    14720.481     5410.553        1.963        1.404       81.994       79.796        0.947      343.312       19.333      861.066
05/08/2013  15:31:00      155.062     -156.732       11.761       93.726      102.317       72.763     8784.566    10468.852     5294.392        3.664        1.227      220.475       74.674        0.115      342.978       18.763      861.058
05/08/2013  15:32:00      161.743     -162.212       16.649       99.496      141.711       84.896     9899.510    20081.998     7207.312        4.496        1.859      229.071      103.274        0.203      343.130       19.021      861.040
05/08/2013  15:33:00      153.463       -4.206       30.490       79.183       97.974       69.947     6269.881     9598.859     4892.643        2.263        1.038      153.520       63.226        0.170      343.035       18.861      861.068
05/08/2013  15:34:00       19.244       -6.353       40.515       43.661       35.635       28.987     1906.259     1269.848      840.235        0.303        0.201       20.266       20.011        0.975      343.425       19.528      861.070
05/08/2013  15:35:00      -47.910        5.594       21.554       44.553       48.515       33.868     1984.967     2353.721     1147.011        0.414        0.274       48.235       28.447        0.348      343.500       19.656      861.054
05/08/2013  15:36:00        4.955       62.798       16.739       39.858       38.774       31.601     1588.698     1503.455      998.617        0.417        0.205       62.993       18.801        0.089      343.428       19.532      861.022
05/08/2013  15:37:00       25.054       24.799       -3.868       43.968       48.428       31.746     1933.176     2345.230     1007.791        0.327        0.264       35.252       15.554        0.195      343.192       19.131      861.025
05/08/2013  15:38:00        0.524      155.806      -24.592       54.721       85.289       34.417     2994.430     7274.171     1184.518        1.816        0.573      155.807       14.405        0.009      343.118       19.004      860.996
05/08/2013  15:39:00       -7.824        7.948       63.429       56.399       68.719       56.359     3180.803     4722.299     3176.286        0.761        0.554       11.153       51.634       21.435      343.765       20.106      861.013
05/08/2013  15:40:00       51.623     -105.963       17.462       59.400       70.152       39.560     3528.364     4921.328     1564.967        1.210        0.501      117.869       34.924        0.088      343.166       19.087      861.008
05/08/2013  15:41:00       41.091       45.978       28.364       47.439       32.855       32.644     2250.460     1079.421     1065.636        0.450        0.220       61.664       15.492        0.063      343.392       19.472      860.998
05/08/2013  15:42:00      -48.854       11.354       17.924       39.946       30.949       38.294     1595.722      957.821     1466.445        0.343        0.201       50.156       19.427        0.150      343.256       19.240      860.973
05/08/2013  15:43:00      -32.601       10.697       -7.618       58.730       37.124       32.800     3449.201     1378.155     1075.825        0.357        0.295       34.311       23.028        0.450      343.059       18.905      860.945
05/08/2013  15:44:00       -1.881      -82.854       13.226       48.563       33.163       32.954     2358.346     1099.801     1085.956        0.579        0.227       82.876       28.033        0.114      343.097       18.969      860.939
05/08/2013  15:45:00       25.305      -22.988       21.875       35.029       33.928       34.433     1227.040     1151.083     1185.657        0.260        0.178       34.187       28.616        0.701      343.488       19.635      860.928
05/08/2013  15:46:00       66.668       -4.725       26.266       59.120       74.018       57.013     3495.116     5478.724     3250.497        0.869        0.611       66.835       46.415        0.482      343.403       19.490      860.927
05/08/2013  15:47:00       76.016      -16.937       63.748      107.634       99.021       62.307    11585.147     9805.065     3882.185        1.770        1.264       77.880       66.178        0.722      343.373       19.439      860.916
05/08/2013  15:48:00       73.924      -11.388       55.321      101.015      113.497       70.003    10204.119    12881.660     4900.383        1.832        1.399       74.796       74.562        0.994      343.663       19.932      860.907
05/08/2013  15:49:00       95.427       14.222       71.313       92.280      117.751       65.349     8515.638    13865.320     4270.455        2.052        1.333       96.481       56.569        0.344      343.769       20.114      860.908
05/08/2013  15:50:00      139.287       99.400       47.769      121.250       94.384       74.540    14701.662     8908.424     5556.213        3.036        1.458      171.118       51.824        0.092      343.330       19.364      860.892
05/08/2013  15:51:00      180.064      169.899       -4.367      143.899      102.185       66.192    20706.782    10441.761     4381.320        4.841        1.776      247.565       52.216        0.044      342.865       18.572      860.881
05/08/2013  15:52:00       88.689       92.852       18.819       79.096       82.692       59.934     6256.146     6838.020     3592.046        1.676        0.834      128.403       52.920        0.170      343.161       19.076      860.869
05/08/2013  15:53:00      134.519       73.347       94.774       96.388       77.482       66.100     9290.573     6003.387     4369.211        2.606        0.983      153.216       50.234        0.107      343.290       19.295      860.876
05/08/2013  15:54:00      151.321      120.206       15.797       80.868       66.975       62.447     6539.668     4485.611     3899.681        2.626        0.746      193.255       42.645        0.049      342.968       18.747      860.873
05/08/2013  15:55:00      163.153       93.358       47.908      122.197       92.183       49.813    14932.162     8497.729     2481.292        3.177        1.296      187.976       46.144        0.060      343.146       19.050      860.846
05/08/2013  15:56:00      151.602      119.477       83.895      165.269       94.195      103.260    27313.738     8872.663    10662.626        4.556        2.342      193.023      101.762        0.278      343.437       19.544      860.839
05/08/2013  15:57:00      125.770     -167.601        1.365      163.833      145.651       87.147    26841.115    21214.212     7594.585        4.977        2.782      209.543       98.593        0.221      343.519       19.686      860.844
05/08/2013  15:58:00      121.972     -101.405       -7.941       88.193      104.045       69.108     7778.023    10825.384     4775.877        2.430        1.169      158.620       66.084        0.174      343.200       19.143      860.841
05/08/2013  15:59:00      174.320        0.455      101.943      114.415       99.985       82.972    13090.821     9997.046     6884.365        3.537        1.499      174.320       69.645        0.160      343.375       19.440      860.833
05/08/2013  16:00:00      149.167      -81.010       11.807       84.136       93.330       68.256     7078.786     8710.436     4658.867        2.470        1.022      169.745       45.773        0.073      343.011       18.820      860.853
05/08/2013  16:01:00       67.610       15.412       40.910       71.629      103.356       57.302     5130.710    10682.369     3283.492        1.279        0.955       69.344       51.446        0.550      343.371       19.435      860.817
05/08/2013  16:02:00      172.670     -224.431      -36.285      110.321       71.010       79.451    12170.744     5042.459     6312.428        5.251        1.176      283.168       77.879        0.076      343.129       19.021      860.803
05/08/2013  16:03:00      133.651      -71.828        5.317       70.691      113.322       65.944     4997.208    12841.900     4348.640        2.262        1.109      151.729       78.183        0.266      343.203       19.149      860.820
05/08/2013  16:04:00       47.175      -22.233       44.413       86.641      123.149       67.902     7506.678    15165.601     4610.652        1.598        1.364       52.151       72.798        1.949      343.566       19.767      860.791
05/08/2013  16:05:00       23.799       17.834      103.821       62.889       78.806       52.707     3955.073     6210.444     2778.032        1.230        0.647       29.740       49.869        2.812      343.556       19.750      860.779
05/08/2013  16:06:00       40.163      -87.750       13.825       57.013       79.111       59.038     3250.481     6258.624     3485.481        1.125        0.650       96.505       62.975        0.426      343.478       19.618      860.774
05/08/2013  16:07:00       59.549     -117.679      -12.075       63.085      100.546       63.578     3979.736    10109.543     4042.131        1.783        0.907      131.888       57.010        0.187      343.321       19.349      860.779
05/08/2013  16:08:00      -25.393       12.562       19.324       56.648       71.173       45.610     3209.017     5065.623     2080.281        0.576        0.518       28.330       32.546        1.320      343.398       19.482      860.754
05/08/2013  16:09:00       56.092     -147.734        3.394       82.100      116.471       66.586     6740.410    13565.396     4433.667        2.486        1.237      158.025       60.890        0.148      343.357       19.411      860.775
05/08/2013  16:10:00      -68.320     -231.123       -9.930       73.409       92.771       49.699     5388.951     8606.513     2469.953        3.732        0.823      241.009       23.282        0.009      343.376       19.441      860.784
05/08/2013  16:11:00      -41.870     -151.627       -9.826      101.742       99.766       48.336    10351.496     9953.208     2336.403        2.374        1.132      157.302       50.971        0.105      343.536       19.716      860.790
05/08/2013  16:12:00       54.321     -143.207       -8.814       94.008       90.556       66.686     8837.562     8200.454     4447.063        2.251        1.074      153.164       58.480        0.146      343.382       19.453      860.803
05/08/2013  16:13:00      167.657     -243.700      -36.558       92.115       96.978       60.355     8485.238     9404.760     3642.767        5.518        1.077      295.801       70.824        0.057      343.058       18.899      860.796
05/08/2013  16:14:00       66.746     -110.110       26.004       82.869      104.726       61.899     6867.320    10967.544     3831.528        1.946        1.083      128.760       60.734        0.222      343.186       19.118      860.790
05/08/2013  16:15:00       39.900     -133.215      -16.489       77.485       76.593       58.026     6003.920     5866.529     3366.969        1.742        0.762      139.062       52.687        0.144      343.374       19.439      860.769
05/08/2013  16:16:00       22.994      -41.709       10.851       49.679       68.698       40.957     2467.998     4719.427     1677.456        0.562        0.443       47.628       37.354        0.615      343.485       19.630      860.775
05/08/2013  16:17:00        8.093      -34.614       21.886       44.756       69.109       42.580     2003.065     4776.065     1813.096        0.517        0.430       35.547       45.066        1.607      343.356       19.411      860.746
05/08/2013  16:18:00      -34.999     -172.674       -8.869       72.505       84.571       33.126     5256.945     7152.281     1097.319        2.231        0.675      176.185       31.521        0.032      343.132       19.027      860.738
05/08/2013  16:19:00      -74.736      -87.242       17.131       99.029       78.096       56.305     9806.810     6098.994     3170.307        1.628        0.954      114.877       58.859        0.263      343.697       19.990      860.729
05/08/2013  16:20:00     -123.625     -107.596       -4.527       74.875       64.477       36.968     5606.221     4157.313     1366.641        1.900        0.557      163.890       38.412        0.055      343.306       19.325      860.727
05/08/2013  16:21:00     -138.826      -48.510        5.162      101.374       85.464       39.663    10276.629     7304.072     1573.130        2.040        0.958      147.057       45.609        0.096      343.376       19.443      860.710
05/08/2013  16:22:00     -114.647       -5.579      -18.370       30.323       33.728       15.790      919.461     1137.592      249.324        0.791        0.115      114.783        8.625        0.006      343.111       18.993      860.706
05/08/2013  16:23:00      -35.317       21.406      -17.191       41.263       25.174       17.353     1702.632      633.735      301.117        0.232        0.132       41.298       15.805        0.146      342.970       18.753      860.705
05/08/2013  16:24:00       15.000      -78.605       22.404       67.881      123.764       67.092     4607.790    15317.571     4501.398        1.566        1.221       80.023       62.849        0.617      343.498       19.652      860.686
05/08/2013  16:25:00       24.340      -80.625       -4.460       68.698      119.824       73.551     4719.479    14357.907     5409.707        1.580        1.224       84.219       70.709        0.705      343.500       19.655      860.694
05/08/2013  16:26:00      112.529      -87.369       12.755       68.379      105.612       62.635     4675.630    11153.832     3923.180        2.010        0.988      142.465       57.891        0.165      343.122       19.009      860.708
05/08/2013  16:27:00       57.605       15.773       56.248       70.425       83.807       52.471     4959.716     7023.554     2753.204        1.073        0.737       59.726       51.793        0.752      343.406       19.494      860.705
05/08/2013  16:28:00       92.691     -114.330       30.545       96.153      156.647       83.019     9245.403    24538.172     6892.099        3.163        2.034      147.183       96.963        0.434      343.487       19.631      860.685
05/08/2013  16:29:00       58.354      -24.894       68.014       61.412      135.907       77.434     3771.414    18470.828     5995.967        1.844        1.412       63.442       97.570        2.365      343.149       19.055      860.682
05/08/2013  16:30:00       27.492      -44.617       39.728       56.660       81.363       47.573     3210.362     6619.980     2263.156        0.821        0.605       52.407       50.496        0.928      343.414       19.508      860.674
05/08/2013  16:31:00       41.496        4.570       26.964       39.692       44.351       29.509     1575.449     1966.984      870.797        0.344        0.221       41.747       17.627        0.178      343.342       19.385      860.656
05/08/2013  16:32:00       56.597     -147.486       25.357       71.409      107.410       55.856     5099.237    11536.837     3119.923        2.267        0.988      157.973       67.817        0.184      343.399       19.481      860.653
05/08/2013  16:33:00      167.247      -23.536       54.343       99.239      135.115       73.167     9848.419    18256.050     5353.482        3.246        1.673      168.895       74.531        0.195      343.487       19.630      860.644
05/08/2013  16:34:00       71.211       69.240       64.511       94.664       67.762       43.416     8961.214     4591.692     1884.913        1.473        0.772       99.324       40.842        0.169      343.339       19.380      860.651
05/08/2013  16:35:00       53.173     -163.802      -17.906       67.609       83.234       30.407     4570.914     6927.828      924.597        2.120        0.621      172.216       34.578        0.040      343.504       19.659      860.637
05/08/2013  16:36:00       14.007      -46.434       22.675       41.863       42.333       36.792     1752.486     1792.079     1353.629        0.388        0.245       48.501       23.778        0.240      343.764       20.105      860.618
05/08/2013  16:37:00       -8.508      -49.636       -2.393       72.219       46.385       45.835     5215.635     2151.559     2100.836        0.600        0.473       50.360       34.807        0.478      343.752       20.086      860.605
05/08/2013  16:38:00       52.885        9.816        7.101       60.071       52.243       31.655     3608.475     2729.317     1002.057        0.514        0.367       53.788       12.629        0.055      343.532       19.711      860.620
05/08/2013  16:39:00       72.361       73.675       -1.349       61.589       42.080       44.620     3793.194     1770.686     1990.926        0.911        0.378      103.267       33.128        0.103      343.313       19.337      860.613
05/08/2013  16:40:00       38.260       19.148       32.204       46.728       38.587       39.572     2183.468     1488.980     1565.926        0.405        0.262       42.784       24.794        0.336      343.294       19.305      860.612
05/08/2013  16:41:00      105.278       61.780       34.796       45.727       47.605       41.667     2090.998     2266.247     1736.127        1.110        0.305      122.066       20.846        0.029      343.215       19.168      860.608
05/08/2013  16:42:00       78.099       40.883       17.858       55.497       43.181       36.448     3079.967     1864.632     1328.485        0.718        0.314       88.152       22.844        0.067      343.229       19.191      860.603
05/08/2013  16:43:00      127.199       99.649       10.021       94.028       50.528       47.535     8841.331     2553.069     2259.589        1.993        0.683      161.584       32.942        0.042      343.325       19.354      860.595
05/08/2013  16:44:00      107.407       89.487       21.730      110.341       63.094       47.835    12175.245     3980.888     2288.159        1.923        0.922      139.801       17.096        0.015      343.492       19.642      860.583
05/08/2013  16:45:00      186.950      108.531       13.722      102.294       71.302       59.883    10463.988     5083.975     3586.001        3.302        0.957      216.170       45.924        0.045      343.233       19.197      860.562
05/08/2013  16:46:00      168.602      123.728       15.142       91.722       62.213       66.564     8412.860     3870.434     4430.782        3.034        0.836      209.129       54.845        0.069      343.044       18.875      860.569
05/08/2013  16:47:00       50.336       77.176       30.309       70.376       59.884       52.522     4952.756     3586.126     2758.531        1.035        0.565       92.140       34.388        0.139      343.221       19.180      860.578
05/08/2013  16:48:00      111.915      -14.089       70.067       94.067      125.961       87.484     8848.523    15866.111     7653.377        2.499        1.618      112.798       87.309        0.599      343.404       19.490      860.581
05/08/2013  16:49:00       73.138      -50.223       52.900       82.329      123.611       81.566     6778.060    15279.556     6653.050        1.969        1.436       88.721       83.671        0.889      343.404       19.489      860.578
05/08/2013  16:50:00      161.157     -229.123      -46.723      102.845      142.062       61.680    10577.188    20181.720     3804.453        5.760        1.728      280.123       66.198        0.056      343.183       19.112      860.588
05/08/2013  16:51:00       80.769      -33.308       66.238       89.525      162.187       89.686     8014.642    26304.572     8043.636        2.718        2.118       87.367      109.993        1.585      343.342       19.382      860.600
05/08/2013  16:52:00       75.549       31.580       93.379       87.291       63.093       52.529     7619.635     3980.743     2759.289        1.489        0.718       81.884       45.257        0.305      343.401       19.486      860.627
05/08/2013  16:53:00       80.569       98.893      108.901       80.645       94.034       70.841     6503.546     8842.445     5018.460        2.424        1.018      127.559       61.017        0.229      343.328       19.360      860.615
05/08/2013  16:54:00      158.969       16.680       49.245      106.559       71.262       50.723    11354.834     5078.268     2572.866        2.349        0.950      159.842       44.412        0.077      343.273       19.267      860.634
05/08/2013  16:55:00       83.197       77.608       95.613       94.235       68.425       61.961     8880.192     4682.015     3839.220        1.974        0.870      113.775       56.479        0.246      343.334       19.371      860.645
05/08/2013  16:56:00       90.366       54.061       78.643       96.852       75.430       66.997     9380.260     5689.682     4488.621        1.841        0.978      105.302       51.877        0.243      343.468       19.599      860.645
05/08/2013  16:57:00       53.643       40.656      122.548       93.118      106.485       56.895     8670.985    11339.041     3237.097        2.139        1.162       67.309       48.278        0.514      343.596       19.818      860.647
05/08/2013  16:58:00       80.513       86.783      117.825       67.601       76.091       55.362     4569.837     5789.903     3064.990        2.066        0.671      118.379       40.887        0.119      343.526       19.697      860.652
05/08/2013  16:59:00       69.874       79.078       64.643       93.997       55.522       54.288     8835.500     3082.725     2947.212        1.509        0.743      105.526       51.896        0.242      343.426       19.528      860.667
05/08/2013  17:00:00       87.958       40.121       18.895       58.599       41.415       39.096     3433.853     1715.241     1528.494        0.819        0.334       96.677       31.056        0.103      343.390       19.468      860.666
05/08/2013  17:01:00       54.684       34.356       19.037       54.175       45.977       45.387     2934.956     2113.911     2059.972        0.582        0.355       64.581       28.798        0.199      343.495       19.647      860.664
05/08/2013  17:02:00       85.876       41.987       16.246       53.185       44.147       41.509     2828.654     1948.914     1723.015        0.795        0.325       95.591       20.988        0.048      343.265       19.255      860.672
05/08/2013  17:03:00       13.914      116.457        4.385       40.393       35.243       35.238     1631.608     1242.095     1241.684        0.894        0.206      117.286       26.471        0.051      343.141       19.044      860.673
05/08/2013  17:04:00       37.778       70.384       12.411       48.633       53.825       32.815     2365.176     2897.137     1076.803        0.644        0.317       79.882       17.662        0.049      343.189       19.126      860.655
05/08/2013  17:05:00       43.735       38.776      -14.539       45.043       30.317       17.635     2028.857      919.148      310.980        0.344        0.163       58.449       12.125        0.043      343.099       18.971      860.669
05/08/2013  17:06:00      -36.070       90.169      -17.212       39.183       33.051       37.241     1535.298     1092.391     1386.925        0.687        0.201       97.116       24.418        0.063      343.213       19.167      860.628
05/08/2013  17:07:00      -54.261       82.498        3.270       46.274       81.028       31.168     2141.253     6565.494      971.462        0.972        0.484       98.743       29.213        0.088      343.523       19.696      860.627
05/08/2013  17:08:00       26.622       15.828       11.962       31.617       25.539       23.344      999.603      652.234      544.929        0.165        0.110       30.972       17.098        0.305      343.739       20.064      860.621
05/08/2013  17:09:00       14.261       29.640       10.314       28.943       22.761       29.084      837.708      518.060      845.888        0.169        0.110       32.893       16.254        0.244      343.766       20.109      860.618
05/08/2013  17:10:00        8.554       37.371       16.592       35.898       32.746       26.575     1288.684     1072.298      706.257        0.241        0.153       38.337       21.547        0.316      343.693       19.985      860.620
05/08/2013  17:11:00       69.348       37.567       10.515       44.988       30.806       26.484     2023.899      949.022      701.420        0.500        0.184       78.870       19.790        0.063      343.517       19.684      860.621
05/08/2013  17:12:00       16.826       52.521       -7.279       31.821       52.519       27.943     1012.545     2758.204      780.827        0.382        0.228       55.150       14.387        0.068      343.316       19.342      860.622
05/08/2013  17:13:00       23.607       45.034        4.673       32.181       37.311       26.961     1035.604     1392.118      726.881        0.288        0.158       50.847       17.301        0.116      343.379       19.450      860.616
05/08/2013  17:14:00       46.101       51.421       43.753       72.930       91.061       73.311     5318.773     8292.043     5374.558        1.283        0.949       69.061       59.986        0.754      343.394       19.474      860.610
05/08/2013  17:15:00      127.626      140.702      112.037      107.102       84.445       95.433    11470.788     7130.888     9107.485        3.817        1.385      189.962       86.353        0.207      343.212       19.162      860.605
05/08/2013  17:16:00       53.678       66.939        2.132       74.307       30.540       31.419     5521.477      932.719      987.143        0.740        0.372       85.803       30.128        0.123      343.090       18.957      860.619
05/08/2013  17:17:00       45.568       74.354      -14.990       67.926       51.128       37.419     4613.938     2614.106     1400.209        0.823        0.431       87.206       35.611        0.167      343.264       19.253      860.601
05/08/2013  17:18:00       40.852       95.325       -0.259       69.976       69.943       49.456     4896.692     4892.041     2445.909        1.149        0.612      103.710       42.160        0.165      343.266       19.257      860.590
05/08/2013  17:19:00      -45.482      202.491      -21.044       54.033       60.792       38.566     2919.616     3695.697     1487.354        2.581        0.405      207.537       33.376        0.026      343.152       19.059      860.587
05/08/2013  17:20:00      -82.014      108.221      -28.271       60.391       61.962       24.129     3647.036     3839.314      582.188        1.365        0.403      135.787       32.091        0.056      343.183       19.113      860.579
05/08/2013  17:21:00       11.231       58.541        5.110       34.186       39.047       25.460     1168.655     1524.651      648.221        0.346        0.167       59.608       22.342        0.140      343.393       19.474      860.580
05/08/2013  17:22:00       75.607       49.284       39.962       56.806       48.111       40.678     3226.964     2314.670     1654.723        0.847        0.360       90.251       34.525        0.146      343.500       19.654      860.579
05/08/2013  17:23:00       62.294       30.202       66.663       61.410       67.900       47.505     3771.230     4610.349     2256.724        0.994        0.532       69.230       51.226        0.548      343.434       19.542      860.575
05/08/2013  17:24:00       50.709       57.078       57.030       45.471       46.475       50.027     2067.586     2159.928     2502.676        0.790        0.337       76.350       42.015        0.303      343.374       19.440      860.574
05/08/2013  17:25:00       42.380      -43.251       13.614       52.402       88.570       35.398     2746.009     7844.601     1253.003        0.785        0.592       60.553       32.974        0.297      343.418       19.515      860.558
05/08/2013  17:26:00       42.999      -68.221        1.793       60.144       85.254       45.364     3617.252     7268.269     2057.884        0.972        0.647       80.641       48.818        0.366      343.577       19.787      860.529
05/08/2013  17:27:00       13.794       10.372       71.056       39.318       73.353       49.595     1545.944     5380.698     2459.648        0.736        0.469       17.258       43.554        6.369      343.659       19.926      860.516
05/08/2013  17:28:00       30.178      -74.971        6.763       43.882       54.671       37.599     1925.601     2988.886     1413.648        0.645        0.316       80.817       33.413        0.171      343.774       20.123      860.509
05/08/2013  17:29:00       -1.353     -112.436       -1.944       36.077       50.688       35.653     1301.534     2569.235     1271.133        0.889        0.257      112.444       33.183        0.087      343.831       20.221      860.513
05/08/2013  17:30:00      -19.570      -71.872       22.144       49.491       55.721       42.576     2449.328     3104.825     1812.680        0.670        0.368       74.489       29.961        0.162      343.913       20.360      860.509
05/08/2013  17:31:00      -20.338      -50.630        8.400       58.891       77.780       31.062     3468.162     6049.778      964.852        0.676        0.524       54.562       37.827        0.481      343.752       20.086      860.516
05/08/2013  17:32:00       -5.119      -92.763      -12.149       63.314       44.685       35.331     4008.716     1996.727     1248.302        0.802        0.363       92.905       25.201        0.074      343.688       19.977      860.531
05/08/2013  17:33:00      -71.538      -67.932        9.131       51.094       86.297       36.582     2610.559     7447.136     1338.210        1.060        0.570       98.653       44.625        0.205      343.478       19.618      860.535
05/08/2013  17:34:00      -23.942      -53.861       12.327       47.738       37.937       39.435     2278.888     1439.198     1555.128        0.445        0.264       58.943       27.044        0.211      343.718       20.027      860.544
05/08/2013  17:35:00       13.644      -84.375       -8.589       58.844       55.462       41.305     3462.580     3076.071     1706.071        0.781        0.412       85.471       16.704        0.038      343.498       19.652      860.549
05/08/2013  17:36:00      -33.436     -108.868       12.376       58.671      110.446       41.698     3442.239    12198.229     1738.749        1.525        0.869      113.887       39.689        0.121      343.481       19.621      860.552
05/08/2013  17:37:00      -32.774      -74.724        3.561       78.067       76.008       36.926     6094.395     5777.150     1363.529        0.995        0.662       81.596       34.124        0.175      343.682       19.965      860.549
05/08/2013  17:38:00       92.408      -91.214       30.119       61.425       73.235       43.909     3773.072     5363.350     1928.020        1.441        0.553      129.843       45.404        0.122      343.515       19.680      860.561
05/08/2013  17:39:00       35.179      -68.636        8.222       54.251       73.071       53.742     2943.124     5339.307     2888.245        0.859        0.559       77.127       53.499        0.481      343.483       19.626      860.566
05/08/2013  17:40:00       98.996     -142.518       -4.698       54.408       61.165       33.176     2960.185     3741.200     1100.658        1.897        0.390      173.527       34.562        0.040      343.322       19.350      860.570
05/08/2013  17:41:00       14.303      -75.671        1.436       43.151       59.765       41.910     1862.011     3571.851     1756.468        0.656        0.360       77.011       31.468        0.167      343.511       19.674      860.575
05/08/2013  17:42:00       -1.289      -57.381       -6.558       51.935       58.324       37.355     2697.222     3401.738     1395.401        0.541        0.375       57.395       35.068        0.373      343.485       19.629      860.586
05/08/2013  17:43:00      -23.533      -16.102       -5.277       34.884       37.776       17.930     1216.865     1427.032      321.502        0.190        0.148       28.514       20.951        0.540      343.518       19.687      860.597
05/08/2013  17:44:00       -6.636      -13.672       16.211       14.312       29.874       13.078      204.831      892.481      171.046        0.088        0.063       15.197       12.687        0.697      343.606       19.835      860.596
05/08/2013  17:45:00       34.742      -42.993       -0.637       28.289       48.002       32.166      800.276     2304.185     1034.655        0.360        0.207       55.276       28.448        0.265      343.426       19.529      860.596
05/08/2013  17:46:00       73.114      -65.584       21.032       62.873       87.828       48.404     3953.064     7713.790     2342.944        1.205        0.700       98.219       58.722        0.357      343.391       19.469      860.601
05/08/2013  17:47:00       42.775       -1.929       38.904       53.301       53.405       46.134     2840.979     2852.062     2128.340        0.558        0.391       42.819       35.589        0.691      343.464       19.594      860.603
05/08/2013  17:48:00       33.398       -7.913       68.637       58.822      122.202       53.640     3460.060    14933.374     2877.198        1.358        1.064       34.323       69.957        4.154      343.334       19.370      860.618
05/08/2013  17:49:00       86.278     -137.309      -19.278       28.819       34.489       20.637      830.507     1189.490      425.902        1.456        0.122      162.165       17.095        0.011      343.128       19.021      860.627
05/08/2013  17:50:00       76.360      -74.538       -9.268       42.128       51.417       38.582     1774.741     2643.719     1488.563        0.869        0.295      106.709       38.706        0.132      343.194       19.135      860.618
05/08/2013  17:51:00       29.784      -72.281        0.281       29.860       23.057       20.091      891.600      531.618      403.657        0.397        0.091       78.177       13.328        0.029      343.175       19.102      860.605
05/08/2013  17:52:00       15.801      -69.019      -11.400       35.834       53.221       28.743     1284.071     2832.448      826.181        0.504        0.247       70.805       19.099        0.073      343.486       19.632      860.578
05/08/2013  17:53:00       15.715      -97.041      -19.690       41.691       67.359       39.564     1738.099     4537.168     1565.281        0.894        0.392       98.305       31.425        0.102      343.422       19.521      860.561
05/08/2013  17:54:00       31.197      -99.795      -15.279       61.681       60.705       40.037     3804.543     3685.089     1602.931        1.013        0.455      104.557       35.445        0.115      343.386       19.462      860.563
05/08/2013  17:55:00       15.904      -39.992        4.782       41.853       54.538       41.559     1751.634     2974.386     1727.149        0.416        0.323       43.039       35.716        0.689      343.330       19.366      860.568
05/08/2013  17:56:00       67.605      -45.080       19.288       75.473       57.694       48.283     5696.228     3328.586     2331.272        0.916        0.568       81.257       38.246        0.222      343.310       19.331      860.562
05/08/2013  17:57:00        0.131       29.805       53.134       22.710       35.669       21.507      515.732     1272.280      462.540        0.298        0.113       29.805       10.994        0.136      343.356       19.409      860.574
05/08/2013  17:58:00       -8.870       30.485       63.211       11.534       21.152       15.651      133.044      447.414      244.956        0.291        0.041       31.749       11.825        0.139      343.304       19.321      860.582
05/08/2013  17:59:00       14.580       48.590        6.320       25.085       18.108       25.211      629.253      327.901      635.590        0.210        0.080       50.730       14.036        0.077      343.237       19.207      860.576
05/08/2013  18:00:00       39.950       64.160       -2.275       47.395       30.169       25.086     2246.253      910.146      629.299        0.475        0.189       75.581       22.671        0.090      343.222       19.181      860.568
05/08/2013  18:01:00       47.342       66.405        5.906       39.613       30.865       24.870     1569.198      952.665      618.495        0.491        0.157       81.553       19.588        0.058      343.233       19.200      860.559
05/08/2013  18:02:00       43.943       68.184       -5.840       25.828       27.860       24.471      667.106      776.161      598.844        0.433        0.102       81.118       19.851        0.060      343.139       19.042      860.536
05/08/2013  18:03:00       32.118       30.049        0.668       13.217       21.061       15.354      174.700      443.584      235.747        0.139        0.043       43.983        6.175        0.020      343.106       18.985      860.526
05/08/2013  18:04:00       59.442       51.227        5.355       24.415       19.752       24.500      596.079      390.125      600.257        0.389        0.079       78.470       11.853        0.023      343.129       19.024      860.529
05/08/2013  18:05:00       -6.030       55.884       -8.905       22.457       25.119       13.763      504.313      630.943      189.407        0.228        0.066       56.208        2.374        0.002      343.180       19.111      860.522
05/08/2013  18:06:00      -13.298       70.801      -15.670       29.022       34.021       10.811      842.249     1157.462      116.874        0.378        0.106       72.039        9.458        0.017      343.143       19.048      860.516
05/08/2013  18:07:00       49.644      108.504      -11.531       27.060       36.616       25.641      732.242     1340.737      657.483        0.855        0.137      119.321       21.861        0.034      343.113       18.998      860.523
05/08/2013  18:08:00       37.607       43.278       -4.363       21.873       37.784       18.860      478.420     1427.643      355.705        0.278        0.113       57.335       20.528        0.128      343.165       19.087      860.524
05/08/2013  18:09:00       15.123       51.886       -0.893       22.403       30.444       19.898      501.911      926.839      395.927        0.237        0.091       54.045       16.288        0.091      343.228       19.192      860.515
05/08/2013  18:10:00       22.165       74.006       -3.456       19.862       51.765       21.817      394.483     2679.644      475.985        0.476        0.178       77.254       27.824        0.130      343.217       19.173      860.508
05/08/2013  18:11:00       15.205       97.616      -21.588       14.958       19.967       10.160      223.729      398.682      103.225        0.548        0.036       98.793        9.846        0.010      343.115       18.998      860.516
05/08/2013  18:12:00        7.696       54.239      -13.710       15.512       17.370       15.016      240.632      301.718      225.478        0.198        0.038       54.782        8.028        0.021      343.158       19.071      860.524
05/08/2013  18:13:00       42.381       39.724       -2.493       30.918       22.429       20.351      955.903      503.068      414.155        0.263        0.094       58.087       15.070        0.067      343.175       19.102      860.525
05/08/2013  18:14:00       18.077       10.228       -1.504       17.834       14.506       10.812      318.040      210.428      116.904        0.054        0.032       20.770        8.309        0.160      343.251       19.234      860.522
05/08/2013  18:15:00       16.798       21.847        7.222       27.631       20.470       13.560      763.459      419.011      183.873        0.109        0.068       27.558       13.205        0.230      343.265       19.255      860.524
05/08/2013  18:16:00       37.605       51.351        4.256       23.275       28.522       21.078      541.716      813.529      444.288        0.293        0.090       63.648       17.015        0.071      343.290       19.297      860.534
05/08/2013  18:17:00       58.142       64.726        2.487       44.007       45.127       35.062     1936.619     2036.404     1229.349        0.639        0.260       87.005       19.537        0.050      343.270       19.263      860.536
05/08/2013  18:18:00       95.409       82.991        2.900       40.143       33.845       25.426     1611.483     1145.469      646.498        0.970        0.170      126.453       25.256        0.040      343.140       19.040      860.541
05/08/2013  18:19:00       94.168       42.532        5.116       33.509       27.181       20.221     1122.886      738.826      408.897        0.649        0.114      103.327       10.269        0.010      343.155       19.066      860.548
05/08/2013  18:20:00       47.321       38.706       19.019       15.351       29.601       24.361      235.644      876.216      593.441        0.290        0.085       61.135        9.317        0.023      343.171       19.094      860.564
05/08/2013  18:21:00        2.258        3.825       -0.961       15.584       10.614       19.582      242.858      112.663      383.454        0.038        0.037        4.442       12.028        7.332      343.228       19.192      860.562
05/08/2013  18:22:00        7.424       44.039        5.132       18.541       17.922       15.209      343.778      321.194      231.314        0.146        0.045       44.661        9.298        0.043      343.182       19.112      860.563
05/08/2013  18:23:00      -24.369       15.471       -4.937       11.992       18.130        6.701      143.818      328.684       44.910        0.069        0.026       28.865        5.909        0.042      343.119       19.009      860.553
05/08/2013  18:24:00      -65.081      -12.310       -9.120       12.574       21.672       10.432      158.105      469.669      108.828        0.260        0.037       66.235        4.331        0.004      343.269       19.262      860.545
05/08/2013  18:25:00     -102.885      -21.894      -12.302       22.373       24.662       17.983      500.544      608.220      323.392        0.632        0.072      105.189        4.161        0.002      343.282       19.283      860.544
05/08/2013  18:26:00      -30.142      -34.138       -3.254       39.245       34.689       29.177     1540.206     1203.308      851.299        0.284        0.180       45.541       29.139        0.409      343.394       19.473      860.551
05/08/2013  18:27:00      -85.855      -50.340      -10.215       23.569       19.573       12.144      555.520      383.092      147.481        0.555        0.054       99.525       10.935        0.012      343.164       19.082      860.562
05/08/2013  18:28:00      -97.530      -16.203      -11.546       19.318       21.469       13.183      373.171      460.922      173.793        0.546        0.050       98.867        6.713        0.005      343.222       19.181      860.566
05/08/2013  18:29:00      -31.780      -28.445       11.816       63.117       34.873       20.866     3983.710     1216.121      435.391        0.380        0.282       42.650       23.509        0.304      343.406       19.495      860.564
05/08/2013  18:30:00        2.141      -38.368       -1.978       21.848       25.896       17.152      477.322      670.585      294.184        0.146        0.072       38.428       10.093        0.069      343.385       19.460      860.559
05/08/2013  18:31:00        1.907       19.276       13.166       13.310       19.981       15.214      177.150      399.252      231.472        0.068        0.040       19.370        7.115        0.135      343.430       19.535      860.549
05/08/2013  18:32:00       10.140       13.361       20.345       20.137        9.578       16.358      405.482       91.734      267.597        0.073        0.038       16.773       15.321        0.834      343.371       19.435      860.537
05/08/2013  18:33:00       -6.375      -23.500        0.737       14.548       21.811       12.458      211.638      475.700      155.201        0.072        0.042       24.349        7.929        0.106      343.427       19.533      860.540
05/08/2013  18:34:00       11.951      -64.631        2.792       22.144       42.662       20.075      490.360     1820.024      403.017        0.352        0.136       65.726       13.442        0.042      343.437       19.548      860.529
05/08/2013  18:35:00       11.483     -101.406        3.271       22.920       24.007       19.035      525.329      576.360      362.320        0.594        0.073      102.054        5.039        0.002      343.200       19.143      860.524
05/08/2013  18:36:00       -3.156      -40.461       10.837       27.821       18.344       19.482      774.016      336.512      379.550        0.163        0.075       40.584       19.388        0.228      343.250       19.229      860.522
05/08/2013  18:37:00      -26.701      -34.823       -5.276       15.875       14.840       10.703      252.016      220.224      114.560        0.127        0.029       43.882        9.424        0.046      343.267       19.257      860.520
05/08/2013  18:38:00       -3.829       -1.453       -9.778       16.367       17.649        7.035      267.877      311.472       49.490        0.037        0.031        4.095        7.053        2.966      343.287       19.292      860.515
05/08/2013  18:39:00       30.661       30.237      -11.119       16.393       15.689       16.485      268.735      246.139      271.753        0.138        0.039       43.062        9.659        0.050      343.254       19.235      860.520
05/08/2013  18:40:00       44.742       45.651       20.826       21.925       19.118       24.373      480.693      365.490      594.056        0.298        0.072       63.920       17.491        0.075      343.299       19.312      860.528
05/08/2013  18:41:00       72.824       50.540       15.231       45.733       37.598       20.295     2091.495     1413.603      411.891        0.600        0.196       88.643       16.366        0.034      343.286       19.292      860.536
05/08/2013  18:42:00       81.809       43.941        0.442       45.890       34.973       28.752     2105.934     1223.114      826.688        0.639        0.208       92.863       12.990        0.020      343.370       19.435      860.542
05/08/2013  18:43:00      111.765       70.758        2.785       52.536       36.255       26.297     2760.035     1314.392      691.522        1.114        0.238      132.280       17.892        0.018      343.318       19.347      860.547
05/08/2013  18:44:00      107.142       56.668        9.868       60.628       35.593       35.096     3675.775     1266.883     1231.738        1.048        0.309      121.205       23.668        0.038      343.300       19.315      860.551
05/08/2013  18:45:00      124.974       76.234       16.715       68.915       38.819       37.911     4749.260     1506.928     1437.270        1.470        0.385      146.390       24.996        0.029      343.275       19.270      860.546
05/08/2013  18:46:00       53.166       58.286        6.246       48.680       44.494       36.677     2369.723     1979.752     1345.172        0.598        0.285       78.892       25.481        0.104      343.333       19.372      860.545
05/08/2013  18:47:00       50.605       67.607       -9.696       37.830       49.515       28.838     1431.084     2451.700      831.619        0.597        0.236       84.449       28.878        0.117      343.327       19.362      860.544
05/08/2013  18:48:00       32.333       57.475        1.351       38.144       42.451       19.515     1454.968     1802.107      380.820        0.399        0.182       65.946       22.862        0.120      343.276       19.273      860.537
05/08/2013  18:49:00       38.201       60.435       11.821       48.941       35.877       31.651     2395.195     1287.132     1001.755        0.497        0.234       71.496       26.626        0.139      343.305       19.323      860.533
05/08/2013  18:50:00       20.004       63.650        0.015       52.766       38.392       24.842     2784.261     1473.915      617.105        0.466        0.244       66.719       28.524        0.183      343.298       19.310      860.527
05/08/2013  18:51:00       76.390       84.929       10.758       79.808       33.748       38.743     6369.316     1138.945     1501.016        1.109        0.450      114.229       46.066        0.163      343.273       19.269      860.535
05/08/2013  18:52:00      109.577       67.896       12.481       61.766       51.149       35.311     3815.048     2616.197     1246.892        1.222        0.384      128.907       26.423        0.042      343.260       19.247      860.532
05/08/2013  18:53:00      128.912      108.636        8.928       57.646       43.864       40.711     3323.090     1924.037     1657.425        1.770        0.345      168.582       33.113        0.039      343.203       19.148      860.536
05/08/2013  18:54:00       38.146       76.944        2.778       56.557       37.237       28.561     3198.739     1386.630      815.756        0.639        0.270       85.881       19.950        0.054      343.222       19.183      860.536
05/08/2013  18:55:00       39.955       58.944        6.703       36.860       37.467       28.857     1358.694     1403.785      832.744        0.435        0.180       71.210       26.922        0.143      343.225       19.187      860.544
05/08/2013  18:56:00       48.985       44.360        9.629       39.304       23.959       19.488     1544.783      574.042      379.778        0.348        0.125       66.086       14.726        0.050      343.210       19.162      860.558
05/08/2013  18:57:00       43.451       41.634        5.696       32.162       26.233       17.448     1034.388      688.172      304.444        0.284        0.101       60.178       14.603        0.059      343.223       19.184      860.564
05/08/2013  18:58:00      108.842       57.895       25.073       55.116       34.809       40.166     3037.739     1211.635     1613.268        1.084        0.293      123.282       26.248        0.045      343.255       19.238      860.569
05/08/2013  18:59:00      121.575       81.824        5.139       40.613       39.207       31.208     1649.393     1537.211      973.965        1.283        0.208      146.546       18.766        0.016      343.170       19.093      860.579
05/08/2013  19:00:00       81.950       57.068       27.596       63.109       34.911       31.769     3982.726     1218.812     1009.290        0.847        0.311       99.862       22.776        0.052      343.199       19.144      860.591
05/08/2013  19:01:00      129.965       77.668       22.592       43.658       41.981       27.645     1906.017     1762.388      764.244        1.393        0.222      151.404       10.411        0.005      343.190       19.126      860.602
05/08/2013  19:02:00       55.567       53.361        7.617       34.757       40.200       25.173     1208.039     1616.055      633.699        0.472        0.173       77.040       18.381        0.057      343.213       19.166      860.612
05/08/2013  19:03:00       78.631       90.502       -6.269       44.795       33.375       35.264     2006.588     1113.889     1243.556        0.939        0.218      119.889       23.238        0.038      343.166       19.088      860.629
05/08/2013  19:04:00       64.076       52.572        7.690       58.549       34.113       21.330     3428.036     1163.665      454.968        0.599        0.252       82.883       16.859        0.041      343.150       19.060      860.635
05/08/2013  19:05:00       92.795       53.662       14.367       43.813       31.094       28.501     1919.586      966.831      812.289        0.770        0.185      107.194       10.646        0.010      343.192       19.132      860.627
05/08/2013  19:06:00       98.902       32.820       19.961       38.132       35.119       26.983     1454.017     1233.374      728.104        0.734        0.171      104.205       19.791        0.036      343.183       19.116      860.628
05/08/2013  19:07:00       51.131       92.471       -6.907       32.297       58.615       33.186     1043.069     3435.682     1101.334        0.840        0.279      105.666       35.291        0.112      343.165       19.085      860.624
05/08/2013  19:08:00       19.422       84.960      -11.600       28.978       34.871       21.301      839.731     1216.017      453.718        0.512        0.125       87.151       14.619        0.028      343.148       19.058      860.622
05/08/2013  19:09:00       41.349      103.454      -13.061       30.934       43.663       28.610      956.928     1906.479      818.516        0.813        0.184      111.411       19.772        0.031      343.145       19.051      860.619
05/08/2013  19:10:00       77.852       83.836        9.360       80.176       47.578       33.577     6428.128     2263.676     1127.444        1.150        0.491      114.409       31.996        0.078      343.140       19.041      860.611
05/08/2013  19:11:00      109.631       71.648       -0.979       37.528       30.176       21.841     1408.367      910.596      477.017        0.997        0.140      130.967       10.765        0.007      343.116       19.001      860.617
05/08/2013  19:12:00      130.842       75.392        8.188       38.878       28.427       26.931     1511.501      808.112      725.299        1.296        0.152      151.009       12.533        0.007      343.150       19.060      860.631
05/08/2013  19:13:00      123.919       88.394       15.586       45.558       31.166       40.118     2075.572      971.319     1609.419        1.403        0.233      152.215       19.500        0.016      343.141       19.044      860.639
05/08/2013  19:14:00      106.350       76.645       22.574       36.337       29.767       31.066     1320.341      886.061      965.121        1.043        0.159      131.091       27.479        0.044      343.139       19.042      860.645
05/08/2013  19:15:00      103.472       56.657        9.909       29.310       24.592       31.160      859.073      604.788      970.952        0.822        0.122      117.968       12.278        0.011      343.132       19.029      860.647
05/08/2013  19:16:00       89.455       45.835        4.998       37.344       27.611       22.115     1394.599      762.385      489.058        0.639        0.132      100.514       19.169        0.036      343.125       19.017      860.657
05/08/2013  19:17:00       65.003       43.956       -0.954       35.547       30.016       24.249     1263.621      900.962      588.021        0.446        0.138       78.470       22.000        0.079      343.141       19.046      860.664
05/08/2013  19:18:00       50.034       46.257        6.893       22.683       25.801       23.877      514.497      665.686      570.128        0.322        0.088       68.141       15.416        0.051      343.138       19.041      860.665
05/08/2013  19:19:00       29.447       79.121       -7.272       32.369       36.826       26.975     1047.779     1356.126      727.667        0.516        0.157       84.423       25.989        0.095      343.113       18.996      860.678
05/08/2013  19:20:00       -1.146      118.714      -21.426       27.615       24.877       13.307      762.611      618.851      177.076        0.806        0.078      118.720        9.912        0.007      343.113       18.996      860.684
05/08/2013  19:21:00       25.167       72.279       -2.911       34.822       44.907       24.351     1212.585     2016.609      592.981        0.484        0.191       76.535       20.201        0.070      343.044       18.879      860.684
05/08/2013  19:22:00       29.563       54.334        5.307       32.694       42.810       26.814     1068.875     1832.688      718.984        0.374        0.181       61.856       24.468        0.156      343.035       18.861      860.681
05/08/2013  19:23:00       13.690       60.486       -3.030       24.581       42.442       25.721      604.231     1801.317      661.554        0.346        0.153       62.016       26.256        0.179      343.043       18.875      860.682
05/08/2013  19:24:00       13.288       47.728        2.018       27.267       47.166       24.486      743.478     2224.664      599.562        0.301        0.178       49.544       28.657        0.335      343.065       18.915      860.685
05/08/2013  19:25:00       41.264       53.279       -1.098       38.227       36.846       25.757     1461.294     1357.660      663.442        0.401        0.174       67.390       24.170        0.129      343.017       18.831      860.678
05/08/2013  19:26:00       17.447       58.957       -6.282       26.130       30.306       16.886      682.780      918.454      285.134        0.285        0.094       61.485       10.969        0.032      343.018       18.835      860.689
05/08/2013  19:27:00       42.388       95.968      -10.207       39.807       43.897       32.662     1584.581     1926.970     1066.832        0.784        0.229      104.912       23.931        0.052      343.036       18.864      860.706
05/08/2013  19:28:00       32.210      112.671       -9.712       25.659       41.716       26.858      658.406     1740.190      721.365        0.847        0.156      117.185       23.920        0.042      343.017       18.832      860.709
05/08/2013  19:29:00       64.266      104.189        0.615       46.135       67.120       43.539     2128.465     4505.133     1895.683        1.176        0.426      122.415       42.787        0.122      343.010       18.820      860.732
05/08/2013  19:30:00       46.127      109.367       -5.424       46.081       66.277       46.039     2123.485     4392.619     2119.605        1.138        0.432      118.697       49.381        0.173      343.000       18.804      860.742
05/08/2013  19:31:00       39.869      107.657       -5.319       32.283       49.911       30.657     1042.169     2491.082      939.843        0.884        0.224      114.803       29.054        0.064      342.999       18.802      860.740
05/08/2013  19:32:00       24.698       74.464        6.883       32.822       42.779       35.822     1077.312     1830.057     1283.234        0.520        0.210       78.453       33.269        0.180      342.988       18.784      860.752
05/08/2013  19:33:00       35.553       88.908       -9.789       28.304       43.777       23.820      801.097     1916.458      567.381        0.627        0.164       95.753       21.904        0.052      342.987       18.781      860.755
05/08/2013  19:34:00       38.718       72.120       -4.852       34.805       37.231       30.105     1211.376     1386.115      906.305        0.511        0.175       81.856       29.338        0.128      342.999       18.804      860.758
05/08/2013  19:35:00       45.282       67.626        1.167       33.652       44.923       27.870     1132.482     2018.045      776.723        0.528        0.196       81.386       24.886        0.094      342.974       18.758      860.771
05/08/2013  19:36:00       29.874       58.262       -4.650       27.475       36.805       25.082      754.900     1354.600      629.089        0.352        0.137       65.475       24.749        0.143      342.960       18.735      860.771
05/08/2013  19:37:00       35.430       88.739       -5.071       27.751       36.649       27.813      770.138     1343.140      773.570        0.602        0.144       95.550       20.456        0.046      342.950       18.718      860.774
05/08/2013  19:38:00       25.529       55.479       10.042       30.695       42.584       23.983      942.200     1813.374      575.201        0.358        0.167       61.071       24.986        0.167      342.957       18.730      860.786
05/08/2013  19:39:00       41.162       86.058       -6.189       33.515       41.304       24.024     1123.242     1706.022      577.161        0.627        0.170       95.396       21.962        0.053      342.963       18.741      860.784
05/08/2013  19:40:00       29.459       68.882        5.665       29.091       42.491       31.319      846.272     1805.524      980.882        0.464        0.182       74.917       32.429        0.187      342.965       18.743      860.798
05/08/2013  19:41:00       28.315       70.927       -4.297       29.354       46.902       24.361      861.638     2199.788      593.444        0.475        0.183       76.370       24.309        0.101      342.939       18.701      860.805
05/08/2013  19:42:00       18.073      109.191      -14.209       28.780       55.774       25.426      828.263     3110.794      646.464        0.852        0.229      110.676       26.602        0.058      342.967       18.747      860.808
05/08/2013  19:43:00       36.868      115.585      -12.609       36.760       33.279       27.885     1351.307     1107.469      777.550        0.906        0.162      121.322       20.722        0.029      343.001       18.803      860.817
05/08/2013  19:44:00       54.948       76.610        9.106       41.378       45.104       40.229     1712.108     2034.395     1618.353        0.717        0.268       94.278       35.558        0.142      342.952       18.722      860.818
05/08/2013  19:45:00       48.577       74.367       10.438       45.989       43.234       43.402     2114.955     1869.216     1883.746        0.693        0.293       88.827       30.548        0.118      342.945       18.710      860.828
05/08/2013  19:46:00       50.330       88.981       -0.168       46.948       37.758       28.460     2204.119     1425.702      809.996        0.744        0.222      102.229       20.798        0.041      342.963       18.741      860.831
05/08/2013  19:47:00        9.450      104.400        1.148       32.768       57.340       33.847     1073.723     3287.832     1145.641        0.825        0.275      104.827       35.748        0.116      342.985       18.778      860.844
05/08/2013  19:48:00       11.459      126.542      -11.963       28.148       35.899       20.354      792.291     1288.732      414.267        0.939        0.125      127.060       21.436        0.028      342.997       18.797      860.865
05/08/2013  19:49:00       -3.346      142.173      -17.861       22.455       33.755       18.221      504.224     1139.379      331.992        1.126        0.099      142.212       20.158        0.020      343.019       18.836      860.878
05/08/2013  19:50:00      -33.568      131.508      -16.113       35.423       46.339       24.211     1254.823     2147.305      586.153        1.133        0.199      135.724       17.382        0.016      343.059       18.904      860.912
05/08/2013  19:51:00      -74.226      155.463      -23.630       47.927       47.713       26.501     2297.009     2276.539      702.281        1.776        0.264      172.274       23.114        0.018      343.074       18.930      860.948
05/08/2013  19:52:00     -140.323      154.225      -28.355       54.017       67.666       36.498     2917.793     4578.720     1332.136        2.655        0.441      208.509       26.724        0.016      343.081       18.939      861.001
05/08/2013  19:53:00     -249.160      237.152      -45.006      163.374      172.333       71.916    26691.142    29698.794     5171.845        9.094        3.078      343.979       90.067        0.069      342.908       18.645      861.059
05/08/2013  19:54:00     -164.695      291.956      -33.728       86.133      144.970       68.722     7418.926    21016.256     4722.684        7.332        1.658      335.205       65.721        0.038      342.744       18.365      861.049
05/08/2013  19:55:00     -219.277      252.895      -54.896       85.715      110.218       59.096     7347.101    12147.977     3492.328        6.902        1.149      334.721       59.007        0.031      342.742       18.361      861.046
05/08/2013  19:56:00     -232.776      324.170      -52.869      104.945      133.334       57.830    11013.407    17777.975     3344.289        9.710        1.607      399.088       55.493        0.019      342.644       18.194      861.047
05/08/2013  19:57:00     -171.504      310.307      -32.016       98.490      115.642       60.108     9700.193    13373.110     3613.014        7.670        1.334      354.548       59.745        0.028      342.643       18.192      861.048
05/08/2013  19:58:00     -151.262      204.989      -20.712       98.644      118.592       60.511     9730.617    14064.127     3661.612        4.639        1.373      254.756       66.941        0.069      342.665       18.230      861.054
05/08/2013  19:59:00     -142.976      177.945      -16.417      102.209      119.460       69.442    10446.663    14270.644     4822.129        4.095        1.477      228.269       62.848        0.076      342.659       18.218      861.068
05/08/2013  20:00:00     -250.870      268.323      -48.930      126.297      124.332       68.765    15950.935    15458.487     4728.610        8.673        1.807      367.333       60.530        0.027      342.586       18.097      861.089
05/08/2013  20:01:00     -209.939      265.126      -38.553      131.897      119.196       73.707    17396.894    14207.762     5432.762        7.644        1.852      338.181       78.282        0.054      342.553       18.040      861.098
05/08/2013  20:02:00     -223.998      286.540      -51.280      127.365      111.483       69.501    16221.820    12428.459     4830.329        8.419        1.674      363.703       75.048        0.043      342.556       18.044      861.107
05/08/2013  20:03:00     -209.900      307.328      -35.670      138.896      157.563       85.771    19292.121    24826.117     7356.607        9.562        2.574      372.167       80.992        0.047      342.522       17.988      861.116
05/08/2013  20:04:00     -195.736      324.719      -38.634       97.023      181.873       74.597     9413.421    33077.772     5564.667        9.664        2.403      379.150       80.917        0.046      342.487       17.928      861.150
05/08/2013  20:05:00     -264.898      305.739      -50.347      141.381      140.642       89.532    19988.552    19780.141     8015.957       10.698        2.389      404.533       88.362        0.048      342.441       17.851      861.169
05/08/2013  20:06:00     -144.609      182.597      -15.534      118.058      179.784       67.212    13937.602    32322.300     4517.394        5.263        2.539      232.923       61.854        0.071      342.479       17.914      861.183
05/08/2013  20:07:00     -228.360      272.624      -28.078      181.070      179.646       87.707    32786.441    32272.708     7692.589        9.999        3.638      355.629       83.321        0.055      342.393       17.768      861.193
05/08/2013  20:08:00     -259.133      297.596      -52.165      141.147      158.006       90.177    19922.593    24965.885     8131.941       10.572        2.651      394.605       93.069        0.056      342.337       17.673      861.209
05/08/2013  20:09:00     -258.366      265.893      -22.865      145.327      204.415       93.242    21119.857    41785.356     8694.151       10.478        3.580      370.745      103.275        0.078      342.335       17.669      861.221
05/08/2013  20:10:00     -262.365      333.079      -50.841      118.771      158.325       77.060    14106.657    25066.841     5938.269       11.373        2.256      424.002       75.056        0.031      342.298       17.606      861.240
05/08/2013  20:11:00     -285.769      295.229      -56.366      156.566      154.437       89.951    24512.936    23850.847     8091.144       11.422        2.823      410.882       90.405        0.048      342.258       17.539      861.272
05/08/2013  20:12:00     -229.986      284.929      -40.563      134.953      126.837       82.855    18212.305    16087.681     6864.891        8.844        2.058      366.167       71.955        0.039      342.245       17.517      861.298
05/08/2013  20:13:00     -137.914      240.039      -29.350       80.528      126.325       59.513     6484.711    15958.098     3541.845        5.174        1.299      276.837       53.953        0.038      342.267       17.552      861.303
05/08/2013  20:14:00     -141.804      175.667      -15.594       67.087       71.282       55.157     4500.663     5081.178     3042.284        3.192        0.631      225.760       32.629        0.021      342.275       17.568      861.319
05/08/2013  20:15:00     -151.233      154.364      -14.275      157.139      130.419       82.006    24692.627    17009.176     6724.972        4.766        2.421      216.101       86.281        0.159      342.200       17.440      861.335
05/08/2013  20:16:00     -210.335      221.013      -34.956      114.105      114.988       67.345    13020.030    13222.153     4535.362        6.254        1.539      305.103       68.647        0.051      342.150       17.355      861.337
05/08/2013  20:17:00     -151.210      276.831      -32.382      110.564      121.229       66.334    12224.333    14696.355     4400.136        6.593        1.566      315.436       60.433        0.037      342.151       17.357      861.340
05/08/2013  20:18:00     -203.793      335.587      -50.012       86.281      127.695       63.836     7444.332    16305.937     4074.979        9.223        1.391      392.620       44.494        0.013      342.108       17.284      861.339
05/08/2013  20:19:00     -179.369      240.713      -34.847      180.798      114.924       79.423    32687.958    13207.617     6307.995        7.176        2.610      300.193       97.447        0.105      342.138       17.334      861.338
05/08/2013  20:20:00     -208.025      283.360      -43.160      126.663      143.599       73.558    16043.414    20620.572     5410.784        8.375        2.104      351.521       77.966        0.049      342.074       17.224      861.344
05/08/2013  20:21:00     -145.772      325.669      -40.194      110.655      172.702       71.514    12244.584    29825.888     5114.186        8.805        2.359      356.805       76.610        0.046      342.065       17.211      861.366
05/08/2013  20:22:00     -170.018      297.563      -37.050      110.314      134.844       73.818    12169.165    18183.008     5449.143        7.731        1.790      342.710       68.886        0.040      342.061       17.204      861.382
05/08/2013  20:23:00     -114.932      344.573      -37.917      115.907      137.178       66.276    13434.511    18817.896     4392.504        8.501        1.832      363.236       61.860        0.029      342.043       17.173      861.388
05/08/2013  20:24:00     -140.371      282.787      -41.918       72.578      105.310       53.807     5267.583    11090.280     2895.194        6.034        0.963      315.709       46.380        0.022      342.042       17.172      861.394
05/08/2013  20:25:00     -135.464      205.091      -24.160       97.322      120.025       65.584     9471.509    14405.963     4301.234        4.458        1.409      245.790       67.548        0.076      342.052       17.190      861.409
05/08/2013  20:26:00     -148.943      275.040      -33.720       96.225      119.397       60.982     9259.185    14255.704     3718.754        6.310        1.362      312.779       54.715        0.031      342.015       17.126      861.428
05/08/2013  20:27:00     -105.818      308.154      -34.189       83.095      103.745       52.436     6904.818    10763.075     2749.559        6.387        1.021      325.817       45.878        0.020      341.998       17.097      861.438
05/08/2013  20:28:00     -203.708      319.539      -50.308      118.519      163.687       78.139    14046.800    26793.408     6105.655        9.653        2.347      378.948       89.404        0.056      341.952       17.018      861.458
05/08/2013  20:29:00     -116.052      305.831      -31.426      147.642      137.594       68.049    21798.014    18931.999     4630.707        7.667        2.268      327.110       68.428        0.044      341.916       16.956      861.447
05/08/2013  20:30:00     -135.429      267.867      -35.114      100.215      124.613       72.399    10043.087    15528.425     5241.661        6.106        1.541      300.156       67.026        0.050      341.896       16.923      861.459
05/08/2013  20:31:00      -92.178      277.931      -24.400       80.242      150.489       68.381     6438.698    22646.796     4675.939        6.004        1.688      292.818       69.539        0.056      341.884       16.902      861.475
05/08/2013  20:32:00     -159.918      320.148      -47.215       94.685      155.561       72.817     8965.196    24199.318     5302.321        8.438        1.923      357.866       67.392        0.035      341.826       16.803      861.484
05/08/2013  20:33:00     -135.068      232.572      -17.385      110.627      111.456       69.021    12238.263    12422.415     4763.932        5.102        1.471      268.948       72.541        0.073      341.841       16.830      861.478
05/08/2013  20:34:00     -165.774      338.114      -37.466      101.029      134.362       66.025    10206.847    18053.024     4359.362        8.791        1.631      376.567       60.080        0.025      341.791       16.745      861.470
05/08/2013  20:35:00     -152.454      269.180      -39.569       97.026      118.052       60.494     9414.030    13936.342     3659.562        6.213        1.350      309.354       60.997        0.039      341.783       16.730      861.474
05/08/2013  20:36:00     -123.746      264.890      -18.646       86.082      124.095       61.830     7410.117    15399.465     3822.986        5.623        1.332      292.369       54.417        0.035      341.796       16.754      861.472
05/08/2013  20:37:00      -71.800       84.800        3.933       74.293      111.589       53.158     5519.454    12452.115     2825.822        1.658        1.040      111.114       50.495        0.207      341.816       16.790      861.478
05/08/2013  20:38:00     -158.366      259.198      -45.272       71.817       80.676       54.047     5157.633     6508.648     2921.110        5.445        0.729      303.748       46.899        0.024      341.761       16.693      861.486
05/08/2013  20:39:00     -140.246      188.755      -27.976       97.063      104.075       61.260     9421.262    10831.539     3752.752        4.004        1.200      235.154       60.973        0.067      341.728       16.640      861.476
05/08/2013  20:40:00     -204.802      369.477      -53.068       99.178      116.073       58.461     9836.288    13472.836     3417.709       10.400        1.336      422.442       45.387        0.012      341.711       16.609      861.498
05/08/2013  20:41:00     -166.921      325.482      -44.785       80.556      116.802       67.245     6489.247    13642.751     4521.939        8.023        1.233      365.788       55.210        0.023      341.699       16.590      861.504
05/08/2013  20:42:00     -148.311      287.687      -30.849       93.892      149.966       63.283     8815.620    22489.950     4004.723        7.051        1.766      323.667       73.251        0.051      341.696       16.585      861.514
05/08/2013  20:43:00     -111.815      209.751      -18.563       81.153      120.529       55.708     6585.753    14527.138     3103.340        4.053        1.211      237.693       58.533        0.061      341.689       16.573      861.531
05/08/2013  20:44:00     -126.409      268.673      -22.165       87.479      154.603       55.385     7652.576    23902.120     3067.476        6.163        1.731      296.925       61.596        0.043      341.685       16.567      861.542
05/08/2013  20:45:00     -227.089      214.403      -42.657      115.538      108.377       66.166    13348.979    11745.547     4377.976        6.441        1.474      312.311       60.703        0.038      341.655       16.516      861.543
05/08/2013  20:46:00     -165.277      253.748      -33.118      112.218      117.355       55.424    12592.813    13772.293     3071.817        6.111        1.472      302.828       60.564        0.040      341.690       16.576      861.534
05/08/2013  20:47:00     -123.256      241.495      -19.451       62.368      117.760       53.423     3889.810    13867.401     2853.965        4.725        1.031      271.131       38.359        0.020      341.693       16.582      861.540
05/08/2013  20:48:00     -161.720      200.961      -27.340      111.910      133.859       61.901    12523.823    17918.324     3831.768        5.077        1.714      257.951       52.996        0.042      341.696       16.588      861.554
05/08/2013  20:49:00     -210.690      312.617      -38.435      135.116      145.988       78.641    18256.201    21312.461     6184.467        9.467        2.288      376.988       84.998        0.051      341.656       16.515      861.546
05/08/2013  20:50:00     -256.963      266.609      -58.042      122.447      123.227       72.622    14993.206    15184.778     5273.894        8.796        1.773      370.284       77.638        0.044      341.637       16.484      861.566
05/08/2013  20:51:00     -230.739      259.114      -44.830       90.971      122.231       74.154     8275.644    14940.533     5498.835        7.555        1.436      346.959       57.661        0.028      341.652       16.512      861.567
05/08/2013  20:52:00     -262.064      259.889      -48.426      146.971      135.707       77.846    21600.456    18416.292     6060.049        9.231        2.304      369.080       86.490        0.055      341.649       16.506      861.583
05/08/2013  20:53:00     -158.171      358.370      -45.444      100.676      144.318       61.855    10135.591    20827.744     3826.060        9.515        1.739      391.723       56.997        0.021      341.637       16.487      861.592
05/08/2013  20:54:00     -204.346      363.083      -56.945      103.748      140.916       82.186    10763.656    19857.211     6754.478       10.710        1.869      416.637       81.599        0.038      341.617       16.450      861.598
05/08/2013  20:55:00      -90.415      153.821       -3.207       73.777      101.206       59.104     5443.009    10242.590     3493.290        2.551        0.959      178.426       50.442        0.080      341.658       16.522      861.593
05/08/2013  20:56:00     -111.790      235.226      -19.639      106.457      133.230       69.508    11333.123    17750.165     4831.368        5.106        1.696      260.438       72.297        0.077      341.661       16.526      861.578
05/08/2013  20:57:00     -177.180      235.144      -38.747       76.328      107.986       50.528     5825.891    11660.887     2553.045        5.411        1.002      294.424       42.248        0.021      341.685       16.566      861.595
05/08/2013  20:58:00     -242.711      299.893      -63.220       96.888      109.360       56.835     9387.367    11959.533     3230.226        8.871        1.229      385.804       50.290        0.017      341.673       16.545      861.596
05/08/2013  20:59:00     -157.021      301.914      -37.506      101.701      145.369       66.961    10343.066    21132.141     4483.717        7.658        1.798      340.306       62.436        0.034      341.664       16.531      861.608
05/08/2013  21:00:00     -149.671      217.016      -31.035       87.950      160.057       57.793     7735.196    25618.363     3339.980        5.357        1.835      263.624       74.585        0.080      341.677       16.553      861.610
05/08/2013  21:01:00     -179.079      209.237      -37.010       85.964      102.407       52.233     7389.860    10487.273     2728.318        4.891        1.030      275.408       46.691        0.029      341.674       16.548      861.635
05/08/2013  21:02:00     -123.124      225.901      -29.091       78.810      119.266       62.033     6210.942    14224.426     3848.063        4.566        1.214      257.276       60.294        0.055      341.690       16.574      861.643
05/08/2013  21:03:00     -100.498      150.537      -13.452       91.083       95.865       52.184     8296.041     9190.047     2723.146        2.657        1.010      181.001       47.360        0.068      341.659       16.525      861.658
05/08/2013  21:04:00     -195.603      349.492      -50.688      109.051      155.775       71.301    11892.200    24265.745     5083.878       10.210        2.062      400.506       62.419        0.024      341.616       16.450      861.674
05/08/2013  21:05:00     -118.018      202.214      -28.663       84.213       93.940       52.467     7091.778     8824.797     2752.766        3.715        0.933      234.134       53.918        0.053      341.611       16.440      861.702
05/08/2013  21:06:00     -149.751      235.887      -19.775      101.198      126.945       66.156    10240.943    16115.055     4376.564        5.459        1.537      279.407       52.375        0.035      341.604       16.427      861.723
05/08/2013  21:07:00     -171.021      212.172      -39.864      104.720       98.165       56.123    10966.189     9636.369     3149.834        4.980        1.188      272.517       56.915        0.044      341.568       16.367      861.747
05/08/2013  21:08:00     -138.844      134.158      -15.994       96.375      100.420       60.937     9288.166    10084.207     3713.284        3.030        1.154      193.070       48.050        0.062      341.534       16.311      861.740
05/08/2013  21:09:00     -196.859      272.914      -50.061      134.698      105.420       71.321    18143.420    11113.359     5086.711        7.504        1.717      336.505       67.530        0.040      341.467       16.195      861.752
05/08/2013  21:10:00     -180.112      211.244      -30.346      120.372      128.595       70.625    14489.485    16536.765     4987.824        5.699        1.801      277.604       80.552        0.084      341.426       16.127      861.758
05/08/2013  21:11:00     -139.146      156.192      -26.463       83.333       91.654       51.014     6944.440     8400.379     2602.429        3.120        0.897      209.183       47.341        0.051      341.447       16.164      861.754
05/08/2013  21:12:00     -166.026      183.844      -35.459       72.223      134.318       57.039     5216.194    18041.299     3253.486        4.456        1.326      247.716       53.738        0.047      341.415       16.107      861.768
05/08/2013  21:13:00     -154.842      142.307       -7.042      131.756      151.498       80.266    17359.739    22951.694     6442.645        4.551        2.338      210.303       80.073        0.145      341.406       16.091      861.754
05/08/2013  21:14:00     -297.898      261.147      -72.943      152.401      152.441       74.424    23226.104    23238.267     5538.967       10.712        2.600      396.157       98.967        0.062      341.373       16.037      861.799
05/08/2013  21:15:00     -208.197      219.542      -47.985      101.256      107.583       62.979    10252.843    11574.088     3966.357        5.982        1.290      302.564       58.855        0.038      341.383       16.052      861.808
05/08/2013  21:16:00     -223.396      191.921      -49.129       85.175       95.026       55.443     7254.855     9030.010     3073.937        5.425        0.968      294.515       44.503        0.023      341.355       16.007      861.835
05/08/2013  21:17:00     -184.076      160.038      -43.173       82.824      135.047       68.889     6859.746    18237.710     4745.749        4.560        1.492      243.918       67.160        0.076      341.353       16.003      861.856
05/08/2013  21:18:00     -187.173      152.798      -31.770      140.388       69.762       62.141    19708.762     4866.798     3861.478        4.391        1.422      241.621       66.614        0.076      341.329       15.965      861.860
05/08/2013  21:19:00     -180.204       62.601      -25.020       86.527       69.055       48.581     7486.964     4768.533     2360.082        2.581        0.731      190.768       42.705        0.050      341.365       16.026      861.910
05/08/2013  21:20:00     -149.634       77.133      -18.426       90.653       86.014       45.995     8218.014     7398.359     2115.537        2.320        0.887      168.344       28.185        0.028      341.395       16.075      861.936
05/08/2013  21:21:00     -203.841       -3.090      -18.887      104.751       79.444       57.449    10972.873     6311.344     3300.382        3.125        1.029      203.864       47.727        0.055      341.409       16.098      861.978
05/08/2013  21:22:00     -171.511       20.093      -26.512       76.813      100.690       41.798     5900.287    10138.453     1747.095        2.415        0.889      172.684       33.434        0.037      341.418       16.115      861.997
05/08/2013  21:23:00     -212.653      -81.631       -3.753       80.844       69.857       45.982     6535.819     4879.953     2114.303        3.271        0.677      227.783       40.812        0.032      341.399       16.081      862.019
05/08/2013  21:24:00     -132.735      -75.352        5.457       95.297       72.991       50.499     9081.474     5327.641     2550.149        2.014        0.848      152.632       58.103        0.145      341.366       16.027      862.040
05/08/2013  21:25:00     -169.883      -83.848       -8.750       93.364       61.571       40.025     8716.883     3790.954     1602.009        2.504        0.705      189.448       37.334        0.039      341.368       16.030      862.062
05/08/2013  21:26:00     -272.696      -25.548      -25.419      119.133       73.461       48.091    14192.589     5396.527     2312.790        4.878        1.095      273.890       58.208        0.045      341.373       16.037      862.093
05/08/2013  21:27:00     -216.516      -61.674       -5.536      135.181      116.021       51.150    18273.783    13460.757     2616.336        4.253        1.718      225.129       34.011        0.023      341.343       15.988      862.099
05/08/2013  21:28:00     -281.985      -96.268      -16.018      141.805      100.058       67.904    20108.779    10011.639     4610.899        6.188        1.737      297.965       82.491        0.077      341.293       15.903      862.100
05/08/2013  21:29:00     -350.990      -26.214      -43.340       81.126       83.639       39.676     6581.493     6995.408     1574.219        7.045        0.758      351.967       39.393        0.013      341.351       15.999      862.116
05/08/2013  21:30:00     -270.069      -58.517       -9.880      112.902       88.944       50.478    12746.856     7911.050     2547.983        4.983        1.160      276.336       48.504        0.031      341.389       16.064      862.118
05/08/2013  21:31:00     -235.700      -49.256       -1.771      133.470       75.627       43.490    17814.153     5719.430     1891.383        4.170        1.271      240.792       59.571        0.061      341.410       16.101      862.111
05/08/2013  21:32:00     -192.493       -1.882       -0.499       94.862       61.511       47.632     8998.832     3783.661     2268.818        2.605        0.753      192.503       49.292        0.066      341.446       16.160      862.116
05/08/2013  21:33:00     -162.240      -42.678      -15.210       65.822       57.896       34.727     4332.601     3351.989     1205.944        1.863        0.445      167.759       33.125        0.039      341.458       16.183      862.134
05/08/2013  21:34:00     -284.534      -54.338      -33.617      122.854       82.438       53.727    15093.104     6796.004     2886.634        5.490        1.239      289.676       64.070        0.049      341.499       16.250      862.128
05/08/2013  21:35:00     -354.701     -113.631       -9.912      103.867      101.745       62.720    10788.315    10351.948     3933.761        8.194        1.254      372.458       56.846        0.023      341.563       16.360      862.139
05/08/2013  21:36:00     -124.073      -19.857        9.568       91.515       73.139       47.654     8374.908     5349.270     2270.904        1.593        0.800      125.652       41.510        0.109      341.523       16.292      862.150
05/08/2013  21:37:00     -188.023      -96.654       11.274      130.395       88.088       54.624    17002.961     7759.433     2983.750        3.628        1.387      211.411       51.284        0.059      341.582       16.390      862.176
05/08/2013  21:38:00     -189.243     -128.123      -10.323      124.360       97.470       55.622    15465.484     9500.330     3093.826        4.019        1.403      228.536       60.067        0.069      341.665       16.533      862.166
05/08/2013  21:39:00     -222.031     -121.843        5.415      122.368       66.505       55.643    14974.024     4422.949     3096.191        4.333        1.125      253.266       65.969        0.068      341.664       16.530      862.178
05/08/2013  21:40:00     -258.283      -24.007      -25.714      123.182       75.141       45.083    15173.792     5646.175     2032.487        4.540        1.143      259.396       51.020        0.039      341.654       16.515      862.225
05/08/2013  21:41:00     -235.840      -83.487      -15.975       84.279       80.752       35.652     7102.947     6520.913     1271.060        3.887        0.745      250.181       24.723        0.010      341.630       16.473      862.243
05/08/2013  21:42:00     -193.623      -80.379      -13.093      132.742       63.486       42.842    17620.484     4030.414     1835.429        3.380        1.174      209.644       57.042        0.074      341.586       16.398      862.256
05/08/2013  21:43:00     -150.790      -38.734       -5.037      103.452       81.281       49.812    10702.251     6606.590     2481.203        2.202        0.990      155.686       53.407        0.118      341.558       16.352      862.293
05/08/2013  21:44:00     -173.121      -65.277       -6.425       81.427       60.825       32.529     6630.376     3699.677     1058.121        2.283        0.569      185.019       34.340        0.034      341.545       16.330      862.329
05/08/2013  21:45:00     -131.988       11.747       -6.310       48.082       70.249       31.575     2311.838     4934.886      996.961        1.292        0.412      132.510       24.482        0.034      341.567       16.368      862.353
05/08/2013  21:46:00     -233.024      -26.651      -21.213       84.868       81.734       36.843     7202.635     6680.370     1357.441        3.535        0.762      234.543       34.208        0.021      341.538       16.316      862.380
05/08/2013  21:47:00     -184.757        5.755      -21.125       84.391       56.039       34.985     7121.907     3140.361     1223.925        2.305        0.574      184.846       28.784        0.024      341.509       16.268      862.419
05/08/2013  21:48:00     -134.546      -21.425       -4.689       56.044       65.511       30.080     3140.968     4291.701      904.826        1.346        0.417      136.241       24.435        0.032      341.507       16.265      862.446
05/08/2013  21:49:00     -130.280       10.044      -20.935       68.547       75.821       33.620     4698.667     5748.797     1130.321        1.454        0.579      130.666       17.553        0.018      341.535       16.314      862.470
05/08/2013  21:50:00     -203.146      -51.174      -20.837       93.154      133.231       37.176     8677.692    17750.589     1382.023        3.606        1.391      209.493       23.963        0.013      341.493       16.242      862.493
05/08/2013  21:51:00     -342.295       -9.264      -48.070       71.394       52.162       39.927     5097.171     2720.849     1594.166        6.449        0.471      342.421       28.864        0.007      341.547       16.331      862.513
05/08/2013  21:52:00     -127.722      -99.974      -11.545       80.979       43.801       35.612     6557.550     1918.493     1268.185        1.809        0.487      162.197       34.322        0.045      341.646       16.502      862.512
05/08/2013  21:53:00     -103.899      -63.739        3.078       76.160       60.551       34.328     5800.332     3666.420     1178.429        1.275        0.532      121.892       26.457        0.047      341.670       16.542      862.498
05/08/2013  21:54:00      -39.156      -39.868       13.573       59.925       79.465       41.410     3591.028     6314.704     1714.764        0.746        0.581       55.881       37.253        0.444      341.587       16.403      862.521
05/08/2013  21:55:00     -152.432      -15.320      -10.278       85.496       49.876       28.498     7309.543     2487.591      812.139        1.709        0.530      153.200       25.985        0.029      341.519       16.286      862.540
05/08/2013  21:56:00     -139.368      -58.420       -2.364       62.391       65.919       31.050     3892.695     4345.300      964.097        1.602        0.460      151.117       22.254        0.022      341.411       16.105      862.552
05/08/2013  21:57:00     -184.016      -34.639      -18.324       43.630       64.780       30.521     1903.552     4196.438      931.535        2.121        0.352      187.248       23.185        0.015      341.396       16.076      862.560
05/08/2013  21:58:00     -177.603      -68.222       -1.726       86.292       60.605       44.778     7446.308     3672.906     2005.087        2.466        0.656      190.255       43.783        0.053      341.341       15.985      862.580
05/08/2013  21:59:00     -195.952      -58.493      -18.270       72.507       63.008       39.970     5257.314     3970.024     1597.630        2.649        0.541      204.496       35.146        0.030      341.342       15.984      862.601
05/08/2013  22:00:00     -190.485      -21.172       -6.051       72.795       60.082       37.789     5299.102     3609.801     1428.046        2.355        0.517      191.658       36.262        0.036      341.322       15.953      862.626
05/08/2013  22:01:00     -240.380      -83.231      -13.961       73.612       51.724       35.341     5418.739     2675.346     1248.974        3.712        0.467      254.381       26.852        0.011      341.338       15.979      862.645
05/08/2013  22:02:00     -222.294     -102.286        9.115      115.377       79.150       47.603    13311.962     6264.800     2266.040        4.090        1.092      244.698       50.179        0.042      341.311       15.933      862.665
05/08/2013  22:03:00     -333.611      -84.081      -16.232      101.941       85.444       51.637    10391.887     7300.629     2666.395        6.949        1.018      344.043       55.965        0.026      341.314       15.937      862.691
05/08/2013  22:04:00     -282.633      -39.666      -14.936       97.614       93.450       50.441     9528.401     8732.935     2544.340        5.124        1.040      285.403       53.612        0.035      341.292       15.898      862.716
05/08/2013  22:05:00     -200.489     -107.560        6.594       90.278       67.947       45.812     8150.166     4616.785     2098.770        3.333        0.743      227.519       42.688        0.035      341.262       15.850      862.738
05/08/2013  22:06:00     -143.496      -51.174       -0.183       92.690       65.480       41.112     8591.413     4287.605     1690.212        1.889        0.728      152.348       35.157        0.053      341.252       15.834      862.772
05/08/2013  22:07:00     -170.538        0.887      -15.243       86.673       64.033       37.634     7512.132     4100.256     1416.297        2.117        0.651      170.540       43.384        0.065      341.229       15.795      862.818
05/08/2013  22:08:00     -175.522      -71.339       -9.275       55.171       61.834       35.603     3043.888     3823.493     1267.591        2.206        0.407      189.466       29.612        0.024      341.218       15.776      862.850
05/08/2013  22:09:00     -191.980      -89.925      -13.358       50.363       51.583       33.764     2536.474     2660.822     1140.033        2.573        0.317      211.997       25.766        0.015      341.223       15.783      862.876
05/08/2013  22:10:00     -256.062      -32.749      -18.990       47.016       47.571       32.442     2210.518     2263.033     1052.467        3.626        0.276      258.148       26.281        0.010      341.178       15.708      862.901
05/08/2013  22:11:00     -165.329      -24.387        1.431       78.801       59.048       40.655     6209.519     3486.694     1652.794        1.964        0.567      167.118       44.832        0.072      341.141       15.645      862.908
05/08/2013  22:12:00     -194.291       -8.227      -21.117       42.743       59.092       36.752     1826.959     3491.842     1350.691        2.246        0.333      194.465       23.363        0.014      341.162       15.680      862.910
05/08/2013  22:13:00     -269.785       -5.274      -30.877       62.903       49.162       31.103     3956.732     2416.943      967.398        4.055        0.367      269.837       25.746        0.009      341.135       15.632      862.911
05/08/2013  22:14:00     -205.779      -55.455       -8.603       61.439       71.621       37.841     3774.722     5129.602     1431.907        2.791        0.517      213.121       32.000        0.023      341.113       15.598      862.897
05/08/2013  22:15:00     -183.011      -69.403        3.149       88.985       75.168       43.369     7918.299     5650.250     1880.857        2.688        0.772      195.729       45.259        0.053      341.130       15.625      862.894
05/08/2013  22:16:00     -148.486      -91.271        0.815       66.710       67.015       34.525     4450.231     4490.949     1191.957        2.025        0.507      174.294       41.134        0.056      341.136       15.638      862.885
05/08/2013  22:17:00      -76.991      -69.344       -0.464       50.159       58.450       37.456     2515.911     3416.370     1402.984        0.903        0.367      103.616       37.157        0.129      341.156       15.673      862.894
05/08/2013  22:18:00     -158.883       23.834      -14.383       62.719       49.682       23.983     3933.734     2468.326      575.175        1.650        0.349      160.661       23.067        0.021      341.123       15.617      862.927
05/08/2013  22:19:00     -185.247      -14.401      -23.057       65.225       91.691       32.746     4254.365     8407.297     1072.306        2.439        0.687      185.806       28.918        0.024      341.121       15.612      862.957
05/08/2013  22:20:00     -269.374      -69.411      -24.061       94.919       79.022       50.584     9009.536     6244.420     2558.700        4.788        0.891      278.173       43.578        0.025      341.099       15.574      862.969
05/08/2013  22:21:00      -70.170      -51.138        9.010       99.727       60.483       45.643     9945.434     3658.179     2083.256        1.165        0.784       86.827       47.464        0.299      341.092       15.564      862.971
05/08/2013  22:22:00     -256.223      -86.459      -15.726       73.203       65.828       38.957     5358.629     4333.262     1517.678        4.229        0.560      270.417       38.292        0.020      341.090       15.556      862.980
05/08/2013  22:23:00     -268.922      -43.829      -23.134       74.387       73.196       34.992     5533.483     5357.638     1224.438        4.344        0.606      272.470       35.010        0.017      341.089       15.555      863.001
05/08/2013  22:24:00     -259.641      -49.109      -13.583       88.994       69.280       36.826     7919.877     4799.733     1356.182        4.204        0.704      264.245       40.275        0.023      341.052       15.495      863.007
05/08/2013  22:25:00     -204.003      -47.158       -6.237       93.353       64.519       40.466     8714.854     4162.736     1637.528        2.920        0.726      209.382       46.154        0.049      341.015       15.429      863.017
05/08/2013  22:26:00     -117.126      -40.891        5.186       78.600       56.387       31.604     6177.991     3179.499      998.783        1.289        0.518      124.059       38.612        0.097      341.012       15.431      863.030
05/08/2013  22:27:00     -147.062      -67.740        1.187       50.579       55.552       27.084     2558.221     3086.066      733.527        1.630        0.319      161.913       24.887        0.024      341.008       15.424      863.048
05/08/2013  22:28:00     -203.463        4.498      -14.711       67.719       42.754       34.137     4585.902     1827.933     1165.328        2.461        0.379      203.512       35.767        0.031      341.029       15.457      863.086
05/08/2013  22:29:00     -124.868        2.222      -15.130       51.628       50.263       30.859     2665.456     2526.353      952.252        1.098        0.307      124.887       31.651        0.064      341.026       15.453      863.132
05/08/2013  22:30:00      -52.944      -32.185      -14.414       44.539       32.082       32.667     1983.754     1029.230     1067.164        0.406        0.204       61.959       30.558        0.243      341.061       15.512      863.143
05/08/2013  22:31:00     -166.342        7.322      -18.121      131.143       66.275       43.416    17198.364     4392.418     1884.929        2.576        1.174      166.503       54.895        0.109      341.020       15.439      863.149
05/08/2013  22:32:00     -141.491      -64.694       -2.845       82.292       48.206       35.952     6771.990     2323.849     1292.548        1.730        0.519      155.580       37.908        0.059      340.933       15.295      863.155
05/08/2013  22:33:00     -178.002      -43.808      -16.310       56.745       51.132       29.726     3219.982     2614.506      883.606        2.029        0.336      183.314       24.910        0.018      340.939       15.305      863.165
05/08/2013  22:34:00     -184.086      -48.065      -11.737       85.260       59.824       35.802     7269.187     3578.965     1281.810        2.423        0.606      190.257       25.889        0.019      340.942       15.309      863.211
05/08/2013  22:35:00      -89.343       -4.600        0.517       72.619       60.617       39.756     5273.535     3674.478     1580.515        0.926        0.526       89.462       27.876        0.097      340.886       15.217      863.232
05/08/2013  22:36:00     -139.251      -76.707       -0.790      135.522       59.472       47.740    18366.146     3536.947     2279.099        2.472        1.209      158.981       57.367        0.130      340.920       15.272      863.241
05/08/2013  22:37:00     -323.934      -61.464      -31.501       60.670       87.100       40.282     3680.902     7586.377     1622.649        6.129        0.644      329.713       28.533        0.007      340.860       15.167      863.256
05/08/2013  22:38:00     -223.035      -14.543      -26.429       96.794       64.637       44.716     9369.165     4177.923     1999.545        3.310        0.777      223.508       44.613        0.040      340.828       15.116      863.254
05/08/2013  22:39:00     -213.631      -62.065        1.296      148.478       73.700       47.874    22045.699     5431.714     2291.941        3.963        1.488      222.464       66.056        0.088      340.851       15.153      863.252
05/08/2013  22:40:00     -239.871      -48.902       -7.939       94.646       59.985       45.388     8957.836     3598.189     2060.080        3.730        0.731      244.806       48.814        0.040      340.840       15.135      863.271
05/08/2013  22:41:00     -135.249      -54.852       13.335      125.548       69.672       45.679    15762.270     4854.223     2086.578        2.209        1.135      145.949       58.681        0.162      340.820       15.103      863.272
05/08/2013  22:42:00     -292.722      -59.718       -8.044      105.417       71.110       43.712    11112.780     5056.662     1910.703        5.370        0.904      298.752       44.955        0.023      340.877       15.197      863.287
05/08/2013  22:43:00     -235.489      -47.385      -17.745       70.667       51.249       35.984     4993.775     2626.476     1294.844        3.346        0.446      240.209       31.259        0.017      340.874       15.192      863.309
05/08/2013  22:44:00     -156.097        4.387      -10.811       70.615       45.589       33.120     4986.443     2078.394     1096.948        1.633        0.408      156.159       34.508        0.049      340.814       15.093      863.295
05/08/2013  22:45:00      -31.867      -28.478       14.532       65.023       46.368       35.146     4227.964     2150.002     1235.255        0.482        0.381       42.737       34.847        0.665      340.811       15.089      863.276
05/08/2013  22:46:00     -233.549      -35.699       -5.523       60.406       48.595       33.873     3648.925     2361.462     1147.396        3.150        0.358      236.262       25.259        0.011      340.825       15.108      863.301
05/08/2013  22:47:00     -189.530      -86.650      -12.011       66.335       48.706       30.967     4400.314     2372.228      958.952        2.565        0.387      208.398       24.343        0.014      340.804       15.075      863.327
05/08/2013  22:48:00     -128.053      -34.788      -19.921       32.021       36.015       19.417     1025.347     1297.086      377.008        1.035        0.135      132.694       14.385        0.012      340.802       15.073      863.344
05/08/2013  22:49:00      -93.965      -53.398       -9.659       41.500       36.114       20.678     1722.261     1304.214      427.586        0.761        0.173      108.078       14.594        0.018      340.802       15.074      863.346
05/08/2013  22:50:00     -109.332      -75.421       -7.788       50.457       34.799       23.860     2545.947     1210.970      569.287        1.101        0.216      132.822       24.398        0.034      340.773       15.026      863.347
05/08/2013  22:51:00     -124.131      -24.225       -9.008       34.212       38.262       21.189     1170.464     1463.969      448.992        0.958        0.154      126.473       16.615        0.017      340.793       15.060      863.362
05/08/2013  22:52:00      -89.722       -1.964       -2.183       26.888       34.347       21.402      722.968     1179.729      458.043        0.521        0.118       89.744       22.277        0.062      340.754       14.993      863.371
05/08/2013  22:53:00     -155.874      -32.475      -13.763       58.421       62.380       20.031     3413.061     3891.228      401.222        1.662        0.385      159.221       16.475        0.011      340.784       15.044      863.371
05/08/2013  22:54:00     -159.702      -25.611       -8.549       62.398       55.148       32.217     3893.507     3041.305     1037.912        1.710        0.399      161.742       25.404        0.025      340.717       14.929      863.361
05/08/2013  22:55:00     -171.432       34.247      -14.870       30.606       33.177       17.075      936.751     1100.695      291.558        1.656        0.116      174.819       12.189        0.005      340.703       14.906      863.347
05/08/2013  22:56:00      -71.488       41.365        1.821       36.001       38.912       23.810     1296.049     1514.170      566.915        0.510        0.169       82.593       19.783        0.057      340.630       14.784      863.331
05/08/2013  22:57:00     -123.420       60.319      -15.260       41.865       30.084       23.486     1752.715      905.028      551.589        1.116        0.160      137.371       22.388        0.027      340.668       14.847      863.324
05/08/2013  22:58:00      -90.412       14.327      -10.891       24.192       40.943       12.965      585.251     1676.355      168.085        0.546        0.121       91.540        8.681        0.009      340.699       14.901      863.317
05/08/2013  22:59:00      -76.197       17.833       -6.319       27.963       43.310       14.804      781.937     1875.783      219.147        0.452        0.144       78.256       11.351        0.021      340.718       14.931      863.304
05/08/2013  23:00:00      -97.956      -37.187       -9.139       22.967       26.910       20.116      527.506      724.148      404.661        0.636        0.083      104.778       16.817        0.026      340.747       14.980      863.311
05/08/2013  23:01:00     -101.307      -29.125       -4.447       42.866       40.802       16.858     1837.526     1664.767      284.178        0.746        0.189      105.410       20.257        0.037      340.767       15.015      863.323
05/08/2013  23:02:00      -97.262      -14.327       -9.071       52.458       33.664       18.169     2751.801     1133.281      330.121        0.698        0.211       98.311       18.263        0.035      340.768       15.016      863.338
05/08/2013  23:03:00     -195.164       38.471      -15.892       34.875       42.221       23.756     1216.279     1782.595      564.335        2.169        0.178      198.920       19.656        0.010      340.724       14.942      863.350
05/08/2013  23:04:00     -165.127       66.292      -12.233       44.519       31.237       28.913     1981.927      975.751      835.957        1.780        0.190      177.937       18.568        0.011      340.654       14.823      863.340
05/08/2013  23:05:00     -129.590       29.987       -9.498       32.219       22.229       15.581     1038.053      494.114      242.777        0.978        0.089      133.014       17.530        0.017      340.657       14.829      863.341
05/08/2013  23:06:00      -93.113       12.236       -6.986       34.249       26.750       14.469     1172.971      715.546      209.350        0.548        0.105       93.914       16.335        0.030      340.670       14.851      863.358
05/08/2013  23:07:00      -88.184      -41.608      -16.273       31.235       27.693       20.011      975.648      766.885      400.431        0.596        0.107       97.507       12.814        0.017      340.723       14.942      863.352
05/08/2013  23:08:00     -108.638      -44.652      -12.983       31.636       38.192       24.392     1000.857     1458.603      594.993        0.851        0.153      117.457       12.232        0.011      340.704       14.908      863.354
05/08/2013  23:09:00     -109.756       45.804       -9.609       35.370       35.686       22.232     1251.048     1273.475      494.257        0.863        0.151      118.930       13.503        0.013      340.580       14.698      863.348
05/08/2013  23:10:00      -92.021       59.024      -12.048       35.509       31.797       20.464     1260.910     1011.060      418.787        0.739        0.135      109.324       17.394        0.025      340.532       14.616      863.359
05/08/2013  23:11:00      -96.367       67.678      -17.701       40.941       53.436       24.510     1676.142     2855.413      600.752        0.966        0.257      117.758       21.541        0.033      340.566       14.676      863.367
05/08/2013  23:12:00      -58.250      -20.483        2.771       47.763       32.456       21.791     2281.322     1053.398      474.846        0.381        0.190       61.747       22.799        0.136      340.601       14.736      863.348
05/08/2013  23:13:00     -138.580      -10.364      -13.279       48.049       42.879       23.940     2308.716     1838.574      573.122        1.210        0.236      138.967       19.838        0.020      340.551       14.649      863.349
05/08/2013  23:14:00     -159.426        1.279      -10.100       62.657       41.765       26.931     3925.889     1744.286      725.301        1.596        0.320      159.431       32.641        0.042      340.516       14.591      863.354
05/08/2013  23:15:00     -122.271      -55.342      -13.866       37.707       30.206       20.999     1421.839      912.402      440.958        1.049        0.139      134.212       18.801        0.020      340.522       14.602      863.350
05/08/2013  23:16:00     -115.670      -18.854      -10.581       18.218       15.814       13.092      331.908      250.079      171.395        0.730        0.038      117.197        8.010        0.005      340.463       14.499      863.351
05/08/2013  23:17:00     -154.808      -25.225      -12.483       41.480       36.513       24.845     1720.555     1333.213      617.273        1.421        0.184      156.849       22.949        0.021      340.487       14.540      863.364
05/08/2013  23:18:00     -131.370      -23.608      -11.116       44.559       35.912       22.661     1985.469     1289.650      513.515        1.086        0.189      133.475       10.835        0.007      340.479       14.526      863.366
05/08/2013  23:19:00      -94.795      -41.374       -4.004       35.718       39.215       18.442     1275.795     1537.792      340.125        0.693        0.158      103.431       11.706        0.013      340.458       14.492      863.374
05/08/2013  23:20:00      -95.492      -37.573       -3.260       50.850       35.107       20.870     2585.736     1232.517      435.549        0.740        0.213      102.618       16.936        0.027      340.478       14.526      863.379
05/08/2013  23:21:00     -211.300      -31.155      -22.523       43.950       27.599       27.231     1931.600      761.717      741.521        2.478        0.172      213.584       25.474        0.014      340.477       14.521      863.378
05/08/2013  23:22:00     -134.161      -10.567       -9.277       57.907       28.865       25.060     3353.201      833.174      628.003        1.150        0.241      134.577       22.459        0.028      340.468       14.507      863.381
05/08/2013  23:23:00      -72.326      -30.947       -2.698       32.708       31.527       21.802     1069.798      993.925      475.335        0.437        0.127       78.669       15.872        0.041      340.467       14.506      863.377
05/08/2013  23:24:00      -75.755       73.825      -14.869       28.407       44.121       16.606      806.952     1946.682      275.763        0.722        0.151      105.778       22.015        0.043      340.466       14.507      863.394
05/08/2013  23:25:00     -110.571      112.754      -23.153       26.730       47.045       26.589      714.493     2213.244      706.973        1.455        0.182      157.922       22.729        0.021      340.436       14.454      863.405
05/08/2013  23:26:00      -84.738      125.989      -18.070       36.154       33.423       19.082     1307.112     1117.073      364.120        1.308        0.139      151.835       17.852        0.014      340.453       14.482      863.404
05/08/2013  23:27:00      -61.000       93.418      -16.600       28.815       33.953       20.467      830.316     1152.812      418.886        0.756        0.120      111.570       16.168        0.021      340.444       14.468      863.409
05/08/2013  23:28:00      -58.490       65.187       -0.907       36.172       37.427       25.727     1308.441     1400.770      661.878        0.552        0.169       87.581       26.263        0.090      340.405       14.401      863.403
05/08/2013  23:29:00      -93.779       78.365      -14.410       36.089       64.494       30.713     1302.451     4159.529      943.291        1.077        0.320      122.211       25.103        0.042      340.505       14.570      863.421
05/08/2013  23:30:00      -88.724      -38.563       -5.897       61.581       30.305       24.794     3792.230      918.422      614.744        0.736        0.266       96.742       29.109        0.091      340.487       14.541      863.426
05/08/2013  23:31:00      -14.889      -11.579       10.265       51.082       46.827       26.456     2609.323     2192.801      699.923        0.298        0.275       18.861       31.264        2.747      340.417       14.424      863.429
05/08/2013  23:32:00     -125.073       41.072      -15.687       32.792       38.911       23.414     1075.330     1514.032      548.229        1.036        0.157      131.644       16.525        0.016      340.371       14.346      863.439
05/08/2013  23:33:00     -114.746       38.970      -13.246       37.998       36.365       22.174     1443.858     1322.386      491.696        0.906        0.163      121.183       20.526        0.029      340.387       14.374      863.447
05/08/2013  23:34:00      -73.675       -2.981       -3.477       40.476       31.703       29.682     1638.339     1005.095      880.996        0.449        0.176       73.735       20.578        0.078      340.449       14.477      863.424
05/08/2013  23:35:00     -134.325      -13.031      -13.747       40.475       45.034       23.711     1638.227     2028.044      562.218        1.131        0.211      134.956       18.992        0.020      340.432       14.447      863.411
05/08/2013  23:36:00     -169.026      -51.422       -9.533       39.000       31.311       24.477     1521.011      980.351      599.136        1.720        0.155      176.675       23.033        0.017      340.406       14.403      863.420
05/08/2013  23:37:00     -150.141      -42.198       -8.449       45.232       39.794       19.715     2045.938     1583.542      388.662        1.421        0.201      155.958       19.920        0.016      340.332       14.279      863.413
05/08/2013  23:38:00     -170.122        4.161      -12.413       35.221       37.313       23.468     1240.531     1392.285      550.725        1.615        0.159      170.172       18.730        0.012      340.354       14.315      863.418
05/08/2013  23:39:00      -84.137       43.857      -20.049       42.793       33.869       23.830     1831.256     1147.111      567.874        0.647        0.177       94.882       19.673        0.043      340.336       14.285      863.441
05/08/2013  23:40:00      -91.263        8.603       -8.012       38.775       45.091       23.509     1503.530     2033.237      552.656        0.628        0.204       91.667       22.626        0.061      340.327       14.271      863.461
05/08/2013  23:41:00     -100.800      -39.907       -5.912       52.233       49.723       28.403     2728.279     2472.414      806.706        0.890        0.300      108.412       24.525        0.051      340.314       14.248      863.452
05/08/2013  23:42:00     -156.925      -31.266      -15.115       43.702       51.269       36.755     1909.867     2628.553     1350.918        1.586        0.294      160.010       28.283        0.031      340.279       14.189      863.461
05/08/2013  23:43:00     -145.042      -30.280       -8.593       49.377       66.711       34.176     2438.048     4450.346     1168.018        1.504        0.403      148.169       29.545        0.040      340.263       14.162      863.461
05/08/2013  23:44:00     -146.900       21.624      -15.178       42.765       33.474       20.909     1828.884     1120.521      437.190        1.283        0.169      148.483       10.454        0.005      340.276       14.185      863.464
05/08/2013  23:45:00     -103.167       -8.464      -14.037       32.076       33.064       21.446     1028.864     1093.254      459.922        0.675        0.129      103.514       15.817        0.023      340.284       14.198      863.470
05/08/2013  23:46:00      -98.884        9.812       -4.784       57.408       37.041       24.591     3295.694     1371.999      604.713        0.758        0.264       99.369       26.653        0.072      340.250       14.140      863.493
05/08/2013  23:47:00     -149.731       16.256      -24.042       55.912       46.576       32.324     3126.200     2169.366     1044.843        1.480        0.317      150.611       15.775        0.011      340.280       14.190      863.468
05/08/2013  23:48:00     -137.087      -10.712      -12.703       70.317       59.687       35.016     4944.411     3562.560     1226.101        1.440        0.487      137.505       36.447        0.070      340.262       14.160      863.463
05/08/2013  23:49:00     -118.157       65.882      -20.525       64.203       46.608       30.926     4122.000     2172.311      956.434        1.299        0.363      135.283       25.216        0.035      340.294       14.213      863.494
05/08/2013  23:50:00     -123.949        9.471      -11.242       65.338       65.995       29.993     4269.017     4355.393      899.598        1.255        0.476      124.310       25.561        0.042      340.295       14.216      863.486
05/08/2013  23:51:00     -236.406      -71.169      -22.845       62.491       56.334       41.657     3905.164     3173.564     1735.296        3.514        0.441      246.886       36.975        0.022      340.361       14.323      863.482
05/08/2013  23:52:00     -248.434      -24.405      -23.656       71.256       66.928       37.945     5077.446     4479.339     1439.856        3.693        0.550      249.630       34.326        0.019      340.356       14.315      863.482
05/08/2013  23:53:00     -178.906      -49.778      -10.655       40.552       47.635       30.168     1644.461     2269.068      910.095        1.971        0.241      185.702       23.272        0.016      340.293       14.212      863.482
05/08/2013  23:54:00     -139.450      -18.532       -9.792       41.627       35.245       22.498     1732.792     1242.204      506.181        1.168        0.174      140.676       19.066        0.018      340.253       14.146      863.488
05/08/2013  23:55:00      -83.047      -30.939       -1.637       54.463       33.369       25.441     2966.178     1113.481      647.241        0.629        0.236       88.622       23.066        0.068      340.189       14.038      863.488
05/08/2013  23:56:00      -62.921       24.896        1.251       41.304       41.031       22.557     1706.014     1683.504      508.806        0.424        0.195       67.667       22.399        0.110      340.221       14.091      863.495
05/08/2013  23:57:00     -106.647       46.199       -6.491       40.786       35.955       25.783     1663.461     1292.764      664.767        0.858        0.181      116.224       14.324        0.015      340.241       14.125      863.511
05/08/2013  23:58:00     -141.573      -23.000      -17.076       57.814       31.091       29.031     3342.498      966.629      842.819        1.301        0.258      143.429       27.675        0.037      340.247       14.137      863.504
05/08/2013  23:59:00     -167.969      -82.140      -13.399       88.398       72.097       29.899     7814.233     5197.977      893.948        2.452        0.695      186.977       35.498        0.036      340.211       14.070      863.499
